[[{"header":{"parameterUnit":"m.s-1","parameterCategory":1,"la1":31.0,"la2":29.5877,"lo1":-88.7671,"lo2":-86.6584,"dy":0.0162,"dx":0.0185,"nx":115,"ny":88,"refTime":"2023-10-27T06:00:00:Z","depth":0,"parameterNumber":2,"parameterNumberName":"U-component_of_WINDS"},"data":[0.0,0.0,0.0,0.0,0.0,0.0,0.0,0.0,0.0,0.0,0.0,0.0,0.0,0.0,0.0,0.0,0.0,0.0,0.0,0.0,0.0,0.0,0.0,0.0,0.0,0.0,0.0,0.0,0.0,0.0,0.0,0.0,0.0,0.0,0.0,0.0,0.0,0.0,0.0,0.0,0.0,0.0,0.0,0.0,0.0,0.0,0.0,0.0,0.0,0.0,0.0,0.0,0.0,0.0,0.0,0.0,0.0,0.0,0.0,0.0,0.0,0.0,0.0,0.0,0.0,0.0,0.0,0.0,0.0,0.0,0.0,0.0,0.0,0.0,0.0,0.0,0.0,0.0,0.0,0.0,0.0,0.0,0.0,0.0,0.0,0.0,0.0,0.0,0.0,0.0,0.0,0.0,0.0,0.0,0.0,0.0,0.0,0.0,0.0,0.0,0.0,0.0,0.0,0.0,0.0,0.0,0.0,0.0,0.0,0.0,0.0,0.0,0.0,0.0,0.0,0.0,0.0,0.0,0.0,0.0,0.0,0.0,0.0,0.0,0.0,0.0,0.0,0.0,0.0,0.0,0.0,0.0,0.0,0.0,0.0,0.0,0.0,0.0,0.0,0.0,0.0,0.0,0.0,0.0,0.0,0.0,0.0,0.0,0.0,0.0,0.0,0.0,0.0,0.0,0.0,0.0,0.0,0.0,0.0,0.0,0.0,0.0,0.0,0.0,0.0,0.0,0.0,0.0,0.0,0.0,0.0,0.0,0.0,0.0,0.0,0.0,0.0,0.0,0.0,0.0,0.0,0.0,0.0,0.0,0.0,0.0,0.0,0.0,0.0,0.0,0.0,0.0,0.0,0.0,0.0,0.0,0.0,0.0,0.0,0.0,0.0,0.0,0.0,0.0,0.0,0.0,0.0,0.0,0.0,0.0,0.0,0.0,0.0,0.0,0.0,0.0,0.0,0.0,0.0,0.0,0.0,0.0,0.0,0.0,0.0,0.0,0.0,0.0,0.0,0.0,0.0,0.0,0.0,0.0,0.0,0.0,0.0,0.0,0.0,0.0,0.0,0.0,0.0,0.0,0.0,0.0,0.0,0.0,0.0,0.0,0.0,0.0,0.0,0.0,0.0,0.0,0.0,0.0,0.0,0.0,0.0,0.0,0.0,0.0,0.0,0.0,0.0,0.0,0.0,0.0,0.0,0.0,0.0,0.0,0.0,0.0,0.0,0.0,0.0,0.0,0.0,0.0,0.0,0.0,0.0,0.0,0.0,0.0,0.0,0.0,0.0,0.0,0.0,0.0,0.0,0.0,0.0,0.0,0.0,0.0,0.0,0.0,0.0,0.0,0.0,0.0,0.0,0.0,0.0,0.0,0.0,0.0,0.0,0.0,0.0,0.0,0.0,0.0,0.0,0.0,0.0,0.0,0.0,0.0,0.0,0.0,0.0,0.0,0.0,0.0,0.0,0.0,0.0,0.0,0.0,0.0,0.0,0.0,0.0,0.0,0.0,0.0,0.0,0.0,0.0,0.0,0.0,0.0,0.0,0.0,0.0,0.0,0.0,0.0,0.0,0.0,0.0,0.0,0.0,0.0,0.0,0.0,0.0,0.0,0.0,0.0,0.0,0.0,0.0,0.0,0.0,0.0,0.0,0.0,0.0,0.0,0.0,0.0,0.0,0.0,0.0,0.0,0.0,0.0,0.0,0.0,0.0,0.0,0.0,0.0,0.0,0.0,0.0,0.0,0.0,0.0,0.0,0.0,0.0,0.0,0.0,0.0,0.0,0.0,0.0,0.0,0.0,0.0,0.0,0.0,0.0,0.0,0.0,0.0,0.0,0.0,0.0,0.0,0.0,0.0,0.0,0.0,0.0,0.0,0.0,0.0,0.0,0.0,0.0,0.0,0.0,0.0,0.0,0.0,0.0,0.0,0.0,0.0,0.0,0.0,0.0,0.0,0.0,0.0,0.0,0.0,0.0,0.0,0.0,0.0,0.0,0.0,0.0,0.0,0.0,0.0,0.0,0.0,0.0,0.0,0.0,0.0,0.0,0.0,0.0,0.0,0.0,0.0,0.0,0.0,0.0,0.0,0.0,0.0,0.0,0.0,0.0,0.0,0.0,0.0,0.0,0.0,0.0,0.0,0.0,0.0,0.0,0.0,0.0,0.0,0.0,0.0,0.0,0.0,0.0,0.0,0.0,0.0,0.0,0.0,0.0,0.0,0.0,0.0,0.0,0.0,0.0,0.0,0.0,0.0,0.0,0.0,0.0,0.0,0.0,0.0,0.0,0.0,0.0,0.0,0.0,0.0,0.0,0.0,0.0,0.0,0.0,0.0,0.0,0.0,0.0,0.0,0.0,0.0,0.0,0.0,0.0,0.0,0.0,0.0,0.0,0.0,0.0,0.0,0.0,0.0,0.0,0.0,0.0,0.0,0.0,0.0,0.0,0.0,0.0,0.0,0.0,0.0,0.0,0.0,0.0,0.0,0.0,0.0,0.0,0.0,0.0,0.0,0.0,0.0,0.0,0.0,0.0,0.0,0.0,0.0,0.0,0.0,0.0,0.0,0.0,0.0,0.0,0.0,0.0,0.0,0.0,0.0,0.0,0.0,0.0,0.0,0.0,0.0,0.0,0.0,0.0,0.0,0.0,0.0,0.0,0.0,0.0,0.0,0.0,0.0,0.0,0.0,0.0,0.0,0.0,0.0,0.0,0.0,0.0,0.0,0.0,0.0,0.0,0.0,0.0,0.0,0.0,0.0,0.0,0.0,0.0,0.0,0.0,0.0,0.0,0.0,0.0,0.0,0.0,0.0,0.0,0.0,0.0,0.0,0.0,0.0,0.0,0.0,0.0,0.0,0.0,0.0,0.0,0.0,0.0,0.0,0.0,0.0,0.0,0.0,0.0,0.0,0.0,0.0,0.0,0.0,0.0,0.0,0.0,0.0,0.0,0.0,0.0,0.0,0.0,0.0,0.0,0.0,0.0,0.0,0.0,0.0,0.0,0.0,0.0,0.0,0.0,0.0,0.0,0.0,0.0,0.0,0.0,0.0,0.0,0.0,0.0,0.0,0.0,0.0,0.0,0.0,0.0,0.0,0.0,0.0,0.0,0.0,0.0,0.0,0.0,0.0,0.0,0.0,0.0,0.0,0.0,0.0,0.0,0.0,0.0,0.0,0.0,0.0,0.0,0.0,0.0,0.0,0.0,0.0,0.0,0.0,0.0,0.0,0.0,0.0,0.0,0.0,0.0,0.0,0.0,0.0,0.0,0.0,0.0,0.0,0.0,0.0,0.0,0.0,0.0,0.0,0.0,0.0,0.0,0.0,0.0,0.0,0.0,0.0,0.0,0.0,0.0,0.0,0.0,0.0,0.0,0.0,0.0,0.0,0.0,0.0,0.0,0.0,0.0,0.0,0.0,0.0,0.0,0.0,0.0,0.0,0.0,0.0,0.0,0.0,0.0,0.0,0.0,0.0,0.0,0.0,0.0,0.0,0.0,0.0,0.0,0.0,0.0,0.0,0.0,0.0,0.0,0.0,0.0,0.0,0.0,0.0,0.0,0.0,0.0,0.0,0.0,0.0,0.0,0.0,0.0,0.0,0.0,0.0,0.0,0.0,0.0,0.0,0.0,0.0,0.0,0.0,0.0,0.0,0.0,0.0,0.0,0.0,0.0,0.0,0.0,0.0,0.0,0.0,0.0,0.0,0.0,0.0,0.0,0.0,0.0,0.0,0.0,0.0,0.0,0.0,0.0,0.0,0.0,0.0,0.0,0.0,0.0,0.0,0.0,0.0,0.0,0.0,0.0,0.0,0.0,0.0,0.0,0.0,0.0,0.0,0.0,0.0,0.0,0.0,0.0,0.0,0.0,0.0,0.0,0.0,0.0,0.0,0.0,0.0,0.0,0.0,0.0,0.0,0.0,0.0,0.0,0.0,0.0,0.0,0.0,0.0,0.0,0.0,0.0,0.0,0.0,0.0,0.0,0.0,0.0,0.0,0.0,0.0,0.0,0.0,0.0,0.0,0.0,0.0,0.0,0.0,0.0,0.0,0.0,0.0,0.0,0.0,0.0,0.0,0.0,0.0,0.0,0.0,0.0,0.0,0.0,0.0,0.0,0.0,0.0,0.0,0.0,0.0,0.0,0.0,0.0,0.0,0.0,0.0,0.0,0.0,0.0,0.0,0.0,0.0,0.0,0.0,0.0,0.0,0.0,0.0,0.0,0.0,0.0,0.0,0.0,0.0,0.0,0.0,0.0,0.0,0.0,0.0,-1.9072,0.0,0.0,0.0,0.0,0.0,0.0,0.0,0.0,0.0,0.0,0.0,0.0,0.0,0.0,0.0,0.0,0.0,0.0,0.0,0.0,0.0,0.0,0.0,0.0,0.0,0.0,0.0,0.0,0.0,0.0,0.0,0.0,0.0,0.0,0.0,0.0,0.0,0.0,0.0,0.0,0.0,0.0,0.0,0.0,0.0,0.0,0.0,0.0,0.0,0.0,0.0,0.0,0.0,0.0,0.0,0.0,0.0,0.0,0.0,0.0,0.0,0.0,0.0,0.0,0.0,0.0,0.0,0.0,0.0,0.0,0.0,0.0,0.0,0.0,0.0,0.0,0.0,0.0,0.0,0.0,0.0,0.0,0.0,0.0,0.0,0.0,0.0,0.0,0.0,0.0,0.0,0.0,0.0,0.0,0.0,0.0,0.0,0.0,0.0,0.0,0.0,0.0,0.0,0.0,0.0,0.0,0.0,0.0,0.0,0.0,-2.3021,-2.311,-2.3348,-2.272,-2.1182,0.0,0.0,0.0,0.0,0.0,0.0,0.0,0.0,0.0,0.0,0.0,0.0,0.0,0.0,0.0,0.0,0.0,0.0,0.0,0.0,0.0,0.0,0.0,0.0,0.0,0.0,0.0,0.0,0.0,0.0,0.0,0.0,0.0,0.0,0.0,0.0,0.0,0.0,0.0,0.0,0.0,0.0,0.0,0.0,0.0,0.0,0.0,0.0,0.0,0.0,0.0,0.0,0.0,0.0,0.0,0.0,0.0,0.0,0.0,0.0,0.0,0.0,0.0,0.0,0.0,0.0,0.0,0.0,0.0,0.0,0.0,0.0,0.0,0.0,0.0,0.0,0.0,0.0,0.0,0.0,0.0,0.0,0.0,0.0,0.0,0.0,0.0,0.0,0.0,0.0,0.0,0.0,0.0,0.0,0.0,0.0,0.0,0.0,0.0,0.0,0.0,0.0,0.0,0.0,0.0,0.0,0.0,0.0,0.0,0.0,0.0,0.0,-2.6434,-2.5741,-2.3779,0.0,0.0,0.0,0.0,0.0,0.0,0.0,0.0,0.0,0.0,0.0,0.0,0.0,0.0,0.0,0.0,0.0,0.0,0.0,0.0,0.0,0.0,0.0,0.0,0.0,0.0,0.0,0.0,0.0,0.0,0.0,0.0,0.0,0.0,0.0,0.0,0.0,0.0,0.0,0.0,0.0,0.0,0.0,0.0,0.0,0.0,0.0,0.0,0.0,0.0,0.0,0.0,0.0,0.0,0.0,0.0,0.0,0.0,0.0,0.0,0.0,0.0,0.0,0.0,0.0,0.0,0.0,0.0,0.0,0.0,0.0,0.0,0.0,0.0,0.0,0.0,0.0,0.0,0.0,0.0,0.0,0.0,0.0,0.0,0.0,0.0,0.0,0.0,0.0,0.0,0.0,0.0,0.0,0.0,0.0,0.0,0.0,0.0,0.0,0.0,0.0,0.0,0.0,0.0,0.0,0.0,0.0,0.0,0.0,0.0,-2.78,-3.1016,-3.0863,0.0,-2.7755,0.0,0.0,0.0,0.0,0.0,0.0,0.0,0.0,0.0,0.0,0.0,0.0,0.0,0.0,0.0,0.0,0.0,0.0,0.0,0.0,0.0,0.0,0.0,0.0,0.0,0.0,0.0,0.0,0.0,0.0,0.0,0.0,0.0,0.0,0.0,0.0,0.0,0.0,0.0,0.0,0.0,0.0,0.0,0.0,0.0,0.0,0.0,0.0,0.0,0.0,0.0,0.0,0.0,0.0,0.0,0.0,0.0,0.0,0.0,0.0,0.0,0.0,0.0,0.0,0.0,0.0,0.0,0.0,0.0,0.0,0.0,0.0,0.0,0.0,0.0,0.0,0.0,0.0,0.0,0.0,0.0,0.0,0.0,0.0,0.0,0.0,0.0,0.0,0.0,0.0,0.0,0.0,0.0,0.0,0.0,0.0,0.0,0.0,0.0,0.0,0.0,0.0,0.0,0.0,0.0,0.0,0.0,0.0,0.0,0.0,-2.9701,-3.2551,-3.1698,-3.0505,0.0,0.0,0.0,0.0,0.0,0.0,0.0,0.0,0.0,0.0,0.0,0.0,0.0,0.0,0.0,0.0,0.0,0.0,0.0,0.0,0.0,0.0,0.0,0.0,0.0,0.0,0.0,0.0,0.0,0.0,0.0,0.0,0.0,0.0,0.0,0.0,0.0,0.0,0.0,0.0,0.0,0.0,0.0,0.0,0.0,0.0,0.0,0.0,0.0,0.0,0.0,0.0,0.0,0.0,0.0,0.0,0.0,0.0,0.0,0.0,0.0,0.0,0.0,0.0,0.0,0.0,0.0,0.0,0.0,0.0,0.0,0.0,0.0,0.0,0.0,0.0,0.0,0.0,0.0,0.0,0.0,0.0,0.0,0.0,0.0,0.0,0.0,0.0,0.0,0.0,0.0,0.0,0.0,0.0,0.0,0.0,0.0,0.0,0.0,0.0,0.0,0.0,0.0,0.0,0.0,0.0,0.0,0.0,0.0,0.0,-2.9656,-3.1714,-3.4302,-3.3122,-3.1679,-3.0207,0.0,0.0,0.0,0.0,0.0,0.0,0.0,0.0,0.0,0.0,0.0,0.0,0.0,0.0,0.0,0.0,0.0,0.0,0.0,0.0,0.0,0.0,0.0,0.0,0.0,0.0,0.0,0.0,0.0,0.0,0.0,0.0,0.0,0.0,0.0,0.0,0.0,0.0,0.0,0.0,0.0,0.0,0.0,0.0,0.0,0.0,0.0,0.0,0.0,0.0,0.0,0.0,0.0,0.0,0.0,0.0,0.0,0.0,0.0,0.0,0.0,0.0,0.0,0.0,0.0,0.0,0.0,0.0,0.0,0.0,0.0,0.0,0.0,0.0,0.0,0.0,0.0,0.0,0.0,0.0,0.0,0.0,0.0,0.0,0.0,0.0,0.0,0.0,0.0,0.0,0.0,0.0,0.0,0.0,0.0,0.0,0.0,0.0,0.0,0.0,0.0,0.0,0.0,0.0,0.0,0.0,0.0,0.0,-3.3208,-3.2693,-3.4078,-3.7687,-3.6332,-3.434,0.0,0.0,0.0,0.0,0.0,0.0,0.0,0.0,0.0,0.0,0.0,0.0,0.0,0.0,0.0,0.0,0.0,0.0,0.0,0.0,0.0,0.0,0.0,0.0,0.0,0.0,0.0,0.0,0.0,0.0,0.0,0.0,0.0,0.0,0.0,0.0,0.0,0.0,0.0,0.0,0.0,0.0,0.0,0.0,0.0,0.0,0.0,0.0,0.0,0.0,0.0,0.0,0.0,0.0,0.0,0.0,0.0,0.0,0.0,0.0,0.0,0.0,0.0,0.0,0.0,0.0,0.0,0.0,0.0,0.0,0.0,0.0,0.0,0.0,0.0,0.0,0.0,0.0,0.0,0.0,0.0,0.0,0.0,0.0,0.0,0.0,0.0,0.0,0.0,0.0,0.0,0.0,0.0,0.0,0.0,0.0,0.0,0.0,0.0,0.0,0.0,0.0,0.0,0.0,0.0,0.0,0.0,0.0,0.0,-3.0018,-3.2638,-3.589,-3.9606,-3.6735,-3.459,0.0,0.0,0.0,0.0,0.0,0.0,0.0,0.0,0.0,0.0,0.0,0.0,0.0,0.0,0.0,0.0,0.0,0.0,0.0,0.0,0.0,0.0,0.0,0.0,0.0,0.0,0.0,0.0,0.0,0.0,0.0,0.0,0.0,0.0,0.0,0.0,0.0,0.0,0.0,0.0,0.0,0.0,0.0,0.0,0.0,0.0,0.0,0.0,0.0,0.0,0.0,0.0,0.0,0.0,0.0,0.0,0.0,0.0,0.0,0.0,0.0,0.0,0.0,0.0,0.0,0.0,0.0,0.0,0.0,0.0,0.0,0.0,0.0,0.0,0.0,0.0,0.0,0.0,0.0,0.0,0.0,0.0,0.0,0.0,0.0,0.0,0.0,0.0,0.0,0.0,0.0,0.0,0.0,0.0,0.0,0.0,0.0,0.0,0.0,0.0,0.0,0.0,0.0,0.0,0.0,0.0,0.0,0.0,0.0,-3.0782,0.0,-3.8187,-4.0235,-3.7219,-3.4666,0.0,0.0,0.0,0.0,0.0,0.0,0.0,0.0,0.0,0.0,0.0,0.0,0.0,0.0,0.0,0.0,0.0,0.0,0.0,0.0,0.0,0.0,0.0,0.0,0.0,0.0,0.0,0.0,0.0,0.0,0.0,0.0,0.0,0.0,0.0,0.0,0.0,0.0,0.0,0.0,0.0,0.0,0.0,0.0,0.0,0.0,0.0,0.0,0.0,0.0,0.0,0.0,0.0,0.0,0.0,0.0,0.0,0.0,0.0,0.0,0.0,0.0,0.0,0.0,0.0,0.0,0.0,0.0,0.0,0.0,0.0,0.0,0.0,0.0,0.0,0.0,0.0,0.0,0.0,0.0,0.0,0.0,0.0,0.0,0.0,0.0,0.0,0.0,0.0,0.0,0.0,0.0,0.0,0.0,0.0,0.0,0.0,0.0,0.0,0.0,0.0,0.0,0.0,0.0,0.0,0.0,0.0,0.0,-2.9937,-3.653,-3.9738,-4.0757,-3.9663,-3.8004,-3.4747,0.0,0.0,0.0,0.0,0.0,0.0,0.0,0.0,0.0,0.0,0.0,0.0,0.0,0.0,0.0,0.0,0.0,0.0,0.0,0.0,0.0,0.0,0.0,0.0,0.0,0.0,0.0,0.0,0.0,0.0,0.0,0.0,0.0,0.0,0.0,0.0,0.0,0.0,0.0,0.0,0.0,0.0,0.0,0.0,0.0,0.0,0.0,0.0,0.0,0.0,0.0,0.0,0.0,0.0,0.0,0.0,0.0,0.0,0.0,0.0,0.0,0.0,0.0,0.0,0.0,0.0,0.0,0.0,0.0,0.0,0.0,0.0,0.0,0.0,0.0,0.0,0.0,0.0,0.0,0.0,0.0,0.0,0.0,0.0,0.0,0.0,0.0,0.0,0.0,0.0,0.0,0.0,0.0,0.0,0.0,0.0,0.0,0.0,0.0,0.0,0.0,0.0,0.0,0.0,0.0,0.0,0.0,0.0,0.0,-3.5371,-3.8057,-4.0365,-4.1992,-3.8291,-3.6012,0.0,0.0,0.0,0.0,0.0,0.0,0.0,0.0,0.0,0.0,0.0,0.0,0.0,0.0,0.0,0.0,0.0,0.0,0.0,0.0,0.0,0.0,0.0,0.0,0.0,0.0,0.0,0.0,0.0,0.0,0.0,0.0,0.0,0.0,0.0,0.0,0.0,0.0,0.0,0.0,0.0,0.0,0.0,0.0,0.0,0.0,0.0,0.0,0.0,0.0,0.0,0.0,0.0,0.0,0.0,0.0,0.0,0.0,0.0,0.0,0.0,0.0,0.0,0.0,0.0,0.0,0.0,0.0,0.0,0.0,0.0,0.0,0.0,0.0,0.0,0.0,0.0,0.0,0.0,0.0,0.0,0.0,0.0,0.0,0.0,0.0,0.0,0.0,0.0,0.0,0.0,0.0,0.0,0.0,0.0,0.0,0.0,0.0,0.0,0.0,0.0,0.0,0.0,0.0,0.0,0.0,0.0,0.0,0.0,-3.6661,-3.9166,-4.1305,-4.2888,-3.916,-3.6933,-3.638,0.0,0.0,0.0,0.0,0.0,0.0,0.0,0.0,0.0,0.0,0.0,0.0,0.0,0.0,0.0,0.0,0.0,0.0,0.0,0.0,0.0,0.0,0.0,0.0,0.0,0.0,0.0,0.0,0.0,0.0,0.0,0.0,0.0,0.0,0.0,0.0,0.0,0.0,0.0,0.0,0.0,0.0,0.0,0.0,0.0,0.0,0.0,0.0,0.0,0.0,0.0,0.0,0.0,0.0,0.0,0.0,0.0,0.0,0.0,0.0,0.0,0.0,0.0,0.0,0.0,0.0,0.0,0.0,0.0,0.0,0.0,0.0,0.0,0.0,0.0,0.0,0.0,0.0,0.0,0.0,0.0,0.0,0.0,0.0,0.0,0.0,0.0,0.0,0.0,0.0,0.0,0.0,0.0,0.0,0.0,0.0,0.0,0.0,0.0,0.0,0.0,0.0,0.0,0.0,0.0,0.0,0.0,0.0,-3.9751,-4.2536,-4.3443,-4.2394,-4.056,-3.7688,0.0,0.0,0.0,0.0,0.0,0.0,0.0,0.0,0.0,0.0,0.0,0.0,0.0,0.0,0.0,0.0,0.0,0.0,0.0,0.0,0.0,0.0,0.0,0.0,0.0,0.0,0.0,0.0,0.0,0.0,0.0,0.0,0.0,0.0,0.0,0.0,0.0,0.0,0.0,0.0,0.0,0.0,0.0,0.0,0.0,0.0,0.0,0.0,0.0,0.0,0.0,0.0,0.0,0.0,0.0,0.0,0.0,0.0,0.0,0.0,0.0,0.0,0.0,0.0,0.0,0.0,0.0,0.0,0.0,0.0,0.0,0.0,0.0,0.0,0.0,0.0,0.0,0.0,0.0,0.0,0.0,0.0,0.0,0.0,0.0,0.0,0.0,0.0,0.0,0.0,0.0,0.0,0.0,0.0,0.0,0.0,0.0,0.0,0.0,0.0,0.0,0.0,0.0,0.0,0.0,0.0,0.0,0.0,0.0,-4.0586,-4.2823,-4.4318,-4.4858,-4.1479,-3.9079,0.0,0.0,0.0,0.0,0.0,0.0,0.0,0.0,0.0,0.0,0.0,0.0,0.0,0.0,0.0,0.0,0.0,0.0,0.0,0.0,0.0,0.0,0.0,0.0,0.0,0.0,0.0,0.0,0.0,0.0,0.0,0.0,0.0,0.0,0.0,0.0,0.0,0.0,0.0,0.0,0.0,0.0,0.0,0.0,0.0,0.0,0.0,0.0,0.0,0.0,0.0,0.0,0.0,0.0,0.0,0.0,0.0,0.0,0.0,0.0,0.0,0.0,0.0,0.0,0.0,0.0,0.0,0.0,0.0,0.0,0.0,0.0,0.0,0.0,0.0,0.0,0.0,0.0,0.0,0.0,0.0,0.0,0.0,0.0,0.0,0.0,0.0,0.0,0.0,0.0,0.0,0.0,0.0,0.0,0.0,0.0,0.0,0.0,0.0,0.0,0.0,0.0,0.0,0.0,0.0,0.0,0.0,0.0,-3.9796,-4.1406,-4.3455,-4.5005,-4.5942,-4.2934,-4.0566,0.0,0.0,0.0,0.0,0.0,0.0,0.0,0.0,0.0,0.0,0.0,0.0,0.0,0.0,0.0,0.0,0.0,0.0,0.0,0.0,0.0,0.0,0.0,0.0,0.0,0.0,0.0,0.0,0.0,0.0,0.0,0.0,0.0,0.0,0.0,0.0,0.0,0.0,0.0,0.0,0.0,0.0,0.0,0.0,0.0,0.0,0.0,0.0,0.0,0.0,0.0,0.0,0.0,0.0,0.0,0.0,0.0,0.0,0.0,0.0,0.0,0.0,0.0,0.0,0.0,0.0,0.0,0.0,0.0,0.0,0.0,0.0,0.0,0.0,0.0,0.0,0.0,0.0,0.0,0.0,0.0,0.0,0.0,0.0,0.0,0.0,0.0,0.0,0.0,0.0,0.0,0.0,0.0,0.0,0.0,0.0,0.0,0.0,0.0,0.0,0.0,0.0,0.0,0.0,0.0,0.0,0.0,0.0,-4.0993,-4.2202,-4.423,-4.5491,-4.5833,-4.4306,-4.1891,0.0,0.0,0.0,0.0,0.0,0.0,0.0,0.0,0.0,0.0,0.0,0.0,0.0,0.0,0.0,0.0,0.0,0.0,0.0,0.0,0.0,0.0,0.0,0.0,0.0,0.0,0.0,0.0,0.0,0.0,0.0,0.0,0.0,0.0,0.0,0.0,0.0,0.0,0.0,0.0,0.0,0.0,0.0,0.0,0.0,0.0,0.0,0.0,0.0,0.0,0.0,0.0,0.0,0.0,0.0,0.0,0.0,0.0,0.0,0.0,0.0,0.0,0.0,0.0,0.0,0.0,0.0,0.0,0.0,0.0,0.0,0.0,0.0,0.0,0.0,0.0,0.0,0.0,0.0,0.0,0.0,0.0,0.0,0.0,0.0,0.0,0.0,0.0,0.0,0.0,0.0,0.0,0.0,0.0,0.0,0.0,0.0,0.0,0.0,0.0,0.0,0.0,0.0,0.0,0.0,0.0,0.0,0.0,-4.1255,-4.302,-4.4517,-4.5468,-4.5808,-4.3727,-4.1612,0.0,0.0,0.0,0.0,0.0,0.0,0.0,0.0,0.0,0.0,0.0,0.0,0.0,0.0,0.0,0.0,0.0,0.0,0.0,0.0,0.0,0.0,0.0,0.0,0.0,0.0,0.0,0.0,0.0,0.0,0.0,0.0,0.0,0.0,0.0,0.0,0.0,0.0,0.0,0.0,0.0,0.0,0.0,0.0,0.0,0.0,0.0,0.0,-4.2479,0.0,0.0,0.0,0.0,0.0,0.0,0.0,0.0,0.0,0.0,0.0,0.0,0.0,0.0,0.0,0.0,0.0,0.0,0.0,0.0,0.0,0.0,0.0,0.0,0.0,0.0,0.0,0.0,0.0,0.0,0.0,0.0,0.0,0.0,0.0,0.0,0.0,0.0,0.0,0.0,0.0,0.0,0.0,0.0,0.0,0.0,0.0,0.0,0.0,0.0,0.0,0.0,0.0,0.0,0.0,0.0,0.0,0.0,0.0,-4.1959,-4.3272,-4.4403,-4.5237,-4.5712,-4.419,-4.2159,0.0,0.0,0.0,0.0,0.0,0.0,0.0,0.0,0.0,0.0,0.0,0.0,0.0,0.0,0.0,0.0,0.0,0.0,0.0,0.0,0.0,0.0,0.0,0.0,0.0,0.0,0.0,0.0,0.0,0.0,0.0,0.0,0.0,0.0,0.0,0.0,0.0,0.0,0.0,0.0,0.0,0.0,0.0,0.0,0.0,0.0,0.0,0.0,0.0,0.0,0.0,0.0,0.0,0.0,0.0,0.0,0.0,0.0,0.0,0.0,0.0,0.0,0.0,0.0,0.0,0.0,0.0,0.0,0.0,0.0,0.0,0.0,0.0,0.0,0.0,0.0,0.0,0.0,0.0,0.0,0.0,0.0,0.0,0.0,0.0,0.0,0.0,0.0,0.0,0.0,0.0,0.0,0.0,0.0,0.0,0.0,0.0,0.0,0.0,0.0,0.0,0.0,0.0,0.0,0.0,0.0,0.0,-4.0,-4.222,-4.3019,-4.3925,-4.4756,-4.5467,-4.4853,-4.2886,-3.9538,0.0,0.0,0.0,0.0,0.0,0.0,0.0,0.0,0.0,0.0,0.0,0.0,0.0,0.0,0.0,0.0,0.0,0.0,0.0,0.0,0.0,0.0,0.0,0.0,0.0,0.0,0.0,0.0,0.0,0.0,0.0,0.0,0.0,0.0,0.0,0.0,0.0,0.0,-3.7702,-4.1683,0.0,0.0,0.0,0.0,0.0,0.0,0.0,0.0,-4.5384,0.0,0.0,0.0,0.0,0.0,0.0,0.0,0.0,0.0,0.0,0.0,0.0,0.0,0.0,0.0,0.0,0.0,0.0,0.0,0.0,0.0,0.0,0.0,0.0,0.0,0.0,0.0,0.0,0.0,0.0,0.0,0.0,0.0,0.0,0.0,0.0,0.0,0.0,0.0,0.0,0.0,0.0,0.0,0.0,0.0,0.0,0.0,0.0,0.0,0.0,0.0,0.0,0.0,0.0,0.0,0.0,-3.7956,-3.9139,-4.0419,-4.1857,-4.2966,-4.3732,-4.4202,-4.4403,-4.2879,-3.9509,0.0,0.0,0.0,0.0,0.0,0.0,0.0,0.0,0.0,0.0,0.0,0.0,0.0,0.0,0.0,0.0,0.0,0.0,0.0,0.0,0.0,0.0,0.0,0.0,0.0,0.0,0.0,0.0,0.0,0.0,0.0,0.0,0.0,0.0,0.0,0.0,0.0,0.0,0.0,-4.5046,-4.6309,0.0,0.0,0.0,0.0,0.0,0.0,0.0,0.0,-4.31,0.0,0.0,0.0,0.0,0.0,0.0,0.0,0.0,0.0,0.0,0.0,0.0,0.0,0.0,0.0,0.0,0.0,0.0,0.0,0.0,0.0,0.0,0.0,0.0,0.0,0.0,0.0,0.0,0.0,0.0,0.0,0.0,0.0,0.0,0.0,0.0,0.0,0.0,0.0,0.0,0.0,0.0,0.0,0.0,0.0,0.0,0.0,0.0,0.0,0.0,0.0,0.0,0.0,0.0,0.0,-3.7657,-3.9517,-4.0999,-4.2172,-4.2749,-4.3019,-4.2948,-4.2345,-4.0837,0.0,0.0,0.0,0.0,0.0,0.0,0.0,0.0,0.0,0.0,0.0,0.0,0.0,0.0,0.0,0.0,0.0,0.0,0.0,0.0,0.0,0.0,0.0,0.0,0.0,0.0,0.0,0.0,0.0,0.0,0.0,0.0,0.0,0.0,0.0,0.0,0.0,0.0,0.0,0.0,-4.4889,-4.5818,-4.6422,0.0,0.0,0.0,0.0,0.0,0.0,-4.3677,-4.2612,0.0,0.0,0.0,0.0,0.0,0.0,0.0,0.0,0.0,0.0,0.0,0.0,0.0,0.0,0.0,0.0,0.0,0.0,0.0,0.0,0.0,0.0,0.0,0.0,0.0,0.0,0.0,0.0,0.0,0.0,0.0,0.0,0.0,0.0,0.0,0.0,0.0,0.0,0.0,0.0,0.0,0.0,0.0,0.0,0.0,0.0,0.0,0.0,0.0,0.0,0.0,0.0,0.0,0.0,0.0,-3.6642,-3.9187,-4.0925,-4.1767,-4.2021,-4.203,-4.1732,-4.0462,-3.8953,0.0,0.0,0.0,0.0,0.0,0.0,0.0,0.0,0.0,0.0,0.0,0.0,0.0,0.0,0.0,0.0,0.0,0.0,0.0,0.0,0.0,0.0,0.0,0.0,0.0,0.0,0.0,0.0,0.0,0.0,0.0,0.0,0.0,0.0,0.0,0.0,0.0,0.0,0.0,0.0,0.0,-4.5369,-4.6124,-4.5621,0.0,0.0,0.0,0.0,-4.4356,-4.342,0.0,0.0,0.0,0.0,0.0,0.0,0.0,0.0,0.0,0.0,0.0,0.0,0.0,0.0,0.0,0.0,0.0,0.0,0.0,0.0,0.0,0.0,0.0,0.0,0.0,0.0,0.0,0.0,0.0,0.0,0.0,0.0,0.0,0.0,0.0,0.0,0.0,0.0,0.0,0.0,0.0,0.0,0.0,0.0,0.0,0.0,0.0,0.0,0.0,0.0,0.0,0.0,0.0,0.0,0.0,0.0,-3.4453,-3.621,-3.7527,-3.8445,-3.944,-4.0174,-4.0573,-4.0251,-3.8995,0.0,0.0,0.0,0.0,0.0,0.0,0.0,0.0,0.0,0.0,0.0,0.0,0.0,0.0,0.0,0.0,0.0,0.0,0.0,0.0,0.0,0.0,0.0,0.0,0.0,0.0,0.0,0.0,0.0,0.0,0.0,0.0,0.0,0.0,0.0,0.0,0.0,0.0,0.0,0.0,0.0,-4.6631,-4.5504,-4.4724,-4.4058,0.0,0.0,-4.2875,-4.5314,-4.5016,0.0,0.0,0.0,0.0,0.0,0.0,0.0,0.0,0.0,0.0,0.0,0.0,0.0,0.0,0.0,0.0,0.0,0.0,0.0,0.0,0.0,0.0,0.0,0.0,0.0,0.0,0.0,0.0,0.0,0.0,0.0,0.0,0.0,0.0,0.0,0.0,0.0,0.0,0.0,0.0,0.0,0.0,0.0,0.0,0.0,0.0,0.0,0.0,0.0,0.0,0.0,0.0,0.0,0.0,0.0,-3.0868,-3.4755,-3.6,-3.7099,-3.8148,-3.8672,-3.8813,-3.8583,-3.7182,-3.5945,0.0,0.0,0.0,0.0,0.0,0.0,0.0,0.0,0.0,0.0,0.0,0.0,0.0,0.0,0.0,0.0,0.0,0.0,0.0,0.0,0.0,0.0,0.0,0.0,0.0,0.0,0.0,0.0,0.0,0.0,0.0,0.0,0.0,0.0,0.0,0.0,0.0,0.0,0.0,0.0,0.0,0.0,-4.4945,-4.442,0.0,0.0,0.0,-4.2347,-4.386,0.0,0.0,0.0,0.0,0.0,0.0,0.0,0.0,0.0,0.0,0.0,0.0,0.0,0.0,0.0,0.0,0.0,0.0,0.0,0.0,0.0,0.0,0.0,0.0,0.0,0.0,0.0,0.0,0.0,0.0,0.0,0.0,0.0,0.0,0.0,0.0,0.0,0.0,0.0,0.0,0.0,0.0,0.0,0.0,0.0,0.0,0.0,0.0,0.0,0.0,0.0,0.0,0.0,0.0,0.0,0.0,0.0,-3.4362,-3.5352,-3.6435,-3.7591,-3.767,-3.74,-3.6891,-3.5029,0.0,0.0,0.0,0.0,0.0,0.0,0.0,0.0,0.0,0.0,0.0,0.0,0.0,0.0,0.0,0.0,0.0,0.0,0.0,0.0,0.0,0.0,0.0,0.0,0.0,0.0,0.0,-2.48,0.0,0.0,0.0,0.0,0.0,0.0,0.0,0.0,0.0,0.0,0.0,0.0,0.0,0.0,-4.305,-4.4498,-4.4198,-4.4042,0.0,0.0,-4.2135,-4.2922,-4.2731,-4.1848,0.0,0.0,0.0,0.0,0.0,0.0,0.0,0.0,0.0,0.0,0.0,0.0,0.0,0.0,0.0,0.0,0.0,0.0,0.0,0.0,0.0,0.0,0.0,0.0,0.0,0.0,0.0,0.0,0.0,0.0,0.0,0.0,0.0,0.0,0.0,0.0,0.0,0.0,0.0,0.0,0.0,0.0,0.0,0.0,0.0,0.0,0.0,0.0,0.0,0.0,0.0,0.0,0.0,0.0,-2.9627,-3.1709,-3.311,-3.4382,-3.5559,-3.5586,-3.5759,-3.6057,-3.5502,-3.3906,0.0,0.0,0.0,0.0,0.0,0.0,0.0,0.0,0.0,0.0,0.0,0.0,0.0,0.0,0.0,0.0,0.0,0.0,0.0,0.0,0.0,0.0,0.0,0.0,0.0,0.0,0.0,0.0,0.0,0.0,0.0,0.0,0.0,0.0,0.0,0.0,0.0,0.0,0.0,0.0,0.0,-4.2236,-4.4257,-4.3897,-4.4093,0.0,-4.3802,-4.2415,-4.3732,-4.4213,-4.3286,-3.9712,0.0,0.0,0.0,0.0,0.0,0.0,0.0,0.0,0.0,0.0,0.0,0.0,0.0,0.0,0.0,0.0,0.0,0.0,0.0,0.0,0.0,0.0,0.0,0.0,0.0,0.0,0.0,0.0,0.0,0.0,0.0,0.0,0.0,0.0,0.0,0.0,0.0,0.0,0.0,0.0,0.0,0.0,0.0,0.0,0.0,0.0,0.0,0.0,0.0,0.0,0.0,0.0,0.0,-2.9146,-3.1454,-3.2086,-3.2981,-3.4211,-3.3874,-3.3931,-3.4503,-3.3925,-3.2869,0.0,0.0,0.0,0.0,0.0,0.0,0.0,0.0,0.0,0.0,0.0,0.0,0.0,0.0,0.0,0.0,0.0,0.0,0.0,0.0,0.0,0.0,0.0,0.0,0.0,0.0,0.0,0.0,-2.664,-2.6791,-2.6653,0.0,0.0,0.0,0.0,0.0,0.0,0.0,0.0,0.0,0.0,-3.992,-4.1439,-4.2293,0.0,0.0,-4.3034,-4.2372,-4.3945,-4.2752,-4.1071,-3.9526,-3.851,0.0,0.0,0.0,0.0,0.0,0.0,0.0,0.0,0.0,0.0,0.0,0.0,0.0,0.0,0.0,0.0,0.0,0.0,0.0,0.0,0.0,0.0,0.0,0.0,0.0,0.0,0.0,0.0,0.0,0.0,0.0,0.0,0.0,0.0,0.0,0.0,0.0,0.0,0.0,0.0,0.0,0.0,0.0,0.0,0.0,0.0,0.0,0.0,0.0,0.0,0.0,0.0,-2.8297,-3.0509,-3.0718,-3.1384,-3.2509,-3.2327,-3.2441,-3.2859,-3.2631,-3.2003,0.0,0.0,0.0,0.0,0.0,0.0,0.0,0.0,0.0,0.0,0.0,0.0,0.0,0.0,0.0,0.0,0.0,0.0,0.0,0.0,0.0,0.0,0.0,0.0,0.0,0.0,0.0,0.0,-2.7517,-2.7394,-2.6841,0.0,0.0,0.0,0.0,0.0,0.0,0.0,0.0,0.0,0.0,-3.8518,-3.9557,-4.1114,-4.2295,-4.2767,-4.1811,-4.1503,-4.2731,-4.1336,-3.9833,-3.8963,0.0,0.0,0.0,0.0,0.0,0.0,0.0,0.0,0.0,0.0,0.0,0.0,0.0,0.0,0.0,0.0,0.0,0.0,0.0,0.0,0.0,0.0,0.0,0.0,0.0,0.0,0.0,0.0,0.0,0.0,-2.4922,0.0,0.0,0.0,0.0,0.0,0.0,0.0,0.0,0.0,0.0,0.0,0.0,0.0,0.0,0.0,0.0,0.0,0.0,0.0,0.0,0.0,0.0,-2.6946,-2.8354,-2.886,-2.9409,-3.0099,-3.0865,-3.1278,-3.1272,-3.2041,-3.1564,-2.9617,0.0,0.0,0.0,0.0,0.0,0.0,0.0,0.0,0.0,0.0,0.0,0.0,0.0,0.0,0.0,0.0,0.0,0.0,0.0,0.0,0.0,0.0,0.0,0.0,0.0,0.0,-2.732,-2.6829,-2.6327,0.0,0.0,0.0,0.0,0.0,0.0,0.0,0.0,0.0,0.0,-3.6529,-3.8353,-3.9074,-4.0561,-4.1425,-4.107,-4.0181,-3.9611,-3.9848,-4.049,-4.0264,0.0,0.0,0.0,0.0,0.0,0.0,0.0,0.0,0.0,0.0,0.0,0.0,0.0,0.0,0.0,0.0,0.0,0.0,0.0,0.0,0.0,0.0,0.0,0.0,0.0,0.0,0.0,-2.7351,-2.6581,0.0,0.0,0.0,0.0,0.0,0.0,0.0,0.0,0.0,0.0,0.0,-2.6014,-2.6662,0.0,0.0,0.0,0.0,0.0,0.0,0.0,0.0,0.0,0.0,0.0,0.0,-2.6822,-2.8045,-2.8249,-2.8668,-2.9313,-2.9179,-2.9307,-2.9719,-3.003,-2.9929,-2.9363,0.0,0.0,0.0,0.0,0.0,0.0,0.0,0.0,0.0,0.0,0.0,0.0,0.0,0.0,0.0,0.0,0.0,0.0,0.0,0.0,0.0,0.0,0.0,0.0,0.0,-2.704,0.0,0.0,0.0,0.0,0.0,0.0,0.0,0.0,0.0,0.0,0.0,-3.1457,-3.3288,-3.4847,-3.6059,-3.6662,-3.8216,-3.9224,0.0,0.0,0.0,0.0,0.0,0.0,0.0,0.0,0.0,0.0,0.0,0.0,0.0,0.0,-4.0674,-3.7853,-3.5977,-3.4836,-3.4825,0.0,0.0,0.0,0.0,0.0,0.0,0.0,0.0,0.0,0.0,0.0,0.0,0.0,0.0,-2.7024,0.0,-2.5901,0.0,0.0,0.0,0.0,0.0,0.0,0.0,0.0,-2.6075,-2.5826,-2.5477,-2.6066,-2.6173,0.0,-2.5361,-2.4816,0.0,0.0,0.0,0.0,0.0,0.0,0.0,0.0,-2.6532,-2.7507,-2.7511,-2.7603,-2.7801,-2.7858,-2.8003,-2.8275,-2.8702,-2.9094,-2.9421,-2.7181,-2.5825,0.0,0.0,0.0,0.0,0.0,0.0,0.0,0.0,0.0,0.0,0.0,0.0,0.0,0.0,0.0,0.0,0.0,0.0,0.0,0.0,0.0,0.0,0.0,-2.5791,0.0,0.0,0.0,0.0,0.0,0.0,0.0,0.0,0.0,-2.857,-2.9984,-3.1274,-3.2493,-3.3856,-3.4806,-3.5169,0.0,0.0,0.0,0.0,0.0,0.0,0.0,-3.7222,-3.7772,-3.7324,-3.6647,-3.5891,-3.7219,-3.8043,-3.7031,0.0,0.0,-3.7155,-3.5844,-3.5038,-3.5016,-3.4471,-3.3984,-3.3984,-3.3512,-3.3105,0.0,0.0,0.0,0.0,0.0,0.0,0.0,0.0,-2.6801,-2.6773,0.0,-2.6005,0.0,0.0,0.0,0.0,0.0,-2.5983,0.0,0.0,-2.5134,-2.4931,-2.3978,-2.4883,-2.5357,-2.5388,-2.5798,-2.5351,-2.4177,-2.308,0.0,0.0,0.0,0.0,0.0,0.0,-2.5871,-2.6557,-2.643,-2.6108,-2.5594,-2.684,-2.7308,-2.6855,-2.8066,-2.899,-2.9504,-2.7739,-2.6493,-2.5985,-2.425,0.0,0.0,0.0,0.0,0.0,0.0,0.0,0.0,0.0,0.0,0.0,0.0,0.0,0.0,0.0,0.0,0.0,0.0,0.0,0.0,-2.4254,0.0,0.0,0.0,0.0,0.0,0.0,0.0,0.0,0.0,0.0,-2.6884,-2.9348,-3.1347,-3.1869,0.0,0.0,0.0,0.0,-3.6129,-3.5642,-3.5968,-3.6155,-3.5676,-3.7026,-3.7761,-3.654,0.0,0.0,-3.4807,-3.5987,-3.6603,-3.4278,-3.5169,-3.6916,-3.9817,-3.8627,-3.7565,-3.7476,-3.5942,-3.4887,-3.4769,-3.4115,-3.3819,-2.5966,0.0,0.0,0.0,0.0,-2.7993,-2.8057,-2.889,-2.7413,-2.658,-2.6185,-2.5523,0.0,0.0,0.0,0.0,0.0,0.0,-2.5338,-2.542,-2.4682,-2.4286,-2.4238,-2.4538,-2.4665,-2.471,-2.4531,-2.4252,-2.3887,-2.2955,-2.2532,-2.2529,0.0,0.0,0.0,0.0,-2.3828,-2.4366,-2.4376,-2.4291,-2.4093,-2.4507,-2.479,-2.4978,-2.6674,-2.7781,-2.8238,-2.7717,-2.7328,-2.7157,-2.4434,0.0,0.0,0.0,0.0,0.0,0.0,0.0,0.0,0.0,0.0,0.0,0.0,0.0,0.0,0.0,0.0,0.0,0.0,0.0,-2.3588,-2.3338,-2.3274,0.0,0.0,0.0,0.0,0.0,0.0,0.0,0.0,0.0,-2.6465,-2.8769,-3.0893,0.0,0.0,-3.4188,-3.5165,-3.5519,-3.5846,-3.6091,-3.6248,0.0,-3.6141,-3.6231,-3.6467,-3.6833,-3.711,-3.6972,-3.6254,-3.6023,-3.5608,-3.4475,-3.4621,-3.5103,-3.5301,-3.5478,-3.5248,-3.4772,-3.4185,-3.3675,-3.3205,-3.299,-3.2888,-2.4715,-2.5936,-2.5724,-2.6177,-2.6854,-2.5894,-2.5939,-2.6668,-2.5483,-2.4783,-2.4496,-2.3919,-2.3401,-2.2856,-2.2524,0.0,0.0,0.0,-2.3595,-2.5127,-2.3567,-2.3055,-2.3453,-2.3453,-2.3167,-2.2723,-2.2969,-2.2998,-2.2818,-2.278,-2.2518,-2.2169,0.0,0.0,-2.3282,-2.3449,-2.353,-2.35,-2.3679,-2.359,-2.3209,-2.3198,-2.3612,-2.4511,-2.5669,-2.6489,-2.6956,-2.6907,-2.6703,-2.6317,-2.4003,-2.227,0.0,0.0,0.0,0.0,0.0,0.0,0.0,0.0,0.0,0.0,0.0,-2.1309,-2.0869,0.0,0.0,0.0,-2.184,-2.2554,-2.2737,-2.2686,0.0,0.0,0.0,0.0,0.0,0.0,0.0,-2.4913,-2.5046,-2.5332,-2.6084,-2.769,-2.9526,-3.1503,-3.2763,-3.3899,-3.4913,0.0,-3.5742,-3.6329,-3.6417,-3.6417,-3.6405,-3.5893,-3.5642,-3.597,-3.572,-3.559,-3.5716,-3.5234,-3.4686,-3.4077,-3.3894,-3.3615,-3.2753,-3.296,-3.3331,-3.3339,-3.3355,-3.3226,-3.282,-3.2563,-3.2377,-2.3764,-2.3407,-2.2957,-2.2735,-2.2626,-2.2617,-2.2626,-2.2593,-2.2197,-2.2258,-2.263,-2.187,-2.1378,-2.1097,-2.0025,0.0,-2.1858,-2.0297,-2.1035,-2.3541,-2.196,-2.141,-2.1823,-2.1805,-2.1162,-2.0124,-2.1263,-2.159,-2.1221,-2.2359,-2.2722,-2.2293,-2.2888,-2.3414,-2.3996,-2.4371,-2.4167,-2.3309,-2.374,-2.3508,-2.2554,-2.2598,-2.3283,-2.4687,-2.4882,-2.5183,-2.563,-2.5596,-2.515,-2.4256,-2.3197,-2.2188,-2.1251,0.0,0.0,0.0,0.0,0.0,0.0,0.0,0.0,0.0,0.0,0.0,0.0,0.0,0.0,0.0,-2.0978,0.0,-2.1684,-2.2084,0.0,0.0,0.0,-2.3203,-2.3306,-2.3603,-2.3994,-2.4414,0.0,0.0,-2.5684,-2.6454,-2.7758,-2.985,-3.1916,-3.3465,-3.4156,-3.4749,-3.5441,-3.5844,-3.6013,-3.6036,-3.5936,-3.564,-3.5119,-3.4438,-3.401,-3.4003,-3.4131,-3.4056,-3.3719,-3.304,-3.2909,-3.2618,-3.158,-3.1466,-3.1723,-3.2804,-3.3066,-3.3122,-3.3003,-3.2591,-3.2207,-2.0711,-2.045,-2.0547,-2.1668,-2.3464,-2.3511,-2.3519,-2.3486,-2.3194,-2.293,-2.2646,-2.1973,-2.1246,-2.0588,-2.0286,-2.056,-2.1223,-2.0535,-2.0751,-2.1721,-2.0699,-2.0361,-2.053,-2.0213,-1.9941,-1.9666,-1.9941,-2.0036,-1.9988,-2.1159,-2.1212,-2.0311,-2.1269,-2.2011,-2.2423,-2.2534,-2.2312,-2.1767,-2.1868,-2.1645,-2.1159,-2.1756,-2.2271,-2.2625,-2.378,-2.444,-2.4587,-2.4966,-2.4881,-2.4265,-2.266,-2.1623,-2.1366,-2.0052,0.0,0.0,0.0,0.0,0.0,0.0,0.0,0.0,0.0,-2.0554,-1.9583,0.0,-1.9256,0.0,-1.8811,-1.9239,-2.0031,-2.072,0.0,0.0,-2.2971,-2.376,-2.4082,-2.4209,-2.4434,-2.4863,-2.5303,-2.5742,-2.6172,-2.6689,-2.731,-2.8237,-2.991,-3.1501,-3.2621,-3.2952,-3.3093,-3.3284,-3.3357,-3.3499,-3.4138,-3.4468,-3.4429,-3.3929,-3.3657,-3.3614,-3.3621,-3.3449,-3.3018,-3.2196,-3.2021,-3.1639,-3.0751,-3.0582,-3.0645,-3.0983,-3.1502,-3.1919,-3.1905,-3.1784,-3.1703,-1.9633,-1.9392,-1.9679,-2.0594,-2.1828,-2.1828,-2.182,-2.1798,-2.1521,-2.1203,-2.0786,-2.0014,-1.9403,-1.8957,-1.8807,-1.923,-1.9911,-1.9013,-1.9339,-2.0634,-1.9493,-1.8964,-1.9003,-1.8813,-1.8403,-1.7894,-1.8449,-1.868,-1.8764,-1.9898,-2.0169,-1.9534,-2.0169,-2.0598,-2.0827,-2.0853,-2.1057,-2.1492,-2.1523,-2.1396,-2.1212,-2.1681,-2.1973,-2.2158,-2.2803,-2.2959,-2.2421,-2.3195,-2.3163,-2.227,-2.1829,-2.1366,-2.081,-1.986,-1.9055,0.0,0.0,0.0,0.0,0.0,0.0,0.0,0.0,0.0,0.0,0.0,-1.8526,-1.8253,-1.8417,-1.8819,-1.9616,-2.0292,-2.0813,-2.1237,-2.2784,-2.3749,-2.3787,-2.4496,-2.506,-2.5342,-2.5586,-2.5781,-2.6074,-2.6465,-2.6816,-2.707,-2.8103,-2.9394,-3.0846,-3.144,-3.173,-3.1742,-3.1939,-3.222,-3.263,-3.3009,-3.3077,-3.2711,-3.2568,-3.254,-3.2673,-3.2351,-3.184,-3.1162,-3.0806,-3.0412,-2.9671,-2.9484,-2.9484,-2.9433,-2.9704,-3.0228,-3.0833,-3.0945,-3.0959,-1.8991,-1.8855,-1.9273,-1.9266,-1.9074,-1.9248,-1.9312,-1.9285,-1.8951,-1.8651,-1.833,-1.7601,-1.7259,-1.7239,-1.6934,-1.7453,-1.8464,-1.7043,-1.7599,-1.9548,-1.8168,-1.7503,-1.7458,-1.7458,-1.6897,-1.5879,-1.6943,-1.7451,-1.7498,-1.868,-1.9177,-1.9039,-1.9169,-1.9268,-1.9268,-1.9077,-1.9828,-2.1463,-2.1527,-2.1508,-2.1409,-2.1556,-2.1715,-2.1992,-2.1719,-2.1062,-2.0036,-2.0922,-2.0818,-1.9497,-2.0697,-2.0922,-1.9816,-1.9463,-1.8927,0.0,-1.7872,0.0,0.0,0.0,0.0,0.0,0.0,0.0,0.0,-1.8253,-1.8113,-1.8414,-1.849,-1.8739,-1.9341,-1.9868,-2.0223,-2.0183,-2.2005,-2.3104,-2.2881,-2.4309,-2.5392,-2.5353,-2.5509,-2.5586,-2.5528,-2.5957,-2.6221,-2.6338,-2.6671,-2.7491,-2.8866,-2.9827,-3.0323,-3.0477,-3.1021,-3.1147,-3.1193,-3.1436,-3.1511,-3.1201,-3.108,-3.1166,-3.1388,-3.0989,-3.0474,-2.9935,-2.9456,-2.8978,-2.8394,-2.8299,-2.8219,-2.8047,-2.8035,-2.8462,-2.9575,-2.9922,-2.9973,-1.5531,-1.5618,-1.6961,-1.7364,-1.718,-1.8415,-1.9011,-1.8971,-1.8388,-1.8036,-1.7749,-1.7575,-1.7502,-1.7495,-1.7442,-1.7571,-1.7759,-1.7268,-1.715,-1.733,-1.6801,-1.6436,-1.6163,-1.6157,-1.6015,-1.5825,-1.6015,-1.6157,-1.6197,-1.7444,-1.7498,-1.656,-1.7537,-1.8048,-1.8002,0.0,0.0,0.0,-1.9433,-1.9288,-1.893,-1.9577,-1.9809,-1.9491,-1.9598,0.0,-1.8776,-1.8931,-1.8761,-1.8213,-1.8608,0.0,0.0,0.0,0.0,0.0,0.0,0.0,0.0,0.0,0.0,0.0,-1.6011,-1.6254,-1.6927,-1.6391,-1.6063,-1.6355,-1.639,-1.6432,-1.6583,-1.7591,-1.8354,-1.8709,-1.9979,-2.096,-2.1514,-2.2868,-2.3669,-2.3553,-2.4497,-2.5059,-2.4738,-2.5049,-2.5449,-2.5781,-2.5879,-2.6094,-2.6418,-2.7312,-2.7754,-2.7814,-2.8652,-2.9128,-2.8988,-2.9797,-3.0274,-2.9954,-2.9848,-2.9841,-2.9871,-2.95,-2.9044,-2.8533,-2.8347,-2.8008,-2.7352,-2.7219,-2.7126,-2.6857,-2.6816,-2.7133,-2.8079,-2.8267,-2.8267,-1.4604,0.0,-1.5488,-1.5706,0.0,-1.616,-1.6384,-1.641,-1.7495,-1.7869,-1.7589,-1.7589,-1.7589,-1.7589,-1.7589,-1.7502,-1.74,-1.7112,-1.6774,-1.648,-1.6192,-1.5972,-1.5825,-1.5825,-1.5825,-1.5825,-1.5825,-1.5825,-1.5825,-1.6433,-1.6433,-1.5825,-1.6433,-1.6756,-1.6763,-1.6109,-1.6631,-1.8245,-1.8872,-1.9089,-1.8888,-1.9261,-1.936,-1.9134,-1.9051,0.0,0.0,0.0,0.0,0.0,0.0,0.0,0.0,-1.784,0.0,-1.7033,-1.704,-1.6768,-1.6274,-1.6331,-1.6197,-1.5658,-1.5605,-1.5709,-1.5979,-1.5754,-1.5671,-1.5812,-1.5825,-1.5844,-1.6032,-1.6662,-1.711,-1.7546,-1.8636,-1.9541,-2.0036,-2.1191,-2.2014,-2.1965,-2.2551,-2.305,-2.3495,-2.373,-2.4193,-2.4897,-2.504,-2.505,-2.5089,-2.5635,-2.6084,-2.6121,-2.6719,-2.7326,-2.7631,-2.8211,-2.8797,-2.8605,-2.8533,-2.8454,-2.8453,-2.806,-2.759,-2.7332,-2.7023,-2.6641,-2.6326,-2.6135,-2.5999,-2.5737,-2.56,-2.56,-2.6027,-2.6524,-2.701,-1.3765,-1.377,-1.4063,-1.4094,-1.39,-1.3893,-1.378,-1.3813,0.0,0.0,0.0,-1.7589,-1.7477,-1.7252,-1.7423,-1.7264,-1.6813,-1.668,-1.6506,-1.6259,-1.5965,-1.5825,-1.5825,-1.5825,-1.5825,-1.5825,-1.5825,-1.5825,-1.5825,-1.5825,-1.5825,-1.5825,-1.5825,-1.5825,-1.5825,-1.5825,-1.6292,-1.7365,-1.8357,-1.8856,-1.8856,-1.8856,-1.8856,-1.8856,-1.8475,-1.7844,-1.6935,-1.7395,-1.7293,-1.647,-1.7557,-1.7839,-1.6856,-1.7157,-1.6897,-1.592,-1.5825,-1.5825,-1.5825,-1.5825,-1.5825,-1.5825,-1.5825,-1.5725,-1.5484,-1.5698,-1.5825,-1.5825,-1.5825,-1.5925,-1.6214,-1.6186,-1.6286,-1.6526,-1.7513,-1.8191,-1.8356,-1.9516,-2.0335,-2.0335,-2.0614,-2.1009,-2.1901,-2.2104,-2.2496,-2.3364,-2.356,-2.3838,-2.4033,-2.4586,-2.5063,-2.5179,-2.5544,-2.5918,-2.6465,-2.6869,-2.7077,-2.7249,-2.7133,-2.7008,-2.6932,-2.6552,-2.6271,-2.6206,-2.5679,-2.537,-2.5242,-2.5062,-2.485,-2.4605,-2.438,-2.4166,-2.4069,-2.4701,-2.5368,-1.0475,-1.06,-1.1976,-1.2309,-1.2033,-1.3316,-1.3694,-1.3532,-1.5047,-1.6483,-1.7589,-1.7589,-1.6876,-1.5784,-1.6788,-1.6549,-1.5375,-1.6019,-1.6362,-1.6259,-1.5965,-1.5825,-1.5825,-1.5825,-1.5825,-1.5825,-1.5778,-1.5825,-1.5825,-1.5784,-1.5825,-1.5825,-1.5825,-1.5825,-1.5825,-1.5825,-1.5879,-1.6062,-1.6251,-1.6332,-1.6332,-1.6332,-1.6332,-1.6325,-1.6095,-1.5844,-1.5661,-1.5757,-1.5737,-1.5606,-1.5971,-1.6135,-1.6001,-1.6035,-1.5967,-1.5825,-1.5825,-1.5825,-1.5825,-1.5825,-1.5825,-1.5825,-1.5825,-1.5812,-1.5772,-1.5758,-1.5825,-1.5825,-1.5825,-1.5798,-1.5844,-1.5905,-1.5932,-1.5917,-1.6102,-1.6334,-1.6683,-1.7852,-1.8613,-1.8517,-1.9541,-2.0022,-2.0017,-2.026,-2.053,-2.0806,-2.1336,-2.1587,-2.2372,-2.3575,-2.4417,-2.4592,-2.4805,-2.4993,-2.5223,-2.5579,-2.5797,-2.5898,-2.5685,-2.5495,-2.5505,-2.515,-2.4879,-2.4827,-2.4689,-2.4466,-2.4133,-2.4003,-2.3787,-2.3474,-2.3222,-2.3047,-2.296,-2.2755,-2.2736,-0.9751,-0.9855,-1.0413,-1.0548,-1.0394,-1.0944,-1.1538,-1.2136,-1.2778,-1.3911,-1.5209,-1.5257,-1.4883,-1.4319,-1.4721,-1.4555,-1.3906,-1.4099,-1.4173,-1.4155,-1.3808,-1.3692,-1.3692,-1.3692,-1.4082,-1.4704,-1.4028,-1.4418,-1.5635,-1.5092,-1.5146,-1.573,-1.5825,-1.5825,-1.5825,-1.5825,-1.5825,-1.5825,-1.5825,-1.5825,-1.5825,-1.5825,-1.5825,-1.5825,-1.5651,-1.5631,-1.5631,-1.5631,-1.5631,-1.5631,-1.5711,-1.5825,-1.5825,-1.5825,-1.5825,-1.5825,-1.5825,-1.5825,-1.5825,-1.5825,-1.5825,-1.5825,-1.5825,-1.5825,-1.5825,-1.5825,-1.5825,-1.5825,-1.5825,-1.5825,-1.5825,-1.5825,-1.5825,-1.5825,-1.5825,-1.5885,-1.6047,-1.6546,-1.692,-1.692,-1.7374,-1.7967,-1.8473,-1.8683,-1.9095,-1.9614,-2.0002,-2.0243,-2.0615,-2.1278,-2.219,-2.3155,-2.3745,-2.3981,-2.3955,-2.4173,-2.4435,-2.4581,-2.4291,-2.4119,-2.4078,-2.3834,-2.3764,-2.3734,-2.3647,-2.344,-2.3101,-2.2925,-2.2706,-2.2432,-2.2024,-2.1847,-2.1713,-2.1168,-2.1024,-0.9663,-0.9795,-0.954,-0.9412,-0.9354,-0.9062,-0.9592,-1.0566,-1.0617,-1.1269,-1.2295,-1.2945,-1.3102,-1.2807,-1.2866,-1.2745,-1.2424,-1.235,-1.2302,-1.2237,-1.2031,-1.1896,-1.1896,-1.1896,-1.2431,-1.3253,-1.2382,-1.2963,-1.4615,-1.3932,-1.3932,-1.4806,-1.4902,-1.5051,-1.5384,-1.5391,-1.5534,-1.5778,-1.5825,-1.5825,-1.5825,-1.5825,-1.5825,-1.5825,-1.5825,-1.5825,-1.5778,-1.554,-1.5391,-1.5337,-1.5092,-1.4908,-1.4902,-1.4908,-1.4908,-1.4902,-1.4908,-1.5051,-1.5337,-1.5683,-1.5825,-1.5825,-1.5825,-1.5825,-1.5825,-1.5825,-1.5825,-1.5825,-1.5825,-1.5825,-1.5825,-1.5825,-1.5825,-1.5825,-1.5825,-1.5832,-1.5832,-1.5825,-1.5825,-1.5825,-1.5825,-1.6258,-1.699,-1.7271,-1.7598,-1.8326,-1.8902,-1.9085,-1.9085,-1.9268,-2.0232,-2.1302,-2.2339,-2.2697,-2.2644,-2.287,-2.3095,-2.332,-2.3025,-2.2861,-2.2813,-2.2794,-2.2784,-2.2794,-2.2706,-2.2485,-2.2176,-2.1998,-2.1776,-2.1454,-2.1042,-2.0628,-2.0311,-1.9812,-1.9592,-0.9568,-0.9781,-0.9642,-0.9507,-0.934,-0.9059,-0.8992,-0.9154,-0.9099,-0.9154,-0.9688,-1.2132,-1.2453,-1.1539,-1.2197,-1.1813,-1.0807,-1.1532,-1.1898,-1.1859,-1.1912,-1.1896,-1.176,-1.1804,-1.195,-1.2042,-1.1848,-1.1945,-1.2479,-1.2237,-1.2193,-1.2242,-1.2237,-1.2909,-1.3926,-1.407,-1.4603,-1.5737,-1.5825,-1.5825,-1.5825,-1.5825,-1.5825,-1.5825,-1.5784,-1.5825,-1.5689,-1.4711,-1.407,-1.3974,-1.2963,-1.2285,-1.2334,-1.2285,-1.2285,-1.2334,-1.2334,-1.277,-1.3974,-1.5146,-1.5683,-1.5825,-1.5683,-1.5683,-1.573,-1.5778,-1.5778,-1.5825,-1.5825,-1.5825,-1.5825,-1.5825,-1.5825,-1.5825,-1.5825,-1.5825,-1.5825,-1.5825,-1.5825,-1.5825,-1.5825,-1.5879,-1.6109,-1.6157,-1.615,-1.6473,-1.7304,-1.7863,-1.7909,-1.8588,-1.9231,-1.9749,-2.0391,-2.0906,-2.1212,-2.1563,-2.1886,-2.1913,-2.1911,-2.1865,-2.19,-2.1865,-2.183,-2.1909,-2.182,-2.1642,-2.132,-2.1087,-2.0916,-2.0464,-2.0011,-1.9446,-1.8673,-1.8357,-1.8581,-0.9635,-0.9785,-0.9473,-0.9252,-0.9106,-0.8988,-0.8937,-0.8937,-0.8937,-0.8889,-0.8927,-1.014,-1.0296,-0.9699,-1.0035,-0.9823,-0.935,-0.9729,-0.9916,-0.9908,-0.9819,-0.977,-0.9762,-0.9652,-0.9998,-1.0632,-0.9998,-1.0386,-1.1653,-1.1896,-1.1896,-1.1896,-1.1896,-1.2188,-1.2673,-1.2716,-1.3011,-1.3451,-1.3499,-1.3499,-1.3692,-1.5051,-1.5825,-1.573,-1.5092,-1.4704,-1.4555,-1.3445,-1.2716,-1.2673,-1.2193,-1.1896,-1.1896,-1.1896,-1.1896,-1.1896,-1.1896,-1.2139,-1.2668,-1.3204,-1.3494,-1.3499,-1.3499,-1.3788,-1.4609,-1.4657,-1.4949,-1.5683,-1.5825,-1.5825,-1.5778,-1.5825,-1.5825,-1.5825,-1.5825,-1.5825,-1.5825,-1.5825,-1.5825,-1.5825,-1.5825,-1.5825,-1.5825,-1.5825,-1.5825,-1.5825,-1.6339,-1.6615,-1.6669,-1.703,-1.7498,-1.7978,-1.838,-1.9155,-2.0093,-2.0654,-2.0925,-2.106,-2.1105,-2.115,-2.1239,-2.1195,-2.1105,-2.1105,-2.097,-2.0789,-2.0428,-2.0229,-2.0002,-1.9509,-1.8904,-1.8295,-1.7955,-1.7761,-1.7846,-0.9632,-0.9696,-0.9367,-0.9154,-0.9055,-0.8915,-0.8937,-0.8937,-0.8937,-0.8879,-0.8784,-0.8794,-0.8815,-0.8703,-0.8591,-0.8526,-0.8538,-0.8535,-0.8459,-0.8425,-0.8353,-0.8378,-0.8316,-0.8218,-0.8657,-0.9299,-0.8621,-0.9091,-1.0762,-1.091,-1.0937,-1.0979,-1.0988,-1.1109,-1.1403,-1.1447,-1.1609,-1.1901,-1.1896,-1.1896,-1.2188,-1.374,-1.4717,-1.4663,-1.3836,-1.3343,-1.3295,-1.2086,-1.1361,-1.1365,-1.1019,-1.0828,-1.0823,-1.0828,-1.0828,-1.0872,-1.117,-1.1361,-1.1361,-1.1702,-1.1896,-1.1896,-1.1896,-1.2334,-1.3102,-1.3343,-1.3734,-1.4465,-1.5051,-1.5343,-1.5778,-1.5825,-1.5825,-1.5825,-1.5825,-1.5825,-1.5825,-1.5825,-1.5825,-1.5825,-1.5825,-1.5825,-1.5825,-1.5825,-1.5825,-1.5825,-1.5825,-1.5825,-1.5825,-1.592,-1.6163,-1.6838,-1.716,-1.79,-1.9288,-1.9837,-2.011,-2.03,-2.0391,-2.0428,-2.0609,-2.0473,-2.0391,-2.0346,-2.0155,-1.9882,-1.9608,-1.9417,-1.9042,-1.8488,-1.8025,-1.7606,-1.7488,-1.734,-1.7246,-0.9483,-0.9585,-0.9435,-0.934,-0.9334,-0.9055,-0.8937,-0.8937,-0.8937,-0.8875,-0.8831,-0.8791,-0.8723,-0.8713,-0.8699,-0.8625,-0.8499,-0.8503,-0.8448,-0.8353,-0.8428,-0.8472,-0.8472,-0.8465,-0.8504,-0.8671,-0.8463,-0.8412,-0.8667,-0.8565,-0.8536,-0.8703,-0.8848,-0.9297,-1.0121,-1.0289,-1.0807,-1.1551,-1.1614,-1.175,-1.1799,-1.1945,-1.2091,-1.2042,-1.1994,-1.1994,-1.1848,-1.0779,-1.0096,-1.0047,-0.897,-0.8283,-0.8233,-0.8283,-0.8333,-0.8428,-0.941,-1.0047,-1.0243,-1.1072,-1.1702,-1.175,-1.1556,-1.1848,-1.1945,-1.1994,-1.2139,-1.2188,-1.3397,-1.4411,-1.5343,-1.5683,-1.573,-1.5683,-1.5784,-1.5825,-1.5825,-1.5825,-1.5825,-1.5825,-1.5825,-1.5825,-1.5825,-1.5825,-1.5825,-1.5825,-1.5825,-1.5825,-1.5825,-1.5825,-1.6163,-1.669,-1.7026,-1.7448,-1.8596,-1.905,-1.9342,-1.9571,-1.9708,-1.9716,-1.9679,-1.9679,-1.9679,-1.9579,-1.9342,-1.9104,-1.8827,-1.845,-1.8025,-1.766,-1.7574,-1.7347,-1.7113,-1.7073,-1.7066,-0.9445,-0.9374,-0.9316,-0.9184,-0.9089,-0.8925,-0.8937,-0.8937,-0.8937,-0.8828,-0.8811,-0.8832,-0.8801,-0.8713,-0.8815,-0.8774,-0.8645,-0.8726,-0.8743,-0.8696,-0.8652,-0.8628,-0.8618,-0.853,-0.8535,-0.8472,-0.8431,-0.846,-0.8408,-0.8408,-0.8428,-0.8521,-0.8535,-0.8758,-0.9057,-0.9017,-0.9186,-0.9527,-0.9474,-0.9406,-0.9456,-0.941,-0.941,-0.9456,-1.0239,-1.0681,-1.0681,-0.941,-0.8726,-0.8726,-0.8233,-0.7988,-0.7988,-0.7988,-0.7988,-0.8038,-0.8432,-0.8726,-0.8772,-0.9114,-0.941,-0.941,-0.9406,-0.9846,-1.0489,-1.073,-1.1023,-1.175,-1.2231,-1.2866,-1.3494,-1.4758,-1.5439,-1.4854,-1.5289,-1.5778,-1.5825,-1.5825,-1.5825,-1.5825,-1.5825,-1.5825,-1.5825,-1.5825,-1.5825,-1.5825,-1.5825,-1.5825,-1.5825,-1.5825,-1.5974,-1.6359,-1.6643,-1.7012,-1.766,-1.8218,-1.8596,-1.8874,-1.9066,-1.915,-1.9204,-1.902,-1.8966,-1.8881,-1.8643,-1.8319,-1.804,-1.766,-1.7192,-1.6965,-1.6878,-1.7066,-1.6737,-1.6925,-1.7066,-0.9371,-0.9289,-0.9231,-0.9096,-0.9001,-0.8851,-0.8811,-0.8807,-0.8866,-0.8753,-0.875,-0.8872,-0.8824,-0.8811,-0.8841,-0.8834,-0.8747,-0.8889,-0.8916,-0.8866,-0.8811,-0.8784,-0.8767,-0.8679,-0.8632,-0.8621,-0.8574,-0.8557,-0.8557,-0.8557,-0.8581,-0.8628,-0.8628,-0.8601,-0.8547,-0.8459,-0.8381,-0.8275,-0.8167,-0.8096,-0.8002,-0.7988,-0.7988,-0.8137,-0.8874,-0.9365,-0.9312,-0.8482,-0.7988,-0.7988,-0.7988,-0.7988,-0.7988,-0.7988,-0.7988,-0.7988,-0.7988,-0.7988,-0.7988,-0.7988,-0.8038,-0.7988,-0.8038,-0.8432,-0.9262,-0.9365,-0.9805,-1.0485,-1.1121,-1.1219,-1.1263,-1.2963,-1.4322,-1.4022,-1.4704,-1.5384,-1.573,-1.5825,-1.5825,-1.5825,-1.5825,-1.5825,-1.5825,-1.5825,-1.5825,-1.5825,-1.5825,-1.5825,-1.5825,-1.5825,-1.5879,-1.6177,-1.6454,-1.6777,-1.7246,-1.7667,-1.8087,-1.8365,-1.855,-1.8635,-1.8635,-1.845,-1.8311,-1.8179,-1.7947,-1.7574,-1.72,-1.6871,-1.6595,-1.6366,-1.6595,-1.6925,-1.6878,-1.7012,-1.72,-0.9121,-0.9083,-0.9154,-0.8844,-0.8679,-0.8397,-0.8554,-0.8345,-0.8558,-0.8453,-0.8456,-0.8807,-0.8858,-0.8871,-0.8854,-0.8868,-0.8868,-0.8875,-0.8817,-0.8771,-0.8814,-0.8865,-0.8858,-0.8899,-0.8834,-0.8886,-0.8777,-0.8716,-0.871,-0.8716,-0.8774,-0.8841,-0.8896,-0.8821,-0.8713,-0.8672,-0.855,-0.8357,-0.8275,-0.8191,-0.8012,-0.7995,-0.7988,-0.7988,-0.8088,-0.8187,-0.8137,-0.8041,-0.7988,-0.7988,-0.7988,-0.7988,-0.7988,-0.7988,-0.7988,-0.7988,-0.7988,-0.7988,-0.7988,-0.7988,-0.7988,-0.7988,-0.7988,-0.8038,-0.8184,-0.8233,-0.8283,-0.8577,-0.9266,-0.9558,-0.892,-1.0435,-1.2334,-1.359,-1.383,-1.4561,-1.5242,-1.5683,-1.5778,-1.5683,-1.5683,-1.5778,-1.5825,-1.5825,-1.5825,-1.5825,-1.5825,-1.5825,-1.5825,-1.5825,-1.5927,-1.6123,-1.6359,-1.6636,-1.6918,-1.72,-1.7574,-1.7893,-1.8032,-1.8125,-1.8133,-1.804,-1.7854,-1.7714,-1.7387,-1.7012,-1.6636,-1.6353,-1.6494,-1.6407,-1.669,-1.6878,-1.7019,-1.716,-1.7387,-0.5983,-0.6007,-0.5978,-0.5962,-0.5949,-0.5825,-0.5825,-0.5933,-0.6802,-0.7348,-0.7519,-0.8323,-0.8784,-0.8841,-0.8777,-0.8784,-0.8878,-0.8881,-0.8854,-0.8828,-0.8861,-0.8937,-0.8937,-0.8937,-0.8937,-0.8875,-0.8838,-0.8811,-0.8807,-0.8807,-0.8896,-0.893,-0.894,-0.8861,-0.8866,-0.871,-0.8645,-0.8567,-0.837,-0.8245,-0.8191,-0.8042,-0.7992,-0.7988,-0.7988,-0.7988,-0.7988,-0.7988,-0.7988,-0.7988,-0.7988,-0.7988,-0.7988,-0.7988,-0.7988,-0.7988,-0.7988,-0.7988,-0.7988,-0.7992,-0.7995,-0.7988,-0.7988,-0.7988,-0.7988,-0.7988,-0.7988,-0.7988,-0.8382,-0.8382,-0.8287,-0.8627,-0.9895,-1.1116,-1.2807,-1.3542,-1.3451,-1.3974,-1.4411,-1.4609,-1.5242,-1.573,-1.5825,-1.5825,-1.5825,-1.5825,-1.5825,-1.5825,-1.5825,-1.5825,-1.5825,-1.5927,-1.6211,-1.6447,-1.6683,-1.6925,-1.7207,-1.7434,-1.7567,-1.7613,-1.7667,-1.7581,-1.7394,-1.716,-1.6824,-1.6541,-1.6123,-1.6028,-1.6211,-1.6407,-1.6548,-1.6784,-1.7073,-1.7301,-1.7535,-0.447,-0.447,-0.447,-0.447,-0.4462,-0.439,-0.4412,-0.4519,-0.5333,-0.5769,-0.6046,-0.7345,-0.8011,-0.818,-0.8558,-0.8797,-0.8933,-0.8937,-0.8605,-0.8266,-0.8771,-0.8881,-0.8937,-0.8937,-0.8937,-0.8937,-0.8937,-0.8937,-0.8937,-0.894,-0.8967,-0.9005,-0.8908,-0.8967,-0.8994,-0.8814,-0.8557,-0.7983,-0.7675,-0.7351,-0.6774,-0.6546,-0.6765,-0.7277,-0.7382,-0.7639,-0.8099,-0.8157,-0.8099,-0.8002,-0.7988,-0.7988,-0.7988,-0.7988,-0.7988,-0.7998,-0.8039,-0.8052,-0.8008,-0.8099,-0.8046,-0.8005,-0.7988,-0.7988,-0.7988,-0.7988,-0.7988,-0.7988,-0.8038,-0.7988,-0.7988,-0.8038,-0.8428,-0.9164,-1.1112,-1.2183,-1.1994,-1.2624,-1.3445,-1.3878,-1.4609,-1.5188,-1.5629,-1.5825,-1.5825,-1.5825,-1.5825,-1.5825,-1.5825,-1.5825,-1.5825,-1.5879,-1.6076,-1.6265,-1.64,-1.6643,-1.6838,-1.6972,-1.7106,-1.7153,-1.7207,-1.7059,-1.6925,-1.669,-1.6407,-1.6211,-1.5879,-1.5879,-1.5974,-1.6163,-1.6494,-1.6777,-1.7113,-1.7441,-1.7675,-0.4191,-0.4247,-0.4191,-0.4024,-0.3959,-0.3786,-0.3651,-0.3867,-0.4084,-0.4139,-0.4479,-0.5847,-0.6571,-0.6864,-0.7668,-0.8115,-0.8546,-0.8266,-0.7651,-0.7146,-0.7648,-0.8208,-0.8156,-0.8399,-0.8517,-0.8605,-0.8863,-0.8912,-0.8888,-0.8964,-0.8903,-0.8828,-0.8631,-0.8677,-0.8404,-0.8614,-0.7656,-0.6565,-0.6362,-0.565,-0.4355,-0.4234,-0.4915,-0.6285,-0.6437,-0.7069,-0.8209,-0.8336,-0.8211,-0.8029,-0.8022,-0.8025,-0.8008,-0.7998,-0.7988,-0.8022,-0.8197,-0.8191,-0.8133,-0.8211,-0.8221,-0.8042,-0.8029,-0.7995,-0.7995,-0.7988,-0.7988,-0.7988,-0.7988,-0.7988,-0.7988,-0.7988,-0.8088,-0.8137,-0.9361,-1.0435,-1.156,-1.1799,-1.2188,-1.3199,-1.3734,-1.4316,-1.5439,-1.5629,-1.5825,-1.5825,-1.5825,-1.5825,-1.5825,-1.5825,-1.5825,-1.5879,-1.6028,-1.6123,-1.6265,-1.6407,-1.6602,-1.6602,-1.673,-1.6777,-1.6784,-1.669,-1.6494,-1.6265,-1.6076,-1.5927,-1.5825,-1.5832,-1.6015,-1.64,-1.6636,-1.6864,-1.7145,-1.7527,-1.7815,-0.1176,-0.1176,-0.1176,-0.1176,-0.1173,-0.1101,0.0,-0.1257,-0.2293,-0.273,-0.3058,-0.4213,-0.4977,-0.5129,-0.5349,-0.5516,-0.5793,-0.5808,-0.553,-0.5196,-0.5419,-0.5641,-0.594,-0.6894,-0.7399,-0.7469,-0.8511,-0.915,-0.8908,-0.894,-0.8489,-0.7369,-0.7355,-0.6719,-0.5937,-0.5867,-0.5466,-0.505,-0.4873,-0.4622,-0.4162,-0.3901,-0.4771,-0.6095,-0.621,-0.6951,-0.8325,-0.8448,-0.836,-0.8228,-0.8211,-0.8208,-0.8197,-0.8116,-0.8106,-0.8204,-0.8252,-0.8309,-0.8357,-0.8397,-0.8357,-0.8231,-0.8211,-0.8157,-0.7995,-0.7992,-0.7988,-0.7988,-0.7988,-0.7988,-0.7988,-0.7995,-0.7995,-0.8038,-0.8439,-0.9126,-1.0145,-1.0538,-1.0681,-1.1116,-1.2668,-1.3734,-1.4364,-1.514,-1.5683,-1.5683,-1.5778,-1.5825,-1.5825,-1.5825,-1.5825,-1.5825,-1.5879,-1.6028,-1.6123,-1.6218,-1.6319,-1.6319,-1.6359,-1.6447,-1.6454,-1.6447,-1.6211,-1.5974,-1.5974,-1.5825,-1.5879,-1.5933,-1.6258,-1.6541,-1.6784,-1.6972,-1.7286,-1.7613,-1.79,0.0,0.0,0.0,0.0,0.0,0.0,0.0,0.0,-0.0829,-0.127,-0.16,-0.2753,-0.3432,-0.357,-0.4093,-0.4372,-0.4467,-0.447,-0.4136,-0.3409,-0.2908,-0.3367,-0.4405,-0.5585,-0.6164,-0.6858,-0.7838,-0.8574,-0.888,-0.8574,-0.7703,-0.6932,-0.6143,-0.5332,-0.4846,-0.4485,-0.4102,-0.3665,-0.3388,-0.3138,-0.2477,-0.2365,-0.3113,-0.4246,-0.4629,-0.545,-0.7318,-0.8261,-0.8581,-0.8418,-0.8412,-0.8412,-0.8405,-0.8279,-0.8269,-0.836,-0.8411,-0.8528,-0.8482,-0.8533,-0.8509,-0.8446,-0.8412,-0.8282,-0.818,-0.8136,-0.8126,-0.7998,-0.7992,-0.7988,-0.8002,-0.8096,-0.8049,-0.8012,-0.8046,-0.8403,-0.9133,-0.9167,-0.946,-1.0194,-1.1263,-1.2517,-1.2958,-1.422,-1.4848,-1.5092,-1.5493,-1.5683,-1.5825,-1.5825,-1.5825,-1.5825,-1.5825,-1.5927,-1.5974,-1.6021,-1.6069,-1.6076,-1.6123,-1.6163,-1.6163,-1.6163,-1.6021,-1.5879,-1.5825,-1.5825,-1.5879,-1.6028,-1.6265,-1.6548,-1.6838,-1.7073,-1.7333,-1.766,-1.7947,0.0,0.0,0.0,0.0,0.0,0.0,0.0,0.0,0.0,0.0,0.0,-0.1453,-0.1954,-0.2068,-0.2956,-0.3855,-0.3857,-0.3522,-0.2962,-0.1958,-0.1177,-0.1522,-0.3423,-0.4534,-0.5374,-0.6473,-0.6861,-0.816,-0.8717,-0.7846,-0.6977,-0.6237,-0.5016,-0.4265,-0.3679,-0.3787,-0.3217,-0.2225,-0.1968,-0.1455,0.0,0.0,-0.1302,-0.2536,-0.3176,-0.4387,-0.6368,-0.7749,-0.8494,-0.8543,-0.8516,-0.8506,-0.8503,-0.8496,-0.8489,-0.8516,-0.8598,-0.8632,-0.8584,-0.8676,-0.8669,-0.8543,-0.8506,-0.8494,-0.8323,-0.8265,-0.8204,-0.8102,-0.8002,-0.8005,-0.8056,-0.8204,-0.8231,-0.817,-0.8225,-0.8187,-0.8102,-0.7998,-0.8478,-0.9604,-0.985,-1.0632,-1.1604,-1.2861,-1.3926,-1.4507,-1.5051,-1.5683,-1.5825,-1.5825,-1.5825,-1.5825,-1.5825,-1.5825,-1.5825,-1.5825,-1.5872,-1.5879,-1.5879,-1.5927,-1.5927,-1.592,-1.5872,-1.5825,-1.5825,-1.5825,-1.5825,-1.6021,-1.6305,-1.6588,-1.6878,-1.7059,-1.7286,-1.7621,-1.7955,0.0,0.0,0.0,0.0,0.0,0.0,0.0,0.0,0.0,0.0,0.0,0.0,0.0,0.0,0.0,-0.0952,0.0,0.0,-0.0728,-0.056,-0.0224,0.0,0.0,-0.3361,-0.4847,-0.5775,-0.8056,-0.9176,-0.8994,-0.7665,-0.6339,-0.5096,-0.36,-0.2158,-0.132,0.0,0.0,0.0,0.0,0.0,0.0,0.0,-0.0636,-0.2029,-0.3259,-0.4787,-0.6197,-0.6981,-0.7718,-0.8472,-0.8733,-0.8676,-0.8645,-0.856,-0.8564,-0.8645,-0.8689,-0.8747,-0.8818,-0.8842,-0.8825,-0.8686,-0.8655,-0.8598,-0.8448,-0.834,-0.8275,-0.8197,-0.8119,-0.8073,-0.8214,-0.835,-0.8387,-0.836,-0.8361,-0.8316,-0.8208,-0.8109,-0.8194,-0.8581,-0.9365,-1.0096,-1.0485,-1.2517,-1.3488,-1.3974,-1.4752,-1.5629,-1.5825,-1.5825,-1.5825,-1.5825,-1.5825,-1.5825,-1.5825,-1.5825,-1.5825,-1.5825,-1.5825,-1.5825,-1.5825,-1.5825,-1.5825,-1.5825,-1.5825,-1.5825,-1.5825,-1.6163,-1.6447,-1.6683,-1.6911,-1.7099,-1.7333,-1.7667,-1.7861,0.0,0.0,0.0,0.0,0.0,0.0,0.0,0.0,0.0,0.0,0.0,0.0,0.0,0.0,0.0,0.0,0.0,0.0,0.0,0.0,0.0,0.0,0.0,-0.2398,-0.4061,-0.5049,-0.7334,-0.8486,-0.8076,-0.6815,-0.5159,-0.3644,-0.2006,-0.0975,0.0,0.0,0.0,0.0,0.0,0.0,0.0,0.0,-0.0236,-0.1539,-0.3298,-0.5002,-0.5551,-0.7255,-0.8102,-0.8749,-0.8923,-0.8879,-0.8821,-0.8743,-0.8747,-0.8743,-0.8818,-0.8845,-0.8865,-0.8933,-0.8899,-0.8821,-0.8763,-0.8726,-0.8628,-0.8513,-0.8442,-0.8374,-0.8309,-0.8292,-0.8367,-0.8503,-0.8557,-0.8482,-0.847,-0.8398,-0.8262,-0.8133,-0.7988,-0.8088,-0.8627,-0.8924,-0.9846,-1.1692,-1.2668,-1.2958,-1.4949,-1.5825,-1.5825,-1.5825,-1.5825,-1.5825,-1.5825,-1.5825,-1.5825,-1.5825,-1.5825,-1.5825,-1.5825,-1.5825,-1.5825,-1.5825,-1.5825,-1.5825,-1.5825,-1.5825,-1.5872,-1.6258,-1.6494,-1.6636,-1.6817,-1.7099,-1.7333,-1.7527,-1.7667,0.0,0.0,0.0,0.0,0.0,0.0,0.0,0.0,0.0,0.0,0.0,0.0,0.0,0.0,0.0,0.0,0.0,0.0,0.0,0.0,0.0,0.0,0.0,-0.1813,-0.3245,-0.4672,-0.6209,-0.6911,-0.6551,-0.5403,-0.3985,-0.246,-0.0863,0.0,0.0,0.0,0.0,0.0,0.0,0.0,0.0,0.0,0.0,-0.1266,-0.275,-0.4591,-0.558,-0.7281,-0.877,-0.8972,-0.9123,-0.9096,-0.9011,-0.8971,-0.895,-0.8888,-0.8916,-0.8923,-0.8875,-0.8937,-0.8933,-0.8937,-0.8878,-0.8824,-0.8774,-0.8696,-0.8618,-0.856,-0.8499,-0.8499,-0.8526,-0.8655,-0.8655,-0.856,-0.8506,-0.8467,-0.8333,-0.8136,-0.8002,-0.8038,-0.8184,-0.8382,-0.9114,-1.0525,-1.1258,-1.2285,-1.437,-1.5825,-1.5825,-1.5825,-1.5825,-1.5825,-1.5825,-1.5825,-1.5825,-1.5825,-1.5825,-1.5825,-1.5825,-1.5825,-1.5825,-1.5825,-1.5825,-1.5825,-1.5825,-1.5825,-1.5879,-1.6116,-1.6353,-1.6541,-1.673,-1.6918,-1.7153,-1.7387,-1.7434,0.0,0.0,0.0,0.0,0.0,0.0,0.0,0.0,0.0,0.0,0.0,0.0,0.0,0.0,0.0,0.0,0.0,0.0,0.0,0.0,0.0,0.0,0.0,-0.1398,-0.253,-0.3205,-0.4357,-0.5096,-0.4914,-0.3752,-0.2893,-0.2155,-0.0802,0.0,0.0,0.0,0.0,0.0,0.0,0.0,0.0,0.0,-0.091,-0.1956,-0.3223,-0.4457,-0.6197,-0.713,-0.7978,-0.9154,-0.9334,-0.9256,-0.9161,-0.9123,-0.9076,-0.8984,-0.896,-0.8971,-0.8929,-0.8908,-0.8892,-0.8937,-0.8967,-0.8954,-0.8886,-0.8747,-0.874,-0.8696,-0.8672,-0.8672,-0.8679,-0.8794,-0.8804,-0.8696,-0.8547,-0.8435,-0.8296,-0.815,-0.7995,-0.7988,-0.7988,-0.8088,-0.892,-0.9944,-1.1263,-1.2576,-1.4316,-1.5534,-1.5825,-1.5825,-1.5825,-1.5825,-1.5825,-1.5825,-1.5825,-1.5825,-1.5825,-1.5825,-1.5825,-1.5825,-1.5825,-1.5825,-1.5825,-1.5825,-1.5825,-1.5825,-1.5927,-1.6028,-1.617,-1.6353,-1.6494,-1.669,-1.6871,-1.7012,-1.7012,0.0,0.0,0.0,0.0,0.0,0.0,0.0,0.0,0.0,0.0,0.0,0.0,0.0,0.0,0.0,0.0,0.0,0.0,0.0,0.0,0.0,0.0,0.0,0.0,-0.1121,-0.1375,-0.201,-0.2954,-0.3506,-0.2954,-0.2033,-0.111,0.0,0.0,0.0,0.0,0.0,0.0,0.0,0.0,0.0,-0.0731,-0.2143,-0.3435,-0.4542,-0.5786,-0.6743,-0.8102,-0.8694,-0.9247,-0.9456,-0.9401,-0.934,-0.9317,-0.9283,-0.9106,-0.9055,-0.9089,-0.9147,-0.9167,-0.9178,-0.9171,-0.9161,-0.9123,-0.9062,-0.8988,-0.8893,-0.8842,-0.8828,-0.8828,-0.8828,-0.8899,-0.8834,-0.8811,-0.8632,-0.8472,-0.835,-0.817,-0.8035,-0.7995,-0.7988,-0.8134,-0.8428,-0.9747,-1.1361,-1.2915,-1.4316,-1.5092,-1.5629,-1.5825,-1.5778,-1.5825,-1.5825,-1.5825,-1.5825,-1.5825,-1.5825,-1.5825,-1.5825,-1.5825,-1.5825,-1.5825,-1.5825,-1.5825,-1.5825,-1.5825,-1.5825,-1.5927,-1.6028,-1.617,-1.6265,-1.6407,-1.6541,-1.6636,-1.6636,0.0673,0.0414,0.0373,0.0268,0.0,0.0,0.0,0.0,0.0,0.0,0.0,0.0,0.0,0.0,0.0,0.0,0.0,0.0,0.0,0.0,0.0,0.0,0.0,0.0,0.0,0.0,0.0,0.0,-0.1726,-0.1848,-0.1171,0.0,0.0,0.0,0.0,0.0,0.0,0.0,0.0,0.0,-0.0802,-0.2094,-0.3751,-0.5223,-0.675,-0.7309,-0.7877,-0.8806,-0.9288,-0.9471,-0.9551,-0.9581,-0.9479,-0.9544,-0.949,-0.9347,-0.9279,-0.933,-0.9327,-0.9361,-0.9334,-0.9327,-0.9364,-0.9347,-0.9231,-0.9076,-0.9032,-0.8964,-0.893,-0.8868,-0.8913,-0.8933,-0.8858,-0.878,-0.8669,-0.8496,-0.8384,-0.8241,-0.8059,-0.8019,-0.7998,-0.8141,-0.8343,-0.9262,-1.0877,-1.1848,-1.3253,-1.4459,-1.5045,-1.5676,-1.5778,-1.5825,-1.5825,-1.5825,-1.5825,-1.5825,-1.5825,-1.5825,-1.5825,-1.5825,-1.5825,-1.5825,-1.5838,-1.5865,-1.5825,-1.5825,-1.5825,-1.5838,-1.5927,-1.6028,-1.6076,-1.6123,-1.6211,-1.6305,-1.6353,0.2815,0.1769,0.1777,0.1077,0.0,0.0,0.0,0.0,0.0,0.0,0.0,0.0,0.0,0.0,0.0,0.0,0.0,0.0,0.0,0.0,0.0,0.0,0.0,0.0,0.0,0.0,0.0,0.0,0.0,0.0,0.0,0.0,0.0,0.0,0.0,0.0,0.0,0.0,0.0,0.0,-0.2339,-0.3873,-0.5404,-0.675,-0.7477,-0.8049,-0.8878,-0.953,-0.9643,-0.9618,-0.9713,-0.9717,-0.9618,-0.9591,-0.9602,-0.9523,-0.9445,-0.9361,-0.9408,-0.9432,-0.9435,-0.9442,-0.9422,-0.931,-0.9255,-0.9052,-0.8974,-0.895,-0.8937,-0.8937,-0.8937,-0.8937,-0.8872,-0.8804,-0.8716,-0.8533,-0.8394,-0.836,-0.8221,-0.814,-0.8136,-0.8092,-0.8168,-0.9232,-1.0293,-1.1165,-1.2134,-1.3349,-1.4364,-1.4895,-1.573,-1.5778,-1.5825,-1.5825,-1.5892,-1.5879,-1.5932,-1.5899,-1.5952,-1.5952,-1.5992,-1.6032,-1.5919,-1.5925,-1.5899,-1.5932,-1.6005,-1.5992,-1.5885,-1.5879,-1.5927,-1.5927,-1.5872,-1.5927,-1.6069,0.5056,0.3168,0.3151,0.2821,0.2226,0.1465,0.1162,0.0959,0.0,0.0,0.0,0.0,0.0,0.0,0.0,0.0,0.0,0.0,0.0,0.0,0.0,0.0,0.0,0.0,0.0,0.0,0.0,0.0,0.0,0.0,0.0,0.0,0.0,0.0,0.0,0.0,0.0,0.0,0.0,0.0,-0.4729,-0.6014,-0.7057,-0.8653,-0.8711,-0.9102,-0.9509,-0.9774,-0.9798,-0.9741,-0.9805,-0.9798,-0.9747,-0.973,-0.973,-0.9724,-0.9673,-0.9635,-0.9639,-0.9622,-0.9612,-0.9622,-0.9602,-0.9537,-0.9313,-0.9083,-0.8944,-0.8937,-0.8937,-0.8937,-0.8937,-0.8937,-0.8851,-0.8794,-0.8771,-0.8669,-0.8526,-0.8438,-0.8364,-0.8289,-0.8221,-0.8191,-0.8251,-0.9107,-0.9826,-1.0327,-1.1301,-1.2365,-1.3221,-1.3878,-1.4806,-1.5784,-1.5784,-1.5825,-1.5919,-1.5979,-1.6119,-1.6166,-1.6359,-1.6346,-1.6326,-1.6293,-1.6186,-1.6159,-1.6206,-1.6233,-1.6246,-1.6079,-1.5912,-1.5858,-1.5825,-1.5825,-1.5825,-1.5825,-1.5927,0.683,0.4977,0.4638,0.4305,0.3901,0.2916,0.2252,0.1836,0.095,0.0,0.0,0.0,0.0,0.0,0.0,0.0,0.0,0.0,0.0,0.0,0.0,0.0,0.0,0.0,0.0,0.0,0.0,0.0,0.0,0.0,0.0,0.0,0.0,0.0,0.0,0.0,0.0,0.0,-0.234,-0.4424,-0.6686,-0.7667,-0.859,-0.939,-0.9819,-0.9805,-0.9778,-0.9812,-0.9819,-0.9754,-0.9802,-0.9812,-0.9802,-0.9798,-0.9802,-0.9798,-0.9774,-0.9781,-0.9778,-0.9781,-0.9819,-0.9808,-0.9768,-0.9622,-0.9456,-0.9174,-0.8994,-0.9011,-0.8895,-0.8892,-0.8937,-0.8937,-0.8871,-0.8838,-0.8787,-0.8723,-0.871,-0.8608,-0.8499,-0.8401,-0.8347,-0.8336,-0.8542,-0.912,-0.9511,-0.9697,-1.0457,-1.1437,-1.2271,-1.3008,-1.3979,-1.5127,-1.5794,-1.5896,-1.6052,-1.6152,-1.6279,-1.6433,-1.662,-1.6673,-1.66,-1.654,-1.646,-1.6466,-1.6513,-1.6493,-1.648,-1.6199,-1.5945,-1.5965,-1.5965,-1.5858,-1.5825,-1.5825,-1.5825,0.7889,0.7637,0.6339,0.5188,0.4128,0.3927,0.3181,0.2191,0.191,0.1031,0.0,0.0,0.0,0.0,0.0,0.0,0.0,0.0,0.0,0.0,0.0,0.0,0.0,0.0,0.0,0.0,0.0,0.0,0.0,0.0,0.0,0.0,0.0,0.0,0.0,0.0,0.0,-0.2155,-0.369,-0.5404,-0.7423,-0.8647,-0.9572,-0.9636,-0.9812,-0.9764,-0.9649,-0.9754,-0.9785,-0.969,-0.9768,-0.9819,-0.9819,-0.9819,-0.9819,-0.9819,-0.9819,-0.9819,-0.9819,-0.9819,-0.9819,-0.9785,-0.9717,-0.9635,-0.9547,-0.9303,-0.9221,-0.9113,-0.9028,-0.8974,-0.8957,-0.8944,-0.8977,-0.9001,-0.8977,-0.8899,-0.8835,-0.8754,-0.8645,-0.8526,-0.8479,-0.8472,-0.8438,-0.888,-0.8966,-0.9114,-0.9552,-1.0503,-1.1699,-1.2532,-1.3389,-1.4412,-1.5528,-1.5976,-1.6259,-1.6442,-1.6656,-1.672,-1.6854,-1.6854,-1.6794,-1.674,-1.672,-1.6767,-1.68,-1.676,-1.6707,-1.6533,-1.6366,-1.6213,-1.6099,-1.5979,-1.5865,-1.5825,-1.5825,0.7988,0.7939,0.7434,0.693,0.6376,0.5575,0.445,0.322,0.2372,0.1239,0.0,0.0,0.0,0.0,0.0,0.0,0.0,0.0,0.0,0.0,0.0,0.0,0.0,0.0,0.0,0.0,0.0,0.0,0.0,0.0,0.0,0.0,0.0,0.0,0.0,0.0,0.0,-0.3322,-0.4671,-0.6077,-0.859,-0.9265,-0.9819,-0.9819,-0.9819,-0.9802,-0.9761,-0.9791,-0.9778,-0.9768,-0.9734,-0.9812,-0.9819,-0.9819,-0.9819,-0.9819,-0.9819,-0.9819,-0.9819,-0.9819,-0.9819,-0.9795,-0.97,-0.9612,-0.9608,-0.9408,-0.9309,-0.9231,-0.9169,-0.9072,-0.9072,-0.9079,-0.9103,-0.915,-0.9127,-0.9042,-0.8984,-0.8916,-0.8845,-0.875,-0.8669,-0.8625,-0.8577,-0.8576,-0.8567,-0.856,-0.9017,-0.957,-1.0745,-1.179,-1.2535,-1.3623,-1.4737,-1.571,-1.6032,-1.6473,-1.6954,-1.7085,-1.7094,-1.7101,-1.7081,-1.7014,-1.7058,-1.7061,-1.7101,-1.7088,-1.7034,-1.6941,-1.6797,-1.6529,-1.6259,-1.6072,-1.5965,-1.5858,-1.5825,0.7988,0.7988,0.7988,0.7988,0.7889,0.6983,0.5816,0.46,0.3687,0.2155,0.0618,0.0573,0.0572,0.062,0.0,0.0,0.0,0.0,0.0,0.0,0.0,0.0,0.0,0.0,0.0,0.0,0.0,0.0,0.0,0.0,0.0,0.0,0.0,0.0,0.0,0.0,0.0,-0.3506,-0.4426,-0.5833,-0.8526,-0.9019,-0.9511,-0.9576,-0.9819,-0.9819,-0.9805,-0.9815,-0.9815,-0.9808,-0.9819,-0.9819,-0.9819,-0.9819,-0.9819,-0.9819,-0.9819,-0.9819,-0.9819,-0.9819,-0.9819,-0.9805,-0.9751,-0.9666,-0.9591,-0.9507,-0.9398,-0.9313,-0.9282,-0.9332,-0.9389,-0.9228,-0.9299,-0.9286,-0.9266,-0.9198,-0.9184,-0.9137,-0.9066,-0.8984,-0.891,-0.8842,-0.876,-0.8713,-0.8638,-0.8608,-0.8855,-0.9186,-0.9643,-1.0598,-1.1405,-1.2598,-1.3948,-1.4897,-1.5745,-1.6547,-1.7268,-1.734,-1.7355,-1.7435,-1.7415,-1.7387,-1.7347,-1.7387,-1.7375,-1.7408,-1.7355,-1.7248,-1.7032,-1.6723,-1.6482,-1.6179,-1.6072,-1.5972,-1.5852,0.7988,0.7988,0.7988,0.7988,0.7988,0.7988,0.7095,0.5768,0.5466,0.4098,0.2077,0.198,0.1942,0.1955,0.1976,0.1837,0.1437,0.0651,0.0,0.0,0.0,0.0,0.0,0.0,0.0,0.0,0.0,0.0,0.0,0.0,0.0,0.0,0.0,0.0,0.0,0.0,0.0,-0.2341,-0.2709,-0.474,-0.7013,-0.7877,-0.8561,-0.9551,-0.9859,-0.9866,-0.9822,-0.9822,-0.9819,-0.9819,-0.9819,-0.9819,-0.9819,-0.9819,-0.9819,-0.9819,-0.9819,-0.9819,-0.9819,-0.9819,-0.9819,-0.9819,-0.9774,-0.9861,-0.9709,-0.971,-1.006,-1.0485,-1.0174,-0.9946,-0.9661,-0.9552,-0.974,-0.9713,-0.9757,-0.9374,-0.9361,-0.93,-0.9211,-0.9164,-0.914,-0.9096,-0.8994,-0.8851,-0.877,-0.8811,-0.8869,-0.8992,-0.9205,-0.9632,-1.0473,-1.1736,-1.3195,-1.4453,-1.5539,-1.6814,-1.7562,-1.7575,-1.7642,-1.7749,-1.7722,-1.7615,-1.7602,-1.7615,-1.7608,-1.7502,-1.7535,-1.7555,-1.7326,-1.7032,-1.6553,-1.6299,-1.6192,-1.6139,-1.6092,0.7988,0.7988,0.7988,0.7988,0.7988,0.7988,0.7231,0.5994,0.5068,0.4138,0.3484,0.3325,0.3356,0.3314,0.3236,0.2903,0.1993,0.1783,0.1093,0.0,0.0,0.0,0.0,0.0,0.0,0.0,0.0,0.0,0.0,0.0,0.0,0.0,0.0,0.0,0.0,0.0,0.0,-0.2227,-0.2794,-0.4057,-0.7039,-0.7534,-0.822,-0.9779,-0.9961,-0.9917,-0.9839,-0.9836,-0.9832,-0.9849,-0.9856,-0.9839,-0.9839,-0.9842,-0.9836,-0.9829,-0.9822,-0.9819,-0.9819,-0.9819,-0.9819,-0.9819,-0.9933,-1.0393,-1.1059,-1.1295,-1.1786,-1.2305,-1.2248,-1.236,-1.2767,-1.167,-1.1356,-1.1051,-1.0747,-0.9849,-0.9507,-0.9408,-0.9327,-0.9313,-0.9296,-0.9275,-0.913,-0.9052,-0.8974,-0.8933,-0.8974,-0.9047,-0.9224,-0.9214,-0.9721,-1.1042,-1.2462,-1.3885,-1.5305,-1.687,-1.7842,-1.8029,-1.807,-1.8136,-1.8063,-1.7916,-1.7802,-1.7762,-1.7669,-1.7589,-1.7589,-1.7582,-1.7549,-1.7301,-1.6901,-1.6607,-1.6526,-1.6513,-1.6506,0.7988,0.7988,0.7988,0.7988,0.7988,0.7988,0.7441,0.6503,0.5332,0.4703,0.4708,0.47,0.4675,0.47,0.4573,0.3962,0.2747,0.2132,0.0,0.0,0.0,0.0,0.0,0.0,0.0,0.0,0.0,0.0,0.0,0.0,0.0,0.0,0.0,0.0,0.0,0.0,-0.0438,-0.1307,-0.1689,-0.3096,-0.5541,-0.692,-0.7754,-0.9302,-0.9967,-0.994,-0.9914,-0.9873,-0.9873,-0.992,-0.9934,-0.9845,-0.9845,-0.9944,-0.9941,-0.9862,-0.9839,-0.9842,-0.991,-0.9832,-0.9829,-0.9819,-1.024,-1.1106,-1.2162,-1.2563,-1.3258,-1.3937,-1.4521,-1.4542,-1.4308,-1.3135,-1.2763,-1.2461,-1.1539,-1.0621,-0.9768,-0.9672,-0.9503,-0.9486,-0.9435,-0.9351,-0.932,-0.9188,-0.9117,-0.9086,-0.9066,-0.9293,-0.9532,-0.9699,-1.0082,-1.1505,-1.2925,-1.4587,-1.5964,-1.7188,-1.7996,-1.8402,-1.8477,-1.8464,-1.835,-1.819,-1.805,-1.7929,-1.7883,-1.7802,-1.7635,-1.7582,-1.7609,-1.7535,-1.7288,-1.7054,-1.6894,-1.6827,-1.6794,0.7985,0.7988,0.7988,0.7988,0.7988,0.7988,0.7945,0.7842,0.6592,0.6042,0.6034,0.6044,0.6087,0.6032,0.6037,0.5183,0.3877,0.2692,0.1399,0.0,0.0,0.0,0.0,0.0,0.0,0.0,0.0,0.0,0.0,0.0,0.0,0.0,0.0,0.0,0.0,0.0,0.0,0.0,0.0,0.0,-0.5006,-0.555,-0.7321,-0.9001,-1.0093,-1.0004,-0.9933,-0.9872,-1.0025,-1.0093,-1.0131,-1.0017,-1.0038,-1.0198,-1.0092,-1.0041,-0.9997,-0.999,-0.9943,-0.9903,-0.9869,-1.0049,-1.1209,-1.1821,-1.2616,-1.3625,-1.4483,-1.5216,-1.5742,-1.5408,-1.4983,-1.4559,-1.4198,-1.3398,-1.244,-1.1403,-1.0389,-0.9985,-0.976,-0.9656,-0.9595,-0.9513,-0.9412,-0.9334,-0.9256,-0.9222,-0.9475,-1.0393,-1.0695,-1.0923,-1.1544,-1.2942,-1.433,-1.5679,-1.6851,-1.7661,-1.8312,-1.8784,-1.8724,-1.8691,-1.8577,-1.8484,-1.837,-1.8257,-1.8102,-1.8002,-1.7949,-1.7829,-1.7736,-1.7642,-1.7675,-1.7442,-1.7268,-1.7041,-1.6967,0.7891,0.7985,0.7988,0.7988,0.7988,0.7988,0.7988,0.7889,0.7537,0.7434,0.7437,0.7434,0.7285,0.7434,0.7388,0.5944,0.46,0.3369,0.1879,0.0,0.0,0.0,0.0,0.0,0.0,0.0,0.0,0.0,0.0,0.0,0.0,0.0,0.0,0.0,0.0,0.0,0.0,0.0,0.0,0.0,-0.4419,-0.5419,-0.7454,-0.9269,-1.0175,-1.0137,-0.998,-0.993,-1.0083,-1.0205,-1.0232,-1.0212,-1.0222,-1.0256,-1.0236,-1.0229,-1.0202,-1.0171,-1.0007,-0.9947,-0.9981,-1.0197,-1.1282,-1.2753,-1.3594,-1.4425,-1.5515,-1.6077,-1.7014,-1.7073,-1.6738,-1.6321,-1.5843,-1.5069,-1.382,-1.2213,-1.114,-1.0226,-1.0006,-0.9747,-0.969,-0.9635,-0.9537,-0.9462,-0.9391,-0.9354,-0.9842,-1.0898,-1.1837,-1.2073,-1.3149,-1.4577,-1.5586,-1.6883,-1.7246,-1.7912,-1.8584,-1.9065,-1.8998,-1.8931,-1.8851,-1.8764,-1.8684,-1.8571,-1.8437,-1.8364,-1.831,-1.8183,-1.8036,-1.8176,-1.8196,-1.7903,-1.7635,-1.7455,-1.7335,0.785,0.7982,0.7988,0.7988,0.7988,0.7988,0.7988,0.7988,0.7988,0.7988,0.7988,0.7939,0.7988,0.7839,0.7244,0.5956,0.4075,0.3116,0.0,0.0,0.0,0.0,0.0,0.0,0.0,0.0,0.0,0.0,0.0,0.0,0.0,0.0,0.0,0.0,0.0,0.0,0.0,0.0,0.0,-0.2752,-0.4386,-0.5956,-0.7999,-0.964,-1.0239,-1.0137,-0.9997,-0.9957,-1.0076,-1.0239,-1.034,-1.0343,-1.0297,-1.0321,-1.0422,-1.0422,-1.0385,-1.0341,-1.0259,-1.0178,-1.0151,-1.0284,-1.0914,-1.1935,-1.3611,-1.4779,-1.5693,-1.6545,-1.804,-1.9062,-1.8583,-1.8046,-1.7507,-1.6968,-1.5009,-1.3053,-1.1796,-1.066,-1.0172,-0.9862,-0.9768,-0.972,-0.9652,-0.9581,-0.9534,-0.9513,-1.0098,-1.1269,-1.2436,-1.3255,-1.4744,-1.6476,-1.7118,-1.7906,-1.8135,-1.8288,-1.8787,-1.9232,-1.9296,-1.9172,-1.9112,-1.9052,-1.8971,-1.8838,-1.8684,-1.8617,-1.8551,-1.8477,-1.8397,-1.8531,-1.8564,-1.831,-1.811,-1.8029,-1.7943,0.7858,0.7948,0.8014,0.7958,0.7971,0.7978,0.7988,0.7988,0.7988,0.7988,0.7988,0.7839,0.7686,0.7338,0.6384,0.5114,0.3603,0.2647,0.0,0.0,0.0,0.0,0.0,0.0,0.0,0.0,0.0,0.0,0.0,0.0,0.0,0.0,0.0,0.0,0.0,0.0,0.0,0.0,-0.2058,-0.3692,-0.5179,-0.6794,-0.84,-0.9843,-1.0148,-0.9987,-0.9957,-0.9926,-0.9971,-1.0171,-1.0343,-1.0343,-1.0348,-1.0443,-1.0575,-1.0612,-1.0558,-1.0487,-1.0415,-1.0337,-1.0304,-1.0243,-1.021,-1.0999,-1.2454,-1.4041,-1.4976,-1.5736,-1.6979,-1.7337,-1.6915,-1.6979,-1.6738,-1.5961,-1.448,-1.3053,-1.2097,-1.0899,-0.9997,-0.9812,-0.9802,-0.9764,-0.9761,-0.969,-0.9666,-0.9663,-1.0021,-1.1228,-1.2908,-1.4121,-1.5866,-1.7849,-1.8275,-1.8621,-1.8853,-1.9008,-1.9176,-1.941,-1.9185,-1.9352,-1.9188,-1.9239,-1.9252,-1.9105,-1.8958,-1.8838,-1.8758,-1.8744,-1.8751,-1.8738,-1.8738,-1.8637,-1.8551,-1.8524,-1.8384,0.7567,0.7716,0.7821,0.7865,0.7833,0.7941,0.7985,0.7988,0.7988,0.7935,0.7786,0.6983,0.6531,0.6431,0.5122,0.3773,0.2701,0.2005,0.1175,0.0,0.0,0.0,0.0,0.0,0.0,0.0,0.0,0.0,0.0,0.0,0.0,0.0,0.0,0.0,0.0,0.0,0.0,-0.15,-0.3179,-0.4306,-0.5401,-0.6866,-0.8375,-0.9576,-1.0049,-1.0032,-0.9953,-0.996,-1.0097,-1.0246,-1.0337,-1.0334,-1.0436,-1.0578,-1.0666,-1.07,-1.067,-1.0602,-1.0531,-1.0473,-1.0453,-1.0358,-1.0263,-1.0388,-1.1145,-1.2587,-1.3665,-1.4436,-1.5138,-1.5375,-1.551,-1.5693,-1.5811,-1.4917,-1.3899,-1.3062,-1.2165,-1.108,-0.9879,-0.9819,-0.9819,-0.9825,-0.9825,-0.9876,-0.9802,-0.9791,-0.9785,-1.0804,-1.3241,-1.4857,-1.647,-1.8191,-1.8886,-1.9261,-1.9424,-1.9062,-1.8881,-1.8467,-1.8104,-1.8525,-1.9082,-1.9037,-1.8868,-1.9229,-1.9296,-1.9105,-1.9122,-1.9229,-1.9216,-1.9102,-1.9011,-1.8958,-1.9011,-1.9075,-1.8791,0.7461,0.7611,0.7753,0.7773,0.775,0.7875,0.7592,0.7193,0.7641,0.7226,0.6371,0.6029,0.5979,0.5577,0.4019,0.2841,0.1859,0.1307,0.0688,0.0,0.0,0.0,0.0,0.0,0.0,0.0,0.0,0.0,0.0,0.0,0.0,0.0,0.0,0.0,0.0,0.0,-0.0772,-0.2298,-0.407,-0.5084,-0.588,-0.7565,-0.8818,-0.9895,-0.9995,-0.9968,-0.9951,-0.9886,-0.9992,-1.0083,-1.0117,-1.0304,-1.0426,-1.0548,-1.0639,-1.0694,-1.0704,-1.068,-1.0612,-1.0582,-1.0582,-1.0493,-1.0395,-1.0469,-1.0359,-1.1607,-1.152,-1.2405,-1.4386,-1.4901,-1.4385,-1.4364,-1.5022,-1.4716,-1.3439,-1.2344,-1.1376,-1.0361,-0.9822,-0.9819,-0.9839,-0.9876,-1.011,-1.0929,-1.0989,-1.148,-1.1233,-1.2359,-1.4456,-1.5585,-1.7233,-1.8521,-1.922,-1.9412,-1.9366,-1.8765,-1.804,-1.7566,-1.702,-1.7256,-1.7677,-1.8115,-1.841,-1.8946,-1.9304,-1.939,-1.9397,-1.9464,-1.9437,-1.9303,-1.9323,-1.9363,-1.943,-1.9437,-1.9223,0.7402,0.7526,0.7682,0.7685,0.7553,0.7528,0.6906,0.6128,0.681,0.6095,0.444,0.5047,0.5458,0.462,0.307,0.2241,0.1441,0.0727,0.0158,0.0,0.0,0.0,0.0,0.0,0.0,0.0,0.0,0.0,0.0,0.0,0.0,0.0,0.0,0.0,0.0,0.0,-0.0876,-0.2672,-0.4265,-0.5693,-0.7179,-0.8772,-0.9475,-0.9795,-0.9869,-0.9738,-0.9795,-0.9815,-0.9815,-0.9893,-0.9998,-1.0168,-1.0344,-1.0466,-1.0568,-1.0636,-1.0707,-1.0704,-1.0697,-1.0687,-1.0697,-1.0663,-1.0565,-1.0449,-1.0398,-1.0352,-1.0346,-1.1225,-1.324,-1.3694,-1.3166,-1.2979,-1.3643,-1.3953,-1.2598,-1.162,-1.068,-0.9829,-0.9829,-0.9832,-0.9886,-0.993,-1.0808,-1.1687,-1.2317,-1.2878,-1.3873,-1.5345,-1.6439,-1.678,-1.7637,-1.8784,-1.9595,-1.9646,-1.9174,-1.8387,-1.7457,-1.6274,-1.5735,-1.5937,-1.6331,-1.7121,-1.8009,-1.8907,-1.9187,-1.9495,-1.9512,-1.9512,-1.9524,-1.9484,-1.9424,-1.943,-1.9464,-1.947,-1.9412,0.6919,0.7078,0.7339,0.7484,0.7339,0.657,0.6008,0.5673,0.5011,0.4342,0.3775,0.2905,0.2772,0.2716,0.121,0.0,0.0,0.0,0.0,0.0,0.0,0.0,0.0,0.0,0.0,0.0,0.0,0.0,0.0,0.0,0.0,0.0,0.0,0.0,0.0,-0.0457,-0.1442,-0.328,-0.4756,-0.6089,-0.813,-0.9202,-0.9332,-0.9527,-0.9602,-0.9625,-0.9676,-0.9764,-0.9802,-0.9866,-0.9951,-1.0066,-1.0195,-1.0348,-1.0463,-1.0568,-1.0643,-1.0697,-1.0707,-1.0717,-1.0717,-1.0707,-1.0599,-1.0637,-1.067,-1.0732,-1.0749,-1.0929,-1.2077,-1.1761,-1.1332,-1.1149,-1.1514,-1.1549,-1.0753,-1.0533,-0.9985,-0.9852,-0.9856,-0.9914,-0.993,-1.0633,-1.174,-1.2644,-1.3495,-1.4128,-1.4942,-1.6381,-1.7612,-1.7937,-1.8257,-1.9066,-2.0007,-1.9035,-1.821,-1.7715,-1.684,-1.5516,-1.4482,-1.4526,-1.512,-1.6463,-1.7471,-1.8885,-1.9572,-1.9907,-1.986,-1.972,-1.9626,-1.9579,-1.9484,-1.9437,-1.9504,-1.9539,-1.9619]},{"header":{"parameterUnit":"m.s-1","parameterCategory":1,"la1":31.0,"la2":29.5877,"lo1":-88.7671,"lo2":-86.6584,"dy":0.0162,"dx":0.0185,"nx":115,"ny":88,"refTime":"2023-10-27T06:00:00:Z","depth":0,"parameterNumber":3,"parameterNumberName":"V-component_of_WINDS"},"data":[0.0,0.0,0.0,0.0,0.0,0.0,0.0,0.0,0.0,0.0,0.0,0.0,0.0,0.0,0.0,0.0,0.0,0.0,0.0,0.0,0.0,0.0,0.0,0.0,0.0,0.0,0.0,0.0,0.0,0.0,0.0,0.0,0.0,0.0,0.0,0.0,0.0,0.0,0.0,0.0,0.0,0.0,0.0,0.0,0.0,0.0,0.0,0.0,0.0,0.0,0.0,0.0,0.0,0.0,0.0,0.0,0.0,0.0,0.0,0.0,0.0,0.0,0.0,0.0,0.0,0.0,0.0,0.0,0.0,0.0,0.0,0.0,0.0,0.0,0.0,0.0,0.0,0.0,0.0,0.0,0.0,0.0,0.0,0.0,0.0,0.0,0.0,0.0,0.0,0.0,0.0,0.0,0.0,0.0,0.0,0.0,0.0,0.0,0.0,0.0,0.0,0.0,0.0,0.0,0.0,0.0,0.0,0.0,0.0,0.0,0.0,0.0,0.0,0.0,0.0,0.0,0.0,0.0,0.0,0.0,0.0,0.0,0.0,0.0,0.0,0.0,0.0,0.0,0.0,0.0,0.0,0.0,0.0,0.0,0.0,0.0,0.0,0.0,0.0,0.0,0.0,0.0,0.0,0.0,0.0,0.0,0.0,0.0,0.0,0.0,0.0,0.0,0.0,0.0,0.0,0.0,0.0,0.0,0.0,0.0,0.0,0.0,0.0,0.0,0.0,0.0,0.0,0.0,0.0,0.0,0.0,0.0,0.0,0.0,0.0,0.0,0.0,0.0,0.0,0.0,0.0,0.0,0.0,0.0,0.0,0.0,0.0,0.0,0.0,0.0,0.0,0.0,0.0,0.0,0.0,0.0,0.0,0.0,0.0,0.0,0.0,0.0,0.0,0.0,0.0,0.0,0.0,0.0,0.0,0.0,0.0,0.0,0.0,0.0,0.0,0.0,0.0,0.0,0.0,0.0,0.0,0.0,0.0,0.0,0.0,0.0,0.0,0.0,0.0,0.0,0.0,0.0,0.0,0.0,0.0,0.0,0.0,0.0,0.0,0.0,0.0,0.0,0.0,0.0,0.0,0.0,0.0,0.0,0.0,0.0,0.0,0.0,0.0,0.0,0.0,0.0,0.0,0.0,0.0,0.0,0.0,0.0,0.0,0.0,0.0,0.0,0.0,0.0,0.0,0.0,0.0,0.0,0.0,0.0,0.0,0.0,0.0,0.0,0.0,0.0,0.0,0.0,0.0,0.0,0.0,0.0,0.0,0.0,0.0,0.0,0.0,0.0,0.0,0.0,0.0,0.0,0.0,0.0,0.0,0.0,0.0,0.0,0.0,0.0,0.0,0.0,0.0,0.0,0.0,0.0,0.0,0.0,0.0,0.0,0.0,0.0,0.0,0.0,0.0,0.0,0.0,0.0,0.0,0.0,0.0,0.0,0.0,0.0,0.0,0.0,0.0,0.0,0.0,0.0,0.0,0.0,0.0,0.0,0.0,0.0,0.0,0.0,0.0,0.0,0.0,0.0,0.0,0.0,0.0,0.0,0.0,0.0,0.0,0.0,0.0,0.0,0.0,0.0,0.0,0.0,0.0,0.0,0.0,0.0,0.0,0.0,0.0,0.0,0.0,0.0,0.0,0.0,0.0,0.0,0.0,0.0,0.0,0.0,0.0,0.0,0.0,0.0,0.0,0.0,0.0,0.0,0.0,0.0,0.0,0.0,0.0,0.0,0.0,0.0,0.0,0.0,0.0,0.0,0.0,0.0,0.0,0.0,0.0,0.0,0.0,0.0,0.0,0.0,0.0,0.0,0.0,0.0,0.0,0.0,0.0,0.0,0.0,0.0,0.0,0.0,0.0,0.0,0.0,0.0,0.0,0.0,0.0,0.0,0.0,0.0,0.0,0.0,0.0,0.0,0.0,0.0,0.0,0.0,0.0,0.0,0.0,0.0,0.0,0.0,0.0,0.0,0.0,0.0,0.0,0.0,0.0,0.0,0.0,0.0,0.0,0.0,0.0,0.0,0.0,0.0,0.0,0.0,0.0,0.0,0.0,0.0,0.0,0.0,0.0,0.0,0.0,0.0,0.0,0.0,0.0,0.0,0.0,0.0,0.0,0.0,0.0,0.0,0.0,0.0,0.0,0.0,0.0,0.0,0.0,0.0,0.0,0.0,0.0,0.0,0.0,0.0,0.0,0.0,0.0,0.0,0.0,0.0,0.0,0.0,0.0,0.0,0.0,0.0,0.0,0.0,0.0,0.0,0.0,0.0,0.0,0.0,0.0,0.0,0.0,0.0,0.0,0.0,0.0,0.0,0.0,0.0,0.0,0.0,0.0,0.0,0.0,0.0,0.0,0.0,0.0,0.0,0.0,0.0,0.0,0.0,0.0,0.0,0.0,0.0,0.0,0.0,0.0,0.0,0.0,0.0,0.0,0.0,0.0,0.0,0.0,0.0,0.0,0.0,0.0,0.0,0.0,0.0,0.0,0.0,0.0,0.0,0.0,0.0,0.0,0.0,0.0,0.0,0.0,0.0,0.0,0.0,0.0,0.0,0.0,0.0,0.0,0.0,0.0,0.0,0.0,0.0,0.0,0.0,0.0,0.0,0.0,0.0,0.0,0.0,0.0,0.0,0.0,0.0,0.0,0.0,0.0,0.0,0.0,0.0,0.0,0.0,0.0,0.0,0.0,0.0,0.0,0.0,0.0,0.0,0.0,0.0,0.0,0.0,0.0,0.0,0.0,0.0,0.0,0.0,0.0,0.0,0.0,0.0,0.0,0.0,0.0,0.0,0.0,0.0,0.0,0.0,0.0,0.0,0.0,0.0,0.0,0.0,0.0,0.0,0.0,0.0,0.0,0.0,0.0,0.0,0.0,0.0,0.0,0.0,0.0,0.0,0.0,0.0,0.0,0.0,0.0,0.0,0.0,0.0,0.0,0.0,0.0,0.0,0.0,0.0,0.0,0.0,0.0,0.0,0.0,0.0,0.0,0.0,0.0,0.0,0.0,0.0,0.0,0.0,0.0,0.0,0.0,0.0,0.0,0.0,0.0,0.0,0.0,0.0,0.0,0.0,0.0,0.0,0.0,0.0,0.0,0.0,0.0,0.0,0.0,0.0,0.0,0.0,0.0,0.0,0.0,0.0,0.0,0.0,0.0,0.0,0.0,0.0,0.0,0.0,0.0,0.0,0.0,0.0,0.0,0.0,0.0,0.0,0.0,0.0,0.0,0.0,0.0,0.0,0.0,0.0,0.0,0.0,0.0,0.0,0.0,0.0,0.0,0.0,0.0,0.0,0.0,0.0,0.0,0.0,0.0,0.0,0.0,0.0,0.0,0.0,0.0,0.0,0.0,0.0,0.0,0.0,0.0,0.0,0.0,0.0,0.0,0.0,0.0,0.0,0.0,0.0,0.0,0.0,0.0,0.0,0.0,0.0,0.0,0.0,0.0,0.0,0.0,0.0,0.0,0.0,0.0,0.0,0.0,0.0,0.0,0.0,0.0,0.0,0.0,0.0,0.0,0.0,0.0,0.0,0.0,0.0,0.0,0.0,0.0,0.0,0.0,0.0,0.0,0.0,0.0,0.0,0.0,0.0,0.0,0.0,0.0,0.0,0.0,0.0,0.0,0.0,0.0,0.0,0.0,0.0,0.0,0.0,0.0,0.0,0.0,0.0,0.0,0.0,0.0,0.0,0.0,0.0,0.0,0.0,0.0,0.0,0.0,0.0,0.0,0.0,0.0,0.0,0.0,0.0,0.0,0.0,0.0,0.0,0.0,0.0,0.0,0.0,0.0,0.0,0.0,0.0,0.0,0.0,0.0,0.0,0.0,0.0,0.0,0.0,0.0,0.0,0.0,0.0,0.0,0.0,0.0,0.0,0.0,0.0,0.0,0.0,0.0,0.0,0.0,0.0,0.0,0.0,0.0,0.0,0.0,0.0,0.0,0.0,0.0,0.0,0.0,0.0,0.0,0.0,0.0,0.0,0.0,0.0,0.0,0.0,0.0,0.0,0.0,0.0,0.0,0.0,0.0,0.0,0.0,0.0,0.0,0.0,0.0,0.0,0.0,0.0,0.0,0.0,0.0,0.0,0.0,0.0,0.0,0.0,0.0,0.0,0.0,0.0,0.0,0.0,0.0,0.0,0.0,0.0,0.0,0.0,0.0,0.0,0.0,0.0,0.0,0.0,0.0,0.0,0.0,0.0,0.0,0.0,0.0,0.0,0.0,0.0,0.0,0.0,0.0,0.0,0.0,0.0,0.0,0.0,1.798,0.0,0.0,0.0,0.0,0.0,0.0,0.0,0.0,0.0,0.0,0.0,0.0,0.0,0.0,0.0,0.0,0.0,0.0,0.0,0.0,0.0,0.0,0.0,0.0,0.0,0.0,0.0,0.0,0.0,0.0,0.0,0.0,0.0,0.0,0.0,0.0,0.0,0.0,0.0,0.0,0.0,0.0,0.0,0.0,0.0,0.0,0.0,0.0,0.0,0.0,0.0,0.0,0.0,0.0,0.0,0.0,0.0,0.0,0.0,0.0,0.0,0.0,0.0,0.0,0.0,0.0,0.0,0.0,0.0,0.0,0.0,0.0,0.0,0.0,0.0,0.0,0.0,0.0,0.0,0.0,0.0,0.0,0.0,0.0,0.0,0.0,0.0,0.0,0.0,0.0,0.0,0.0,0.0,0.0,0.0,0.0,0.0,0.0,0.0,0.0,0.0,0.0,0.0,0.0,0.0,0.0,0.0,0.0,0.0,0.0,1.5711,1.5405,1.5786,1.5872,1.5603,0.0,0.0,0.0,0.0,0.0,0.0,0.0,0.0,0.0,0.0,0.0,0.0,0.0,0.0,0.0,0.0,0.0,0.0,0.0,0.0,0.0,0.0,0.0,0.0,0.0,0.0,0.0,0.0,0.0,0.0,0.0,0.0,0.0,0.0,0.0,0.0,0.0,0.0,0.0,0.0,0.0,0.0,0.0,0.0,0.0,0.0,0.0,0.0,0.0,0.0,0.0,0.0,0.0,0.0,0.0,0.0,0.0,0.0,0.0,0.0,0.0,0.0,0.0,0.0,0.0,0.0,0.0,0.0,0.0,0.0,0.0,0.0,0.0,0.0,0.0,0.0,0.0,0.0,0.0,0.0,0.0,0.0,0.0,0.0,0.0,0.0,0.0,0.0,0.0,0.0,0.0,0.0,0.0,0.0,0.0,0.0,0.0,0.0,0.0,0.0,0.0,0.0,0.0,0.0,0.0,0.0,0.0,0.0,0.0,0.0,0.0,0.0,1.3469,1.3364,1.3181,0.0,0.0,0.0,0.0,0.0,0.0,0.0,0.0,0.0,0.0,0.0,0.0,0.0,0.0,0.0,0.0,0.0,0.0,0.0,0.0,0.0,0.0,0.0,0.0,0.0,0.0,0.0,0.0,0.0,0.0,0.0,0.0,0.0,0.0,0.0,0.0,0.0,0.0,0.0,0.0,0.0,0.0,0.0,0.0,0.0,0.0,0.0,0.0,0.0,0.0,0.0,0.0,0.0,0.0,0.0,0.0,0.0,0.0,0.0,0.0,0.0,0.0,0.0,0.0,0.0,0.0,0.0,0.0,0.0,0.0,0.0,0.0,0.0,0.0,0.0,0.0,0.0,0.0,0.0,0.0,0.0,0.0,0.0,0.0,0.0,0.0,0.0,0.0,0.0,0.0,0.0,0.0,0.0,0.0,0.0,0.0,0.0,0.0,0.0,0.0,0.0,0.0,0.0,0.0,0.0,0.0,0.0,0.0,0.0,0.0,1.2706,1.3006,1.1539,0.0,1.0863,0.0,0.0,0.0,0.0,0.0,0.0,0.0,0.0,0.0,0.0,0.0,0.0,0.0,0.0,0.0,0.0,0.0,0.0,0.0,0.0,0.0,0.0,0.0,0.0,0.0,0.0,0.0,0.0,0.0,0.0,0.0,0.0,0.0,0.0,0.0,0.0,0.0,0.0,0.0,0.0,0.0,0.0,0.0,0.0,0.0,0.0,0.0,0.0,0.0,0.0,0.0,0.0,0.0,0.0,0.0,0.0,0.0,0.0,0.0,0.0,0.0,0.0,0.0,0.0,0.0,0.0,0.0,0.0,0.0,0.0,0.0,0.0,0.0,0.0,0.0,0.0,0.0,0.0,0.0,0.0,0.0,0.0,0.0,0.0,0.0,0.0,0.0,0.0,0.0,0.0,0.0,0.0,0.0,0.0,0.0,0.0,0.0,0.0,0.0,0.0,0.0,0.0,0.0,0.0,0.0,0.0,0.0,0.0,0.0,0.0,1.1625,1.1169,0.9277,0.8102,0.0,0.0,0.0,0.0,0.0,0.0,0.0,0.0,0.0,0.0,0.0,0.0,0.0,0.0,0.0,0.0,0.0,0.0,0.0,0.0,0.0,0.0,0.0,0.0,0.0,0.0,0.0,0.0,0.0,0.0,0.0,0.0,0.0,0.0,0.0,0.0,0.0,0.0,0.0,0.0,0.0,0.0,0.0,0.0,0.0,0.0,0.0,0.0,0.0,0.0,0.0,0.0,0.0,0.0,0.0,0.0,0.0,0.0,0.0,0.0,0.0,0.0,0.0,0.0,0.0,0.0,0.0,0.0,0.0,0.0,0.0,0.0,0.0,0.0,0.0,0.0,0.0,0.0,0.0,0.0,0.0,0.0,0.0,0.0,0.0,0.0,0.0,0.0,0.0,0.0,0.0,0.0,0.0,0.0,0.0,0.0,0.0,0.0,0.0,0.0,0.0,0.0,0.0,0.0,0.0,0.0,0.0,0.0,0.0,0.0,1.2208,1.0534,0.8711,0.6776,0.5586,0.5157,0.0,0.0,0.0,0.0,0.0,0.0,0.0,0.0,0.0,0.0,0.0,0.0,0.0,0.0,0.0,0.0,0.0,0.0,0.0,0.0,0.0,0.0,0.0,0.0,0.0,0.0,0.0,0.0,0.0,0.0,0.0,0.0,0.0,0.0,0.0,0.0,0.0,0.0,0.0,0.0,0.0,0.0,0.0,0.0,0.0,0.0,0.0,0.0,0.0,0.0,0.0,0.0,0.0,0.0,0.0,0.0,0.0,0.0,0.0,0.0,0.0,0.0,0.0,0.0,0.0,0.0,0.0,0.0,0.0,0.0,0.0,0.0,0.0,0.0,0.0,0.0,0.0,0.0,0.0,0.0,0.0,0.0,0.0,0.0,0.0,0.0,0.0,0.0,0.0,0.0,0.0,0.0,0.0,0.0,0.0,0.0,0.0,0.0,0.0,0.0,0.0,0.0,0.0,0.0,0.0,0.0,0.0,0.0,1.4872,1.2386,0.9331,0.5759,0.4099,0.3231,0.0,0.0,0.0,0.0,0.0,0.0,0.0,0.0,0.0,0.0,0.0,0.0,0.0,0.0,0.0,0.0,0.0,0.0,0.0,0.0,0.0,0.0,0.0,0.0,0.0,0.0,0.0,0.0,0.0,0.0,0.0,0.0,0.0,0.0,0.0,0.0,0.0,0.0,0.0,0.0,0.0,0.0,0.0,0.0,0.0,0.0,0.0,0.0,0.0,0.0,0.0,0.0,0.0,0.0,0.0,0.0,0.0,0.0,0.0,0.0,0.0,0.0,0.0,0.0,0.0,0.0,0.0,0.0,0.0,0.0,0.0,0.0,0.0,0.0,0.0,0.0,0.0,0.0,0.0,0.0,0.0,0.0,0.0,0.0,0.0,0.0,0.0,0.0,0.0,0.0,0.0,0.0,0.0,0.0,0.0,0.0,0.0,0.0,0.0,0.0,0.0,0.0,0.0,0.0,0.0,0.0,0.0,0.0,0.0,1.368,1.0408,0.718,0.4163,0.2972,0.2002,0.0,0.0,0.0,0.0,0.0,0.0,0.0,0.0,0.0,0.0,0.0,0.0,0.0,0.0,0.0,0.0,0.0,0.0,0.0,0.0,0.0,0.0,0.0,0.0,0.0,0.0,0.0,0.0,0.0,0.0,0.0,0.0,0.0,0.0,0.0,0.0,0.0,0.0,0.0,0.0,0.0,0.0,0.0,0.0,0.0,0.0,0.0,0.0,0.0,0.0,0.0,0.0,0.0,0.0,0.0,0.0,0.0,0.0,0.0,0.0,0.0,0.0,0.0,0.0,0.0,0.0,0.0,0.0,0.0,0.0,0.0,0.0,0.0,0.0,0.0,0.0,0.0,0.0,0.0,0.0,0.0,0.0,0.0,0.0,0.0,0.0,0.0,0.0,0.0,0.0,0.0,0.0,0.0,0.0,0.0,0.0,0.0,0.0,0.0,0.0,0.0,0.0,0.0,0.0,0.0,0.0,0.0,0.0,0.0,1.1586,0.0,0.5452,0.2505,0.1422,0.034,0.0,0.0,0.0,0.0,0.0,0.0,0.0,0.0,0.0,0.0,0.0,0.0,0.0,0.0,0.0,0.0,0.0,0.0,0.0,0.0,0.0,0.0,0.0,0.0,0.0,0.0,0.0,0.0,0.0,0.0,0.0,0.0,0.0,0.0,0.0,0.0,0.0,0.0,0.0,0.0,0.0,0.0,0.0,0.0,0.0,0.0,0.0,0.0,0.0,0.0,0.0,0.0,0.0,0.0,0.0,0.0,0.0,0.0,0.0,0.0,0.0,0.0,0.0,0.0,0.0,0.0,0.0,0.0,0.0,0.0,0.0,0.0,0.0,0.0,0.0,0.0,0.0,0.0,0.0,0.0,0.0,0.0,0.0,0.0,0.0,0.0,0.0,0.0,0.0,0.0,0.0,0.0,0.0,0.0,0.0,0.0,0.0,0.0,0.0,0.0,0.0,0.0,0.0,0.0,0.0,0.0,0.0,0.0,1.3095,0.8728,0.7007,0.4419,0.0606,-0.0498,-0.1631,0.0,0.0,0.0,0.0,0.0,0.0,0.0,0.0,0.0,0.0,0.0,0.0,0.0,0.0,0.0,0.0,0.0,0.0,0.0,0.0,0.0,0.0,0.0,0.0,0.0,0.0,0.0,0.0,0.0,0.0,0.0,0.0,0.0,0.0,0.0,0.0,0.0,0.0,0.0,0.0,0.0,0.0,0.0,0.0,0.0,0.0,0.0,0.0,0.0,0.0,0.0,0.0,0.0,0.0,0.0,0.0,0.0,0.0,0.0,0.0,0.0,0.0,0.0,0.0,0.0,0.0,0.0,0.0,0.0,0.0,0.0,0.0,0.0,0.0,0.0,0.0,0.0,0.0,0.0,0.0,0.0,0.0,0.0,0.0,0.0,0.0,0.0,0.0,0.0,0.0,0.0,0.0,0.0,0.0,0.0,0.0,0.0,0.0,0.0,0.0,0.0,0.0,0.0,0.0,0.0,0.0,0.0,0.0,0.0,0.9024,0.8176,0.6078,0.2568,0.0877,-0.0471,0.0,0.0,0.0,0.0,0.0,0.0,0.0,0.0,0.0,0.0,0.0,0.0,0.0,0.0,0.0,0.0,0.0,0.0,0.0,0.0,0.0,0.0,0.0,0.0,0.0,0.0,0.0,0.0,0.0,0.0,0.0,0.0,0.0,0.0,0.0,0.0,0.0,0.0,0.0,0.0,0.0,0.0,0.0,0.0,0.0,0.0,0.0,0.0,0.0,0.0,0.0,0.0,0.0,0.0,0.0,0.0,0.0,0.0,0.0,0.0,0.0,0.0,0.0,0.0,0.0,0.0,0.0,0.0,0.0,0.0,0.0,0.0,0.0,0.0,0.0,0.0,0.0,0.0,0.0,0.0,0.0,0.0,0.0,0.0,0.0,0.0,0.0,0.0,0.0,0.0,0.0,0.0,0.0,0.0,0.0,0.0,0.0,0.0,0.0,0.0,0.0,0.0,0.0,0.0,0.0,0.0,0.0,0.0,0.0,0.9652,0.8683,0.6265,0.2295,0.1239,-0.0242,-0.2185,0.0,0.0,0.0,0.0,0.0,0.0,0.0,0.0,0.0,0.0,0.0,0.0,0.0,0.0,0.0,0.0,0.0,0.0,0.0,0.0,0.0,0.0,0.0,0.0,0.0,0.0,0.0,0.0,0.0,0.0,0.0,0.0,0.0,0.0,0.0,0.0,0.0,0.0,0.0,0.0,0.0,0.0,0.0,0.0,0.0,0.0,0.0,0.0,0.0,0.0,0.0,0.0,0.0,0.0,0.0,0.0,0.0,0.0,0.0,0.0,0.0,0.0,0.0,0.0,0.0,0.0,0.0,0.0,0.0,0.0,0.0,0.0,0.0,0.0,0.0,0.0,0.0,0.0,0.0,0.0,0.0,0.0,0.0,0.0,0.0,0.0,0.0,0.0,0.0,0.0,0.0,0.0,0.0,0.0,0.0,0.0,0.0,0.0,0.0,0.0,0.0,0.0,0.0,0.0,0.0,0.0,0.0,0.0,1.0419,0.8509,0.5334,0.0833,0.0708,-0.074,0.0,0.0,0.0,0.0,0.0,0.0,0.0,0.0,0.0,0.0,0.0,0.0,0.0,0.0,0.0,0.0,0.0,0.0,0.0,0.0,0.0,0.0,0.0,0.0,0.0,0.0,0.0,0.0,0.0,0.0,0.0,0.0,0.0,0.0,0.0,0.0,0.0,0.0,0.0,0.0,0.0,0.0,0.0,0.0,0.0,0.0,0.0,0.0,0.0,0.0,0.0,0.0,0.0,0.0,0.0,0.0,0.0,0.0,0.0,0.0,0.0,0.0,0.0,0.0,0.0,0.0,0.0,0.0,0.0,0.0,0.0,0.0,0.0,0.0,0.0,0.0,0.0,0.0,0.0,0.0,0.0,0.0,0.0,0.0,0.0,0.0,0.0,0.0,0.0,0.0,0.0,0.0,0.0,0.0,0.0,0.0,0.0,0.0,0.0,0.0,0.0,0.0,0.0,0.0,0.0,0.0,0.0,0.0,0.0,1.0544,0.8567,0.6031,0.3038,0.1448,-0.0469,0.0,0.0,0.0,0.0,0.0,0.0,0.0,0.0,0.0,0.0,0.0,0.0,0.0,0.0,0.0,0.0,0.0,0.0,0.0,0.0,0.0,0.0,0.0,0.0,0.0,0.0,0.0,0.0,0.0,0.0,0.0,0.0,0.0,0.0,0.0,0.0,0.0,0.0,0.0,0.0,0.0,0.0,0.0,0.0,0.0,0.0,0.0,0.0,0.0,0.0,0.0,0.0,0.0,0.0,0.0,0.0,0.0,0.0,0.0,0.0,0.0,0.0,0.0,0.0,0.0,0.0,0.0,0.0,0.0,0.0,0.0,0.0,0.0,0.0,0.0,0.0,0.0,0.0,0.0,0.0,0.0,0.0,0.0,0.0,0.0,0.0,0.0,0.0,0.0,0.0,0.0,0.0,0.0,0.0,0.0,0.0,0.0,0.0,0.0,0.0,0.0,0.0,0.0,0.0,0.0,0.0,0.0,0.0,1.1646,1.0805,0.8792,0.6475,0.3969,0.2156,-0.0044,0.0,0.0,0.0,0.0,0.0,0.0,0.0,0.0,0.0,0.0,0.0,0.0,0.0,0.0,0.0,0.0,0.0,0.0,0.0,0.0,0.0,0.0,0.0,0.0,0.0,0.0,0.0,0.0,0.0,0.0,0.0,0.0,0.0,0.0,0.0,0.0,0.0,0.0,0.0,0.0,0.0,0.0,0.0,0.0,0.0,0.0,0.0,0.0,0.0,0.0,0.0,0.0,0.0,0.0,0.0,0.0,0.0,0.0,0.0,0.0,0.0,0.0,0.0,0.0,0.0,0.0,0.0,0.0,0.0,0.0,0.0,0.0,0.0,0.0,0.0,0.0,0.0,0.0,0.0,0.0,0.0,0.0,0.0,0.0,0.0,0.0,0.0,0.0,0.0,0.0,0.0,0.0,0.0,0.0,0.0,0.0,0.0,0.0,0.0,0.0,0.0,0.0,0.0,0.0,0.0,0.0,0.0,0.0,1.2143,1.116,0.9099,0.6799,0.4312,0.2807,0.0503,0.0,0.0,0.0,0.0,0.0,0.0,0.0,0.0,0.0,0.0,0.0,0.0,0.0,0.0,0.0,0.0,0.0,0.0,0.0,0.0,0.0,0.0,0.0,0.0,0.0,0.0,0.0,0.0,0.0,0.0,0.0,0.0,0.0,0.0,0.0,0.0,0.0,0.0,0.0,0.0,0.0,0.0,0.0,0.0,0.0,0.0,0.0,0.0,0.0,0.0,0.0,0.0,0.0,0.0,0.0,0.0,0.0,0.0,0.0,0.0,0.0,0.0,0.0,0.0,0.0,0.0,0.0,0.0,0.0,0.0,0.0,0.0,0.0,0.0,0.0,0.0,0.0,0.0,0.0,0.0,0.0,0.0,0.0,0.0,0.0,0.0,0.0,0.0,0.0,0.0,0.0,0.0,0.0,0.0,0.0,0.0,0.0,0.0,0.0,0.0,0.0,0.0,0.0,0.0,0.0,0.0,0.0,0.0,1.222,1.1427,0.9158,0.7201,0.5625,0.3249,0.0863,0.0,0.0,0.0,0.0,0.0,0.0,0.0,0.0,0.0,0.0,0.0,0.0,0.0,0.0,0.0,0.0,0.0,0.0,0.0,0.0,0.0,0.0,0.0,0.0,0.0,0.0,0.0,0.0,0.0,0.0,0.0,0.0,0.0,0.0,0.0,0.0,0.0,0.0,0.0,0.0,0.0,0.0,0.0,0.0,0.0,0.0,0.0,0.0,1.4731,0.0,0.0,0.0,0.0,0.0,0.0,0.0,0.0,0.0,0.0,0.0,0.0,0.0,0.0,0.0,0.0,0.0,0.0,0.0,0.0,0.0,0.0,0.0,0.0,0.0,0.0,0.0,0.0,0.0,0.0,0.0,0.0,0.0,0.0,0.0,0.0,0.0,0.0,0.0,0.0,0.0,0.0,0.0,0.0,0.0,0.0,0.0,0.0,0.0,0.0,0.0,0.0,0.0,0.0,0.0,0.0,0.0,0.0,0.0,1.3129,1.1544,1.0404,0.864,0.6069,0.4645,0.2717,0.0,0.0,0.0,0.0,0.0,0.0,0.0,0.0,0.0,0.0,0.0,0.0,0.0,0.0,0.0,0.0,0.0,0.0,0.0,0.0,0.0,0.0,0.0,0.0,0.0,0.0,0.0,0.0,0.0,0.0,0.0,0.0,0.0,0.0,0.0,0.0,0.0,0.0,0.0,0.0,0.0,0.0,0.0,0.0,0.0,0.0,0.0,0.0,0.0,0.0,0.0,0.0,0.0,0.0,0.0,0.0,0.0,0.0,0.0,0.0,0.0,0.0,0.0,0.0,0.0,0.0,0.0,0.0,0.0,0.0,0.0,0.0,0.0,0.0,0.0,0.0,0.0,0.0,0.0,0.0,0.0,0.0,0.0,0.0,0.0,0.0,0.0,0.0,0.0,0.0,0.0,0.0,0.0,0.0,0.0,0.0,0.0,0.0,0.0,0.0,0.0,0.0,0.0,0.0,0.0,0.0,0.0,1.5908,1.4281,1.188,1.1821,1.0178,0.6694,0.6154,0.4886,0.2678,0.0,0.0,0.0,0.0,0.0,0.0,0.0,0.0,0.0,0.0,0.0,0.0,0.0,0.0,0.0,0.0,0.0,0.0,0.0,0.0,0.0,0.0,0.0,0.0,0.0,0.0,0.0,0.0,0.0,0.0,0.0,0.0,0.0,0.0,0.0,0.0,0.0,0.0,2.4135,2.2573,0.0,0.0,0.0,0.0,0.0,0.0,0.0,0.0,1.7478,0.0,0.0,0.0,0.0,0.0,0.0,0.0,0.0,0.0,0.0,0.0,0.0,0.0,0.0,0.0,0.0,0.0,0.0,0.0,0.0,0.0,0.0,0.0,0.0,0.0,0.0,0.0,0.0,0.0,0.0,0.0,0.0,0.0,0.0,0.0,0.0,0.0,0.0,0.0,0.0,0.0,0.0,0.0,0.0,0.0,0.0,0.0,0.0,0.0,0.0,0.0,0.0,0.0,0.0,0.0,0.0,1.7548,1.6413,1.4811,1.2797,1.2067,1.0853,0.8943,0.6934,0.5883,0.5993,0.0,0.0,0.0,0.0,0.0,0.0,0.0,0.0,0.0,0.0,0.0,0.0,0.0,0.0,0.0,0.0,0.0,0.0,0.0,0.0,0.0,0.0,0.0,0.0,0.0,0.0,0.0,0.0,0.0,0.0,0.0,0.0,0.0,0.0,0.0,0.0,0.0,0.0,0.0,2.6468,2.5471,0.0,0.0,0.0,0.0,0.0,0.0,0.0,0.0,2.2317,0.0,0.0,0.0,0.0,0.0,0.0,0.0,0.0,0.0,0.0,0.0,0.0,0.0,0.0,0.0,0.0,0.0,0.0,0.0,0.0,0.0,0.0,0.0,0.0,0.0,0.0,0.0,0.0,0.0,0.0,0.0,0.0,0.0,0.0,0.0,0.0,0.0,0.0,0.0,0.0,0.0,0.0,0.0,0.0,0.0,0.0,0.0,0.0,0.0,0.0,0.0,0.0,0.0,0.0,0.0,1.731,1.6774,1.538,1.3297,1.2815,1.188,1.036,0.8856,0.7938,0.0,0.0,0.0,0.0,0.0,0.0,0.0,0.0,0.0,0.0,0.0,0.0,0.0,0.0,0.0,0.0,0.0,0.0,0.0,0.0,0.0,0.0,0.0,0.0,0.0,0.0,0.0,0.0,0.0,0.0,0.0,0.0,0.0,0.0,0.0,0.0,0.0,0.0,0.0,0.0,2.8118,2.7462,2.7209,0.0,0.0,0.0,0.0,0.0,0.0,2.2435,2.3438,0.0,0.0,0.0,0.0,0.0,0.0,0.0,0.0,0.0,0.0,0.0,0.0,0.0,0.0,0.0,0.0,0.0,0.0,0.0,0.0,0.0,0.0,0.0,0.0,0.0,0.0,0.0,0.0,0.0,0.0,0.0,0.0,0.0,0.0,0.0,0.0,0.0,0.0,0.0,0.0,0.0,0.0,0.0,0.0,0.0,0.0,0.0,0.0,0.0,0.0,0.0,0.0,0.0,0.0,0.0,1.7086,1.7243,1.6224,1.3975,1.3704,1.29,1.1475,1.0936,1.0074,0.0,0.0,0.0,0.0,0.0,0.0,0.0,0.0,0.0,0.0,0.0,0.0,0.0,0.0,0.0,0.0,0.0,0.0,0.0,0.0,0.0,0.0,0.0,0.0,0.0,0.0,0.0,0.0,0.0,0.0,0.0,0.0,0.0,0.0,0.0,0.0,0.0,0.0,0.0,0.0,0.0,2.9112,2.9526,2.8162,0.0,0.0,0.0,0.0,2.2479,2.4316,0.0,0.0,0.0,0.0,0.0,0.0,0.0,0.0,0.0,0.0,0.0,0.0,0.0,0.0,0.0,0.0,0.0,0.0,0.0,0.0,0.0,0.0,0.0,0.0,0.0,0.0,0.0,0.0,0.0,0.0,0.0,0.0,0.0,0.0,0.0,0.0,0.0,0.0,0.0,0.0,0.0,0.0,0.0,0.0,0.0,0.0,0.0,0.0,0.0,0.0,0.0,0.0,0.0,0.0,0.0,0.0,1.765,1.8202,1.7499,1.5533,1.4697,1.3686,1.2453,1.2306,1.1736,0.0,0.0,0.0,0.0,0.0,0.0,0.0,0.0,0.0,0.0,0.0,0.0,0.0,0.0,0.0,0.0,0.0,0.0,0.0,0.0,0.0,0.0,0.0,0.0,0.0,0.0,0.0,0.0,0.0,0.0,0.0,0.0,0.0,0.0,0.0,0.0,0.0,0.0,0.0,0.0,0.0,3.1527,2.9551,2.9884,2.9858,0.0,0.0,2.8784,2.8799,3.015,0.0,0.0,0.0,0.0,0.0,0.0,0.0,0.0,0.0,0.0,0.0,0.0,0.0,0.0,0.0,0.0,0.0,0.0,0.0,0.0,0.0,0.0,0.0,0.0,0.0,0.0,0.0,0.0,0.0,0.0,0.0,0.0,0.0,0.0,0.0,0.0,0.0,0.0,0.0,0.0,0.0,0.0,0.0,0.0,0.0,0.0,0.0,0.0,0.0,0.0,0.0,0.0,0.0,0.0,0.0,1.9523,1.8044,1.9243,1.8954,1.6984,1.6515,1.5978,1.5295,1.4693,1.4159,0.0,0.0,0.0,0.0,0.0,0.0,0.0,0.0,0.0,0.0,0.0,0.0,0.0,0.0,0.0,0.0,0.0,0.0,0.0,0.0,0.0,0.0,0.0,0.0,0.0,0.0,0.0,0.0,0.0,0.0,0.0,0.0,0.0,0.0,0.0,0.0,0.0,0.0,0.0,0.0,0.0,0.0,3.2207,3.2199,0.0,0.0,0.0,3.0767,3.0356,0.0,0.0,0.0,0.0,0.0,0.0,0.0,0.0,0.0,0.0,0.0,0.0,0.0,0.0,0.0,0.0,0.0,0.0,0.0,0.0,0.0,0.0,0.0,0.0,0.0,0.0,0.0,0.0,0.0,0.0,0.0,0.0,0.0,0.0,0.0,0.0,0.0,0.0,0.0,0.0,0.0,0.0,0.0,0.0,0.0,0.0,0.0,0.0,0.0,0.0,0.0,0.0,0.0,0.0,0.0,0.0,0.0,1.9145,2.072,2.0561,1.8538,1.8424,1.804,1.7153,1.6661,0.0,0.0,0.0,0.0,0.0,0.0,0.0,0.0,0.0,0.0,0.0,0.0,0.0,0.0,0.0,0.0,0.0,0.0,0.0,0.0,0.0,0.0,0.0,0.0,0.0,0.0,0.0,2.9621,0.0,0.0,0.0,0.0,0.0,0.0,0.0,0.0,0.0,0.0,0.0,0.0,0.0,0.0,3.3408,3.4377,3.4222,3.4487,0.0,0.0,3.2771,3.2418,3.3086,3.2695,0.0,0.0,0.0,0.0,0.0,0.0,0.0,0.0,0.0,0.0,0.0,0.0,0.0,0.0,0.0,0.0,0.0,0.0,0.0,0.0,0.0,0.0,0.0,0.0,0.0,0.0,0.0,0.0,0.0,0.0,0.0,0.0,0.0,0.0,0.0,0.0,0.0,0.0,0.0,0.0,0.0,0.0,0.0,0.0,0.0,0.0,0.0,0.0,0.0,0.0,0.0,0.0,0.0,0.0,2.1724,2.1793,2.2756,2.2328,2.0324,2.0236,1.9114,1.6861,1.7652,1.7981,0.0,0.0,0.0,0.0,0.0,0.0,0.0,0.0,0.0,0.0,0.0,0.0,0.0,0.0,0.0,0.0,0.0,0.0,0.0,0.0,0.0,0.0,0.0,0.0,0.0,0.0,0.0,0.0,0.0,0.0,0.0,0.0,0.0,0.0,0.0,0.0,0.0,0.0,0.0,0.0,0.0,3.4585,3.4655,3.5547,3.6753,0.0,3.6918,3.5987,3.694,3.7762,3.7133,3.3619,0.0,0.0,0.0,0.0,0.0,0.0,0.0,0.0,0.0,0.0,0.0,0.0,0.0,0.0,0.0,0.0,0.0,0.0,0.0,0.0,0.0,0.0,0.0,0.0,0.0,0.0,0.0,0.0,0.0,0.0,0.0,0.0,0.0,0.0,0.0,0.0,0.0,0.0,0.0,0.0,0.0,0.0,0.0,0.0,0.0,0.0,0.0,0.0,0.0,0.0,0.0,0.0,0.0,2.2365,2.2024,2.3258,2.3417,2.2376,2.1998,2.1512,2.0886,2.1044,2.0889,0.0,0.0,0.0,0.0,0.0,0.0,0.0,0.0,0.0,0.0,0.0,0.0,0.0,0.0,0.0,0.0,0.0,0.0,0.0,0.0,0.0,0.0,0.0,0.0,0.0,0.0,0.0,0.0,3.1749,3.1928,3.1764,0.0,0.0,0.0,0.0,0.0,0.0,0.0,0.0,0.0,0.0,3.7063,3.7806,3.7998,0.0,0.0,3.7574,3.6429,3.7203,3.6675,3.5545,3.3536,3.2529,0.0,0.0,0.0,0.0,0.0,0.0,0.0,0.0,0.0,0.0,0.0,0.0,0.0,0.0,0.0,0.0,0.0,0.0,0.0,0.0,0.0,0.0,0.0,0.0,0.0,0.0,0.0,0.0,0.0,0.0,0.0,0.0,0.0,0.0,0.0,0.0,0.0,0.0,0.0,0.0,0.0,0.0,0.0,0.0,0.0,0.0,0.0,0.0,0.0,0.0,0.0,0.0,2.3796,2.3252,2.482,2.5301,2.472,2.4085,2.3732,2.3655,2.3168,2.267,0.0,0.0,0.0,0.0,0.0,0.0,0.0,0.0,0.0,0.0,0.0,0.0,0.0,0.0,0.0,0.0,0.0,0.0,0.0,0.0,0.0,0.0,0.0,0.0,0.0,0.0,0.0,0.0,3.2721,3.2647,3.1988,0.0,0.0,0.0,0.0,0.0,0.0,0.0,0.0,0.0,0.0,3.8434,3.9385,3.9101,3.9097,3.9881,3.7978,3.68,3.7888,3.6812,3.5475,3.4396,0.0,0.0,0.0,0.0,0.0,0.0,0.0,0.0,0.0,0.0,0.0,0.0,0.0,0.0,0.0,0.0,0.0,0.0,0.0,0.0,0.0,0.0,0.0,0.0,0.0,0.0,0.0,0.0,0.0,0.0,2.957,0.0,0.0,0.0,0.0,0.0,0.0,0.0,0.0,0.0,0.0,0.0,0.0,0.0,0.0,0.0,0.0,0.0,0.0,0.0,0.0,0.0,0.0,2.6192,2.6038,2.7809,2.8338,2.74,2.6654,2.5555,2.4214,2.3386,2.288,2.2778,0.0,0.0,0.0,0.0,0.0,0.0,0.0,0.0,0.0,0.0,0.0,0.0,0.0,0.0,0.0,0.0,0.0,0.0,0.0,0.0,0.0,0.0,0.0,0.0,0.0,0.0,3.2632,3.1973,3.1375,0.0,0.0,0.0,0.0,0.0,0.0,0.0,0.0,0.0,0.0,3.6529,3.8269,3.8734,3.8407,3.8799,4.0271,3.8381,3.7507,3.9674,3.9186,3.8209,0.0,0.0,0.0,0.0,0.0,0.0,0.0,0.0,0.0,0.0,0.0,0.0,0.0,0.0,0.0,0.0,0.0,0.0,0.0,0.0,0.0,0.0,0.0,0.0,0.0,0.0,0.0,3.4695,3.433,0.0,0.0,0.0,0.0,0.0,0.0,0.0,0.0,0.0,0.0,0.0,3.5805,3.6032,0.0,0.0,0.0,0.0,0.0,0.0,0.0,0.0,0.0,0.0,0.0,0.0,2.6763,2.7499,2.8126,2.8481,2.8493,2.7872,2.7509,2.7352,2.7099,2.6479,2.5525,0.0,0.0,0.0,0.0,0.0,0.0,0.0,0.0,0.0,0.0,0.0,0.0,0.0,0.0,0.0,0.0,0.0,0.0,0.0,0.0,0.0,0.0,0.0,0.0,0.0,3.407,0.0,0.0,0.0,0.0,0.0,0.0,0.0,0.0,0.0,0.0,0.0,3.6188,3.7543,3.9215,4.049,4.1077,4.0714,4.0617,0.0,0.0,0.0,0.0,0.0,0.0,0.0,0.0,0.0,0.0,0.0,0.0,0.0,0.0,3.4357,3.2187,2.9988,2.7959,2.6482,0.0,0.0,0.0,0.0,0.0,0.0,0.0,0.0,0.0,0.0,0.0,0.0,0.0,0.0,3.7196,0.0,3.699,0.0,0.0,0.0,0.0,0.0,0.0,0.0,0.0,3.7939,3.8743,3.9044,3.9288,3.917,0.0,3.8045,3.6362,0.0,0.0,0.0,0.0,0.0,0.0,0.0,0.0,2.8081,2.8609,2.9118,2.9407,2.9489,2.9165,2.8998,2.9089,2.908,2.8716,2.8042,2.7122,2.6568,0.0,0.0,0.0,0.0,0.0,0.0,0.0,0.0,0.0,0.0,0.0,0.0,0.0,0.0,0.0,0.0,0.0,0.0,0.0,0.0,0.0,0.0,0.0,3.4538,0.0,0.0,0.0,0.0,0.0,0.0,0.0,0.0,0.0,3.6816,3.7443,3.8535,4.0036,4.0889,4.1572,4.2006,0.0,0.0,0.0,0.0,0.0,0.0,0.0,3.9396,3.9978,3.865,3.7211,3.6364,3.7138,3.7304,3.5373,0.0,0.0,3.375,3.1435,2.9466,2.8482,2.7789,2.7397,2.7397,2.6956,2.6808,0.0,0.0,0.0,0.0,0.0,0.0,0.0,0.0,3.8814,3.9046,0.0,3.8104,0.0,0.0,0.0,0.0,0.0,3.7194,0.0,0.0,3.9358,4.0386,4.1116,4.0506,4.0188,4.0238,4.0788,3.9985,3.7768,3.4542,0.0,0.0,0.0,0.0,0.0,0.0,3.0225,2.9624,3.0877,3.1252,3.0638,3.047,3.013,2.9565,2.9318,2.9565,3.0155,2.9681,2.9103,2.8482,2.9747,0.0,0.0,0.0,0.0,0.0,0.0,0.0,0.0,0.0,0.0,0.0,0.0,0.0,0.0,0.0,0.0,0.0,0.0,0.0,0.0,3.4638,0.0,0.0,0.0,0.0,0.0,0.0,0.0,0.0,0.0,0.0,3.9207,4.0118,4.1038,4.1721,0.0,0.0,0.0,0.0,4.0479,4.2195,4.1013,4.0508,4.2142,4.1851,4.148,4.1758,0.0,0.0,3.7082,3.9793,4.092,3.7572,3.6578,3.6277,3.5227,3.3652,3.2583,3.2506,3.1175,3.0394,3.0291,2.9525,2.9269,4.6011,0.0,0.0,0.0,0.0,4.2393,4.3307,4.4699,4.4408,4.391,4.3258,4.2061,0.0,0.0,0.0,0.0,0.0,0.0,3.9204,4.0288,4.0675,4.123,4.1982,4.1762,4.1665,4.1638,4.1335,4.0865,4.015,3.8204,3.6059,3.3876,0.0,0.0,0.0,0.0,3.2128,3.2409,3.2792,3.2903,3.2709,3.267,3.2823,3.3146,3.2001,3.1748,3.2413,3.0918,2.9954,2.9766,2.9773,0.0,0.0,0.0,0.0,0.0,0.0,0.0,0.0,0.0,0.0,0.0,0.0,0.0,0.0,0.0,0.0,0.0,0.0,0.0,3.6149,3.5682,3.5584,0.0,0.0,0.0,0.0,0.0,0.0,0.0,0.0,0.0,4.3614,4.2955,4.2424,0.0,0.0,4.2884,4.2188,4.1864,4.1971,4.2916,4.2629,0.0,4.2976,4.2515,4.2416,4.3413,4.2038,4.0614,4.0,3.9312,3.8018,3.57,3.5231,3.4722,3.3281,3.2226,3.146,3.0967,3.0511,3.0056,2.9702,2.9444,2.9353,4.9571,4.6431,4.6169,4.5801,4.5475,4.5535,4.6317,4.7498,4.7303,4.6857,4.6192,4.5105,4.3211,4.0813,3.9812,0.0,0.0,0.0,4.0458,4.1205,4.1129,4.1485,4.2202,4.2202,4.2338,4.2511,4.1867,4.1383,4.1058,3.9959,3.8419,3.6443,0.0,0.0,3.3482,3.3723,3.3761,3.364,3.3896,3.3768,3.3223,3.3207,3.38,3.5006,3.4142,3.3981,3.4657,3.3526,3.261,3.2068,3.1998,3.1878,0.0,0.0,0.0,0.0,0.0,0.0,0.0,0.0,0.0,0.0,0.0,3.6907,3.6146,0.0,0.0,0.0,3.6527,3.6895,3.7195,3.7111,0.0,0.0,0.0,0.0,0.0,0.0,0.0,4.0855,4.2415,4.3876,4.5066,4.4856,4.461,4.4678,4.4176,4.3683,4.3404,0.0,4.2596,4.32,4.3305,4.3305,4.329,4.2776,4.2476,4.2583,4.1822,4.0851,4.0193,3.8789,3.7196,3.5676,3.5175,3.4657,3.304,3.239,3.1838,3.1089,3.0901,3.0781,3.0472,3.0233,3.006,5.1995,5.1213,5.0667,4.9888,4.9079,4.9061,4.9079,4.9008,4.8287,4.828,4.8668,4.7169,4.5976,4.4986,4.2943,0.0,4.2326,4.2079,4.1846,4.1503,4.1192,4.1458,4.2146,4.2111,4.2329,4.2789,4.23,4.1695,4.0984,4.0441,3.9857,3.9202,3.7811,3.6401,3.5078,3.5626,3.5245,3.3915,3.4542,3.4204,3.2893,3.2957,3.3956,3.5835,3.5867,3.6133,3.6774,3.6726,3.6085,3.4803,3.5214,3.4913,3.368,0.0,0.0,0.0,0.0,0.0,0.0,0.0,0.0,0.0,0.0,0.0,0.0,0.0,0.0,0.0,3.6984,0.0,3.8133,3.8737,0.0,0.0,0.0,4.0189,4.0265,4.0882,4.1559,4.2286,0.0,0.0,4.4598,4.5935,4.7006,4.7538,4.5581,4.431,4.4816,4.3685,4.2898,4.3579,4.3591,4.3521,4.3401,4.2758,4.1946,4.086,4.0353,4.0077,3.9091,3.8663,3.7945,3.6375,3.6072,3.5597,3.4163,3.3817,3.3575,3.2519,3.2282,3.2196,3.215,3.1818,3.1512,5.3431,5.2757,5.318,5.2311,5.0606,5.0563,5.0581,5.051,4.9741,4.9174,4.8703,4.7121,4.5693,4.4404,4.3877,4.3965,4.4495,4.3912,4.3875,4.4167,4.3034,4.2568,4.2682,4.2141,4.1925,4.2055,4.1925,4.1771,4.1556,4.0972,4.0857,4.1073,4.032,3.9003,3.7225,3.7318,3.695,3.6047,3.6214,3.5847,3.4954,3.6031,3.6883,3.7377,3.7327,3.7365,3.7502,3.6496,3.5534,3.4654,3.4235,3.386,3.3538,3.3455,0.0,0.0,0.0,0.0,0.0,0.0,0.0,0.0,0.0,3.8555,3.6638,0.0,3.948,0.0,3.8567,3.9445,4.0731,4.0122,0.0,0.0,4.1017,4.1153,4.1711,4.1931,4.232,4.3064,4.3826,4.4587,4.5331,4.6227,4.7064,4.7698,4.7177,4.6484,4.5945,4.5563,4.534,4.5394,4.5389,4.5065,4.3793,4.2659,4.1859,4.1713,4.1103,4.0506,4.0246,3.9599,3.8659,3.7201,3.6836,3.6237,3.4911,3.4643,3.4562,3.4259,3.3782,3.3416,3.3402,3.3275,3.319,5.394,5.328,5.4069,5.3476,5.2054,5.2054,5.2036,5.1982,5.1166,5.041,4.9568,4.7583,4.6272,4.5485,4.5124,4.503,4.5118,4.4656,4.4345,4.4125,4.3273,4.2846,4.2807,4.2379,4.2324,4.2542,4.2304,4.2203,4.2144,4.1599,4.1468,4.1771,4.1468,4.0755,3.9692,3.9634,3.8883,3.732,3.728,3.706,3.6648,3.7459,3.8058,3.8379,3.8045,3.7928,3.8158,3.721,3.6446,3.59,3.5621,3.5559,3.5774,3.5462,3.537,0.0,0.0,0.0,0.0,0.0,0.0,0.0,0.0,0.0,0.0,0.0,3.9957,3.9481,3.9835,4.0704,4.2186,4.1952,4.2088,4.2946,4.3076,4.3177,4.3245,4.3297,4.3515,4.3893,4.4316,4.4767,4.5162,4.5838,4.6447,4.6887,4.7119,4.704,4.6383,4.5745,4.5211,4.5227,4.5088,4.455,4.3203,4.2345,4.1771,4.1587,4.1127,4.0726,4.0619,3.995,3.9057,3.7971,3.7454,3.6893,3.5834,3.5608,3.5608,3.5625,3.54,3.4927,3.4394,3.4293,3.4308,5.4004,5.3431,5.4049,5.3844,5.3125,5.3062,5.3059,5.2986,5.2068,5.1242,5.0362,4.8195,4.7259,4.7204,4.6526,4.5916,4.5413,4.5131,4.4393,4.3269,4.3062,4.2916,4.2807,4.2807,4.3032,4.348,4.3014,4.2789,4.277,4.2203,4.1958,4.2021,4.194,4.1916,4.1916,4.1982,4.0766,3.8325,3.8244,3.821,3.8131,3.8295,3.8676,3.917,3.8584,3.8391,3.8695,3.8334,3.7946,3.7654,3.7922,3.8334,3.8786,3.8198,3.838,0.0,3.899,0.0,0.0,0.0,0.0,0.0,0.0,0.0,0.0,4.0168,4.021,4.0996,4.1047,4.1599,4.2935,4.3596,4.3992,4.4161,4.4745,4.498,4.4545,4.454,4.454,4.4584,4.4518,4.4429,4.4327,4.4959,4.5415,4.5618,4.608,4.6324,4.6195,4.5277,4.464,4.4345,4.3894,4.3566,4.2737,4.2194,4.1722,4.1124,4.0873,4.0709,4.0538,3.9933,3.927,3.8575,3.7958,3.7341,3.6755,3.6631,3.6693,3.68,3.6784,3.643,3.5482,3.519,3.5172,5.4388,5.4242,5.4,5.3441,5.2679,5.2364,5.2234,5.2123,5.0694,4.9554,4.8765,4.8288,4.8086,4.8067,4.7921,4.779,4.7658,4.6965,4.6176,4.5294,4.4638,4.3961,4.3375,4.3357,4.341,4.3479,4.341,4.3357,4.3321,4.2771,4.277,4.3142,4.2733,4.2519,4.2539,0.0,0.0,0.0,4.0176,3.9877,3.9356,4.0475,4.084,4.0408,4.0182,0.0,3.9365,3.9247,3.8895,3.8292,3.8904,0.0,0.0,0.0,0.0,0.0,0.0,0.0,0.0,0.0,0.0,0.0,4.1846,4.1396,4.0491,4.1216,4.2119,4.2886,4.2977,4.3086,4.3342,4.3133,4.3238,4.3809,4.3588,4.3819,4.4853,4.464,4.4397,4.4414,4.3968,4.3403,4.2956,4.3386,4.4079,4.4654,4.4936,4.497,4.4961,4.5567,4.619,4.6176,4.4759,4.4007,4.4005,4.2654,4.1764,4.1705,4.1083,4.0605,4.0461,3.9958,3.9251,3.856,3.8309,3.8025,3.7561,3.7464,3.7508,3.7653,3.7682,3.7431,3.6677,3.6508,3.6508,5.4503,0.0,5.4238,5.3667,0.0,5.2245,5.1766,5.1266,5.0099,4.9095,4.8324,4.8324,4.8324,4.8324,4.8324,4.8086,4.7645,4.6856,4.6085,4.5278,4.4488,4.3883,4.3479,4.3479,4.3479,4.3479,4.3479,4.3479,4.3479,4.3232,4.3232,4.3479,4.3232,4.3087,4.3105,4.3375,4.2905,4.1712,4.141,4.1052,4.0737,4.1424,4.1637,4.1268,4.0855,0.0,0.0,0.0,0.0,0.0,0.0,0.0,0.0,4.0908,0.0,4.1504,4.1522,4.1633,4.1849,4.2267,4.2611,4.2875,4.2873,4.244,4.1356,4.2277,4.3057,4.3442,4.3479,4.368,4.4048,4.3834,4.3997,4.4686,4.4306,4.4278,4.487,4.4553,4.4152,4.4176,4.3902,4.3465,4.2826,4.3031,4.331,4.3451,4.3481,4.3498,4.3565,4.4401,4.4953,4.4456,4.4031,4.3519,4.3372,4.2623,4.1803,4.1816,4.113,4.0543,4.0448,3.9888,3.9312,3.8944,3.8683,3.8402,3.8216,3.8205,3.8274,3.8427,3.8495,3.8495,3.8137,3.7793,3.7519,5.4701,5.472,5.4625,5.4012,5.3033,5.2307,5.1428,5.0448,0.0,0.0,0.0,4.8324,4.8344,4.8383,4.8197,4.7756,4.7151,4.614,4.5351,4.4672,4.3864,4.3479,4.3479,4.3479,4.3479,4.3479,4.3479,4.3479,4.3479,4.3479,4.3479,4.3479,4.3479,4.3479,4.3479,4.3479,4.3286,4.2845,4.2344,4.2103,4.2103,4.2103,4.2103,4.2103,4.1375,4.1162,4.1523,4.0611,4.0251,4.0637,4.0988,4.1398,4.185,4.2466,4.3032,4.3444,4.3479,4.3479,4.3479,4.3479,4.3479,4.3479,4.3479,4.3204,4.2543,4.313,4.3479,4.3479,4.3479,4.3754,4.4397,4.447,4.4745,4.5406,4.5035,4.4744,4.4867,4.4353,4.3984,4.3984,4.3832,4.3557,4.2984,4.3034,4.2985,4.2586,4.2723,4.2457,4.237,4.2908,4.3084,4.2427,4.2618,4.2712,4.2353,4.2074,4.1894,4.1759,4.0994,4.042,4.0307,3.9832,3.941,3.9312,3.8982,3.8788,3.8777,3.8871,3.9007,3.9185,3.9302,3.9435,3.947,3.9055,3.8601,5.5504,5.5501,5.516,5.4126,5.2646,5.2195,5.1107,4.9634,4.9216,4.8733,4.8324,4.8324,4.8495,4.8759,4.7739,4.7389,4.7495,4.5712,4.4801,4.4672,4.3864,4.3479,4.3479,4.3479,4.3479,4.3479,4.3496,4.3479,4.3479,4.3515,4.3479,4.3479,4.3479,4.3479,4.3479,4.3479,4.348,4.3392,4.3322,4.3249,4.3249,4.3249,4.3249,4.3231,4.2483,4.2097,4.2166,4.2005,4.195,4.202,4.2717,4.3156,4.3227,4.3319,4.3427,4.3479,4.3479,4.3479,4.3479,4.3479,4.3479,4.3479,4.3479,4.3442,4.3332,4.3441,4.3479,4.3479,4.3479,4.3551,4.368,4.3699,4.3773,4.3882,4.3794,4.3979,4.462,4.4186,4.385,4.389,4.338,4.2815,4.2321,4.2595,4.2921,4.2896,4.3028,4.3296,4.241,4.2313,4.2398,4.2274,4.2217,4.2219,4.2082,4.1844,4.1687,4.1647,4.0905,4.0309,4.0326,3.9765,3.9335,3.9253,3.9224,3.9249,3.9478,3.9556,3.9687,3.985,4.002,4.0121,4.0171,4.022,4.0186,5.5299,5.5538,5.4522,5.3641,5.2855,5.1766,5.0736,4.9832,4.9631,4.9326,4.8982,4.8947,4.9062,4.9127,4.8151,4.7794,4.7905,4.6115,4.5295,4.5239,4.4468,4.4095,4.4095,4.4095,4.3992,4.3788,4.3989,4.3884,4.3548,4.3677,4.3679,4.3513,4.3479,4.3479,4.3479,4.3479,4.3479,4.3479,4.3479,4.3479,4.3479,4.3479,4.3479,4.3479,4.3147,4.2947,4.2947,4.2947,4.2947,4.2947,4.3313,4.3479,4.3479,4.3479,4.3479,4.3479,4.3479,4.3479,4.3479,4.3479,4.3479,4.3479,4.3479,4.3479,4.3479,4.3479,4.3479,4.3479,4.3479,4.3479,4.3479,4.3479,4.3479,4.3479,4.3479,4.3644,4.3939,4.3816,4.3652,4.3652,4.341,4.2978,4.2358,4.2586,4.2638,4.2424,4.2652,4.256,4.2033,4.1986,4.1843,4.1452,4.1545,4.1747,4.1807,4.1659,4.1483,4.1419,4.0728,4.0239,4.0172,3.9863,3.9746,3.9696,3.9747,3.9893,4.0113,4.0213,4.0337,4.0468,4.0669,4.0765,4.0836,4.11,4.1151,5.4799,5.5549,5.4107,5.3376,5.3049,5.1395,5.0523,5.0249,5.0218,5.0056,4.9773,4.9608,4.9547,4.9523,4.8438,4.7985,4.7826,4.6291,4.5515,4.5472,4.49,4.4593,4.4593,4.4593,4.4447,4.4209,4.446,4.4294,4.3839,4.402,4.402,4.3775,4.3742,4.3712,4.3595,4.3614,4.3563,4.3496,4.3479,4.3479,4.3479,4.3479,4.3479,4.3479,4.3479,4.3479,4.3496,4.3582,4.3614,4.3612,4.3677,4.3761,4.3742,4.3761,4.3761,4.3742,4.3761,4.3712,4.3612,4.3531,4.3479,4.3479,4.3479,4.3479,4.3479,4.3479,4.3479,4.3479,4.3479,4.3479,4.3479,4.3479,4.3479,4.3479,4.3479,4.3497,4.3497,4.3479,4.3479,4.3479,4.3479,4.334,4.2995,4.2883,4.275,4.24,4.2083,4.2,4.2,4.1916,4.1481,4.114,4.1143,4.137,4.1488,4.1364,4.1239,4.1112,4.0696,4.0407,4.0322,4.0288,4.0271,4.0288,4.0337,4.0461,4.0631,4.0728,4.0847,4.0995,4.1186,4.1373,4.1529,4.177,4.1895,5.426,5.5472,5.4684,5.3914,5.2972,5.1375,5.0673,5.0624,5.0634,5.0624,5.0425,4.9813,4.9714,4.9733,4.8026,4.7378,4.7517,4.5616,4.4794,4.4845,4.4649,4.4593,4.4669,4.4637,4.4599,4.4553,4.4606,4.458,4.4433,4.4501,4.4533,4.4519,4.4501,4.429,4.4001,4.3955,4.3802,4.3532,4.3479,4.3479,4.3479,4.3479,4.3479,4.3479,4.3515,4.3479,4.3549,4.3807,4.3955,4.3986,4.4294,4.4487,4.4474,4.4487,4.4487,4.4474,4.4474,4.435,4.3986,4.3679,4.3531,4.3479,4.3531,4.3531,4.3513,4.3496,4.3496,4.3479,4.3479,4.3479,4.3479,4.3479,4.3479,4.3479,4.3479,4.3479,4.3479,4.3479,4.3479,4.3479,4.3479,4.348,4.3375,4.3357,4.3339,4.3196,4.2828,4.2598,4.2578,4.2244,4.1955,4.1756,4.1577,4.1365,4.1296,4.1092,4.1054,4.0995,4.0885,4.0799,4.0758,4.0799,4.084,4.0776,4.0823,4.0918,4.1065,4.1163,4.1272,4.1498,4.1719,4.1941,4.2313,4.2472,4.2353,5.4645,5.5491,5.3722,5.2472,5.1645,5.0971,5.0683,5.0683,5.0683,5.0414,4.999,5.0117,5.0046,4.9608,4.8245,4.775,4.7825,4.7031,4.6653,4.6615,4.6194,4.5965,4.5927,4.5411,4.5096,4.4931,4.5096,4.4988,4.4657,4.4593,4.4593,4.4593,4.4593,4.4514,4.4378,4.4346,4.428,4.4169,4.4154,4.4154,4.4095,4.3712,4.3479,4.3513,4.3677,4.3788,4.3818,4.415,4.4346,4.4378,4.4533,4.4593,4.4593,4.4593,4.4593,4.4593,4.4593,4.4527,4.4359,4.4223,4.4136,4.4154,4.4154,4.4065,4.382,4.3804,4.3726,4.3531,4.3479,4.3479,4.3496,4.3479,4.3479,4.3479,4.3479,4.3479,4.3479,4.3479,4.3479,4.3479,4.3479,4.3479,4.3479,4.3479,4.3479,4.3479,4.3268,4.3142,4.3142,4.2958,4.277,4.2613,4.2398,4.2032,4.1657,4.1426,4.129,4.1221,4.1198,4.1175,4.1129,4.1152,4.1198,4.1198,4.1267,4.1358,4.1538,4.1591,4.1701,4.1956,4.221,4.2456,4.2686,4.2746,4.2689,5.4626,5.4991,5.3126,5.1914,5.1356,5.0885,5.0683,5.0683,5.0683,5.0356,4.9817,5.0192,4.999,4.9356,4.8721,4.8355,4.8115,4.8096,4.7971,4.7778,4.7375,4.7212,4.7163,4.6605,4.6148,4.5963,4.5956,4.5706,4.5261,4.5226,4.534,4.5511,4.5549,4.5399,4.5104,4.5073,4.489,4.4612,4.4593,4.4593,4.4514,4.408,4.3825,4.3823,4.405,4.4161,4.4175,4.4521,4.4732,4.4751,4.4818,4.4884,4.4865,4.4884,4.4884,4.4853,4.48,4.4732,4.4732,4.4644,4.4593,4.4593,4.4593,4.4474,4.4233,4.4161,4.4061,4.3868,4.3712,4.3631,4.3496,4.3479,4.3479,4.3479,4.3479,4.3479,4.3479,4.3479,4.3479,4.3479,4.3479,4.3479,4.3479,4.3479,4.3479,4.3479,4.3479,4.3479,4.3479,4.3444,4.3375,4.316,4.3012,4.2688,4.2079,4.1823,4.1692,4.1622,4.1577,4.1538,4.1448,4.1515,4.1577,4.16,4.167,4.1801,4.1931,4.1998,4.2148,4.2394,4.2593,4.2768,4.2879,4.2918,4.2956,5.378,5.4357,5.351,5.2972,5.2933,5.1356,5.0683,5.0683,5.0683,5.0654,5.0404,4.9856,4.9471,4.9413,4.9336,4.8913,4.8202,4.8221,4.7913,4.7375,4.7798,4.8048,4.8048,4.8009,4.7923,4.7655,4.7097,4.6809,4.6762,4.6781,4.7203,4.7828,4.7742,4.7278,4.6369,4.6172,4.5672,4.4865,4.4707,4.4631,4.4618,4.458,4.454,4.4553,4.4567,4.4567,4.4606,4.4896,4.5074,4.5085,4.5352,4.5522,4.5531,4.5522,4.5513,4.5475,4.5243,4.5085,4.5041,4.4825,4.4644,4.4631,4.4682,4.4606,4.458,4.4567,4.4527,4.4514,4.4165,4.3865,4.3631,4.3531,4.3513,4.3531,4.3515,4.3479,4.3479,4.3479,4.3479,4.3479,4.3479,4.3479,4.3479,4.3479,4.3479,4.3479,4.3479,4.3479,4.3479,4.3479,4.3375,4.3196,4.3086,4.2917,4.2389,4.2166,4.2076,4.197,4.1905,4.1923,4.1962,4.1962,4.1962,4.1987,4.2076,4.2163,4.2287,4.2432,4.2593,4.2767,4.2823,4.2936,4.303,4.3067,4.3049,5.3568,5.2827,5.25,5.2087,5.1548,5.0943,5.0683,5.0683,5.0683,5.0385,4.9971,5.0087,4.9913,4.9413,4.999,4.976,4.9029,4.949,4.9586,4.9317,4.9067,4.8933,4.8875,4.8375,4.8096,4.8048,4.7817,4.7673,4.7682,4.7682,4.7798,4.8019,4.8096,4.7838,4.7424,4.6935,4.6444,4.6056,4.5548,4.5223,4.5213,4.5243,4.5243,4.5213,4.5022,4.4919,4.4919,4.5243,4.5419,4.5419,4.5531,4.5594,4.5594,4.5594,4.5594,4.5586,4.5495,4.5419,4.5391,4.5303,4.5243,4.5243,4.5223,4.511,4.4985,4.4908,4.4837,4.4631,4.4482,4.4323,4.4136,4.3791,4.3597,4.3758,4.3629,4.3496,4.3479,4.3479,4.3479,4.3479,4.3479,4.3479,4.3479,4.3479,4.3479,4.3479,4.3479,4.3479,4.3479,4.3479,4.3445,4.3323,4.3215,4.305,4.2767,4.2532,4.2389,4.2267,4.2202,4.2142,4.2139,4.2222,4.2225,4.2284,4.2369,4.251,4.2629,4.2767,4.2957,4.3068,4.3123,4.3049,4.3178,4.3105,4.3049,5.3145,5.2346,5.2019,5.1587,5.1048,5.0519,5.0289,5.0269,5.0279,4.9962,4.9625,5.0317,5.0366,4.9971,5.0462,5.0423,4.9923,5.0414,5.0567,5.0279,4.9971,4.9817,4.9721,4.9221,4.8952,4.8894,4.8625,4.8529,4.8529,4.8529,4.8663,4.8933,4.8933,4.8779,4.8471,4.7971,4.7528,4.6932,4.6317,4.5913,4.5671,4.5594,4.5594,4.5568,4.539,4.5272,4.5263,4.5485,4.5594,4.5594,4.5594,4.5594,4.5594,4.5594,4.5594,4.5594,4.5594,4.5594,4.5594,4.5594,4.5586,4.5594,4.5586,4.5495,4.5273,4.5272,4.5159,4.4966,4.4812,4.4788,4.4757,4.4294,4.3915,4.3971,4.3788,4.3595,4.3513,4.3479,4.3479,4.3479,4.3479,4.3479,4.3479,4.3479,4.3479,4.3479,4.3479,4.3479,4.3479,4.3479,4.348,4.3412,4.3287,4.3142,4.2956,4.2785,4.2609,4.249,4.2409,4.2351,4.2351,4.2432,4.2492,4.257,4.2668,4.2823,4.2975,4.3105,4.3233,4.3341,4.3233,4.3105,4.3123,4.305,4.2975,5.2396,5.2858,5.2251,5.1809,5.152,5.0181,4.9461,4.9536,4.948,4.9518,4.9537,5.0269,5.0558,5.0635,5.0539,5.0616,5.0616,5.0654,5.0327,4.974,5.0308,5.0596,5.0558,5.0471,5.0423,5.0394,4.9779,4.9433,4.9394,4.9433,4.976,5.0462,5.0452,5.0029,4.9413,4.9183,4.849,4.7394,4.6932,4.6451,4.5729,4.5633,4.5594,4.5594,4.5577,4.5559,4.5568,4.5605,4.5594,4.5594,4.5594,4.5594,4.5594,4.5594,4.5594,4.5594,4.5594,4.5594,4.5594,4.5594,4.5594,4.5594,4.5594,4.5586,4.554,4.5531,4.5522,4.5448,4.5292,4.5211,4.5362,4.4977,4.4474,4.4106,4.4031,4.3836,4.3646,4.3531,4.3496,4.3531,4.3531,4.3496,4.3479,4.3479,4.3479,4.3479,4.3479,4.3479,4.3479,4.3479,4.3463,4.3411,4.3323,4.3196,4.3087,4.2975,4.2823,4.267,4.2611,4.2571,4.2589,4.2629,4.2707,4.2765,4.2899,4.305,4.3196,4.3304,4.3251,4.3305,4.3196,4.3123,4.3068,4.3012,4.2899,5.1509,5.1722,5.147,5.1334,5.1218,5.0151,4.9679,4.9666,4.9574,4.9536,4.957,4.9738,5.0135,5.0462,5.0096,5.0135,5.0673,5.0693,5.0539,5.0385,5.0577,5.0683,5.0683,5.0683,5.0683,5.0654,5.0442,5.0289,5.0269,5.0269,5.0452,5.0644,5.0702,5.0577,5.0279,4.9711,4.9029,4.8586,4.7471,4.6759,4.6451,4.5902,4.5614,4.5594,4.5594,4.5594,4.5594,4.5594,4.5594,4.5594,4.5594,4.5594,4.5594,4.5594,4.5594,4.5594,4.5594,4.5594,4.5594,4.5614,4.5633,4.5594,4.5594,4.5594,4.5594,4.5594,4.5594,4.5594,4.5504,4.5504,4.5541,4.5438,4.5099,4.4793,4.4299,4.4121,4.4169,4.3986,4.3865,4.382,4.3646,4.3513,4.3479,4.3479,4.3479,4.3479,4.3479,4.3479,4.3479,4.3479,4.3479,4.3463,4.3358,4.3269,4.3178,4.3105,4.2993,4.288,4.2805,4.2786,4.2785,4.2841,4.2918,4.3012,4.3123,4.3233,4.3411,4.3446,4.3358,4.3305,4.3251,4.316,4.3067,4.2955,4.286,5.1094,5.1094,5.1094,5.1094,5.0996,5.0179,4.9805,4.9776,4.9695,4.9666,4.9692,4.9892,5.0224,5.0573,5.0134,5.0212,5.0664,5.0683,5.074,5.0757,5.0712,5.0693,5.0683,5.0683,5.0683,5.0683,5.0683,5.0683,5.0683,5.0702,5.0856,5.1068,5.0846,5.0856,5.101,5.0308,4.9797,4.9358,4.8458,4.7758,4.7448,4.6948,4.666,4.6603,4.6606,4.6585,4.6527,4.6259,4.5932,4.5671,4.5594,4.5594,4.5594,4.5594,4.5594,4.5652,4.5883,4.596,4.571,4.5932,4.5922,4.5691,4.5594,4.5594,4.5594,4.5594,4.5594,4.5594,4.5586,4.5594,4.5594,4.5586,4.5475,4.5293,4.4775,4.4495,4.4567,4.4392,4.415,4.4016,4.382,4.3644,4.3529,4.3479,4.3479,4.3479,4.3479,4.3479,4.3479,4.3479,4.3479,4.348,4.3429,4.3358,4.3286,4.3215,4.316,4.3086,4.3012,4.2994,4.2993,4.3031,4.3105,4.3196,4.3305,4.3358,4.348,4.348,4.3445,4.3375,4.3251,4.3142,4.303,4.2899,4.2803,5.1117,5.1113,5.1117,5.1131,5.1018,5.0209,4.9866,4.9831,4.9813,4.9809,4.9936,5.0345,5.0768,5.0847,5.0554,5.0524,5.073,5.0757,5.0814,5.0848,5.0795,5.0747,5.0775,5.0874,5.0894,5.074,5.0914,5.0866,5.0731,5.0837,5.1145,5.1713,5.1231,5.1164,5.1605,5.1135,5.0477,4.9863,4.9574,4.911,4.8555,4.8389,4.8286,4.8146,4.8087,4.8017,4.7776,4.7278,4.6567,4.5825,4.5787,4.5806,4.571,4.5652,4.5594,4.5787,4.649,4.6451,4.6124,4.6567,4.6624,4.5902,4.5825,4.5633,4.5633,4.5594,4.5594,4.5594,4.5594,4.5594,4.5594,4.5594,4.5577,4.5568,4.5253,4.4977,4.4701,4.4618,4.4514,4.4204,4.4061,4.3896,4.3597,4.3529,4.3479,4.3479,4.3479,4.3479,4.3479,4.3479,4.3479,4.348,4.3446,4.3411,4.3358,4.3305,4.3251,4.3251,4.316,4.3142,4.316,4.3196,4.3251,4.3358,4.3429,4.3463,4.3479,4.3497,4.341,4.3286,4.3196,4.3087,4.2975,4.2842,4.2745,5.1315,5.1315,5.1315,5.1315,5.1217,5.0437,5.0098,5.0082,5.0006,5.0004,5.0004,5.0038,5.0537,5.0934,5.0361,5.0363,5.0843,5.0979,5.101,5.1045,5.1022,5.0997,5.114,5.1494,5.1423,5.1117,5.1904,5.1895,5.0846,5.1356,5.1769,5.202,5.1923,5.1911,5.2104,5.1994,5.1468,5.0706,5.0037,4.9707,4.9434,4.8887,4.8437,4.8328,4.8392,4.8311,4.8133,4.7913,4.7413,4.6663,4.6567,4.6547,4.649,4.6028,4.597,4.6528,4.6797,4.7124,4.7394,4.7625,4.7394,4.6682,4.6567,4.6259,4.5633,4.5614,4.5594,4.5594,4.5594,4.5594,4.5594,4.5633,4.5633,4.5586,4.5533,4.5361,4.5063,4.4973,4.4919,4.4793,4.4359,4.4061,4.3881,4.366,4.3531,4.3531,4.3496,4.3479,4.3479,4.3479,4.3479,4.3479,4.348,4.3446,4.3411,4.3376,4.3359,4.3359,4.3323,4.3269,4.3287,4.3269,4.3358,4.3445,4.3445,4.3479,4.348,4.3481,4.334,4.3233,4.316,4.3086,4.2919,4.2786,4.2688,5.1387,5.1387,5.1387,5.1387,5.1348,5.0918,5.0703,5.0683,5.0638,5.0589,5.0561,5.0433,5.0665,5.1047,5.0596,5.0612,5.1055,5.1094,5.1122,5.1156,5.1206,5.1374,5.1648,5.2045,5.2078,5.2089,5.284,5.2646,5.2021,5.229,5.2721,5.3104,5.2887,5.2955,5.3374,5.2582,5.2124,5.1608,5.0844,5.041,5.0427,5.0374,5.0001,4.978,4.9785,4.9761,4.8968,4.9035,4.8663,4.774,4.7404,4.7404,4.7365,4.6951,4.6894,4.7413,4.7702,4.8058,4.8105,4.8394,4.8259,4.7596,4.7404,4.6971,4.6394,4.6144,4.6086,4.5652,4.5614,4.5594,4.5671,4.5913,4.5941,4.5729,4.5922,4.5897,4.5399,4.5312,4.5232,4.5052,4.4757,4.4382,4.4276,4.3927,4.374,4.3677,4.3599,4.3531,4.3479,4.3479,4.3479,4.3479,4.3479,4.3463,4.3445,4.3428,4.341,4.3429,4.3411,4.3375,4.3375,4.3375,4.3428,4.348,4.3479,4.3479,4.348,4.3446,4.3358,4.3251,4.316,4.3067,4.29,4.2767,4.2668,5.1328,5.1387,5.1387,5.1387,5.1387,5.1387,5.1308,5.1367,5.1308,5.1308,5.1289,5.1229,5.1154,5.1208,5.1067,5.1124,5.1144,5.1168,5.1184,5.1252,5.1373,5.1657,5.2232,5.248,5.2793,5.3201,5.3468,5.3403,5.3157,5.3293,5.3906,5.4213,5.3947,5.4188,5.4309,5.3323,5.2597,5.2277,5.1525,5.1288,5.1523,5.1914,5.1878,5.1617,5.1934,5.1434,5.0498,5.0345,5.0086,4.8452,4.8298,4.824,4.8221,4.8182,4.8144,4.8298,4.8759,4.8952,4.8682,4.9202,4.9163,4.8452,4.824,4.7865,4.7201,4.6874,4.6528,4.5951,4.5671,4.5691,4.5979,4.6528,4.6682,4.6336,4.6644,4.6432,4.5951,4.5652,4.5466,4.5182,4.5129,4.4931,4.467,4.4304,4.4001,4.3833,4.3712,4.3531,4.3479,4.3479,4.3479,4.3479,4.3479,4.3479,4.3479,4.3479,4.3462,4.348,4.348,4.3463,4.3463,4.3444,4.3462,4.3479,4.3479,4.3479,4.3479,4.3428,4.3322,4.3214,4.3123,4.3031,4.2919,4.2804,4.2686,5.082,5.1387,5.1387,5.1387,5.1387,5.1387,5.1387,5.1387,5.1387,5.1387,5.1387,5.1367,5.1348,5.1367,5.1328,5.1339,5.1328,5.1328,5.1342,5.1364,5.1367,5.1894,5.2578,5.3058,5.3394,5.3812,5.4723,5.4467,5.3745,5.4108,5.4574,5.4803,5.4921,5.4918,5.5004,5.4219,5.3262,5.2656,5.1875,5.1855,5.2363,5.2676,5.2984,5.3106,5.3279,5.2732,5.1877,5.1718,5.1258,5.0287,4.9529,4.9202,4.9029,4.8548,4.8567,4.9029,4.9279,4.9606,5.001,5.0144,5.0048,4.926,4.9086,4.8759,4.7913,4.7298,4.6932,4.649,4.6047,4.6075,4.6586,4.7355,4.7567,4.7413,4.7115,4.6865,4.6547,4.599,4.5598,4.5467,4.5272,4.5074,4.4966,4.4382,4.4117,4.3986,4.3772,4.3529,4.3479,4.3479,4.3479,4.3479,4.3479,4.3479,4.3479,4.3479,4.3479,4.3479,4.3479,4.3479,4.3479,4.3479,4.3479,4.3479,4.3479,4.3479,4.3479,4.3375,4.3269,4.3178,4.3068,4.2994,4.29,4.2785,4.2725,5.0449,5.0879,5.123,5.1191,5.0937,5.123,5.1387,5.1387,5.1387,5.1387,5.1387,5.1387,5.1387,5.1387,5.1387,5.1387,5.1387,5.1387,5.1387,5.1387,5.1445,5.2109,5.3144,5.3579,5.3851,5.4297,5.5238,5.5132,5.4858,5.5009,5.5483,5.5603,5.5706,5.5831,5.5781,5.5039,5.4433,5.3926,5.3086,5.2871,5.3262,5.373,5.4023,5.4236,5.3923,5.3164,5.2265,5.2036,5.1515,5.0914,5.0606,5.0356,5.0029,4.9586,4.9606,4.9904,5.001,5.0164,5.0596,5.0664,5.0471,5.0029,5.0019,4.949,4.8933,4.8279,4.7875,4.749,4.7124,4.7028,4.7451,4.8221,4.8529,4.8105,4.7731,4.7327,4.6855,4.6124,4.5594,4.5577,4.5438,4.5381,4.511,4.4606,4.4359,4.4276,4.3726,4.3479,4.3479,4.3479,4.3479,4.3479,4.3479,4.3479,4.3479,4.3479,4.3479,4.3479,4.3479,4.3479,4.3479,4.3479,4.3479,4.3479,4.3479,4.3479,4.3462,4.334,4.3251,4.3196,4.3105,4.2994,4.29,4.2842,4.2785,5.0,5.0058,5.0742,5.0683,5.0351,5.0918,5.1269,5.1387,5.1387,5.1387,5.1387,5.1387,5.1387,5.1387,5.1387,5.1387,5.1387,5.1387,5.1387,5.1387,5.1387,5.207,5.3066,5.3583,5.4024,5.4781,5.5572,5.5784,5.5867,5.6108,5.6109,5.6352,5.6497,5.6445,5.6348,5.5742,5.5137,5.4902,5.416,5.3945,5.4219,5.4805,5.5137,5.5239,5.4755,5.3828,5.3086,5.2643,5.2059,5.1212,5.1741,5.1587,5.1106,5.0875,5.076,5.0731,5.0567,5.0606,5.0654,5.0683,5.0664,5.0683,5.0673,5.0366,4.976,4.9317,4.8875,4.8548,4.8202,4.8202,4.8355,4.9086,4.9086,4.8548,4.824,4.7712,4.6962,4.6144,4.5671,4.5586,4.554,4.5504,4.5303,4.4916,4.4738,4.4487,4.3899,4.3479,4.3479,4.3479,4.3479,4.3479,4.3479,4.3479,4.3479,4.3479,4.3479,4.3479,4.3479,4.3479,4.3479,4.3479,4.3479,4.3479,4.3479,4.3479,4.348,4.3393,4.3304,4.3233,4.316,4.3087,4.2994,4.2899,4.288,4.9101,4.9121,4.9258,4.9629,5.0156,5.0371,5.084,5.1328,5.1387,5.1387,5.1387,5.1387,5.1328,5.1387,5.1387,5.1387,5.1367,5.1387,5.1387,5.1387,5.1406,5.1836,5.2285,5.338,5.3905,5.4339,5.5356,5.6136,5.6172,5.6301,5.6371,5.6424,5.6537,5.6601,5.6387,5.582,5.543,5.539,5.4726,5.459,5.5039,5.5273,5.5637,5.6001,5.5688,5.5093,5.4394,5.4161,5.3786,5.2925,5.2933,5.2491,5.1952,5.1741,5.1471,5.0952,5.0818,5.0875,5.0962,5.0846,5.075,5.0683,5.0856,5.0779,5.0394,4.9923,4.9567,4.9317,4.9183,4.9183,4.9221,4.9875,4.9933,4.9317,4.8471,4.7836,4.7048,4.622,4.5633,4.5594,4.5594,4.5577,4.5362,4.5088,4.4757,4.4406,4.3896,4.3563,4.3479,4.3479,4.3479,4.3479,4.3479,4.3479,4.3479,4.3479,4.3479,4.3479,4.3479,4.3479,4.3479,4.3479,4.3479,4.3479,4.3479,4.3479,4.3463,4.3446,4.3394,4.3304,4.3251,4.3196,4.3105,4.305,4.305,4.8223,4.832,4.918,4.9531,4.9687,5.0488,5.1035,5.1348,5.1387,5.1387,5.1269,5.1016,5.1035,5.1191,5.0918,5.0976,5.1308,5.1387,5.1387,5.1387,5.1406,5.1699,5.207,5.334,5.409,5.4787,5.5804,5.6368,5.6317,5.6368,5.6448,5.6512,5.6582,5.6621,5.6562,5.625,5.5976,5.582,5.5547,5.5469,5.5898,5.5874,5.6092,5.6164,5.6145,5.5637,5.4919,5.4617,5.413,5.3464,5.3626,5.3318,5.2972,5.2837,5.2645,5.1645,5.1356,5.1548,5.1875,5.1991,5.2049,5.201,5.1952,5.1741,5.1395,5.0971,5.0433,5.0144,5.0067,5.0067,5.0067,5.0471,5.0423,4.9971,4.8952,4.8048,4.7355,4.6336,4.5864,4.5633,4.5594,4.5549,4.5475,4.5131,4.4732,4.4308,4.3896,4.3677,4.3529,4.3479,4.3496,4.3479,4.3479,4.3479,4.3479,4.3479,4.3479,4.3479,4.3479,4.3479,4.3479,4.3479,4.3479,4.3479,4.3479,4.3479,4.3479,4.3463,4.3446,4.3394,4.3358,4.3305,4.3233,4.3196,4.3196,4.7437,4.742,4.8788,4.9081,4.8906,5.0039,5.0683,5.0898,5.1074,5.0976,5.084,5.0469,5.0469,5.0664,5.0586,5.0644,5.1348,5.1387,5.1387,5.1387,5.1406,5.1816,5.25,5.3516,5.4277,5.4765,5.6035,5.6543,5.6477,5.6454,5.6511,5.6562,5.6601,5.6621,5.6562,5.6504,5.6601,5.6621,5.6601,5.6582,5.6518,5.6426,5.6281,5.6164,5.5981,5.5517,5.4749,5.4824,5.4408,5.4059,5.4164,5.4337,5.376,5.4126,5.3818,5.2673,5.2288,5.2577,5.2895,5.3087,5.2933,5.2895,5.3106,5.2673,5.2019,5.1471,5.1221,5.0837,5.0644,5.0616,5.0548,5.0664,5.0558,5.0115,4.9163,4.8182,4.7548,4.674,4.5998,4.5768,4.5652,4.5587,4.5571,4.5273,4.4872,4.4606,4.4209,4.3849,4.3693,4.3512,4.3496,4.3479,4.3479,4.3479,4.3479,4.3479,4.3479,4.3479,4.3479,4.3479,4.3479,4.3479,4.3516,4.3589,4.3479,4.3479,4.3479,4.3516,4.3463,4.3446,4.3429,4.3411,4.3358,4.3322,4.3304,4.6869,4.6314,4.6528,4.7019,4.7754,4.8125,4.8574,4.9336,5.0058,4.9883,4.9453,4.9824,4.9726,4.9512,5.0117,5.0683,5.1152,5.1387,5.1387,5.1387,5.1406,5.1523,5.1914,5.3281,5.4062,5.4707,5.5937,5.6484,5.6562,5.6562,5.6582,5.6601,5.6621,5.6621,5.6621,5.6621,5.6621,5.6621,5.6601,5.6543,5.6397,5.6273,5.6127,5.5981,5.5849,5.5513,5.4892,5.51,5.504,5.4549,5.5088,5.5107,5.4549,5.4395,5.4453,5.401,5.3568,5.3087,5.3356,5.3491,5.351,5.3549,5.3433,5.2799,5.2154,5.1337,5.0894,5.076,5.0683,5.0683,5.0683,5.0683,5.0317,4.9933,4.9433,4.8394,4.7605,4.7413,4.6624,4.6163,4.6144,4.5893,4.5741,4.5379,4.503,4.4781,4.4508,4.418,4.3881,4.3724,4.3513,4.3496,4.3479,4.3479,4.3663,4.3626,4.3773,4.3681,4.3828,4.3828,4.3938,4.4048,4.3736,4.3754,4.3681,4.3773,4.3975,4.3938,4.3644,4.348,4.3463,4.3463,4.3462,4.3463,4.341,4.6169,4.6024,4.6514,4.6966,4.7428,4.7966,4.8423,4.8819,4.9238,4.9258,4.8887,4.8691,4.8476,4.8574,4.9961,5.0781,5.0859,5.1191,5.1387,5.1387,5.1426,5.1641,5.2363,5.3379,5.4141,5.4883,5.5859,5.6543,5.6621,5.6621,5.6621,5.6621,5.6621,5.6621,5.6621,5.6621,5.6621,5.6582,5.6504,5.6348,5.6168,5.6045,5.5963,5.5817,5.5789,5.5509,5.5341,5.5434,5.5568,5.5241,5.5607,5.5568,5.528,5.5184,5.5184,5.5145,5.4857,5.4645,5.4664,5.4568,5.4511,5.4568,5.4453,5.4087,5.2818,5.151,5.0721,5.0683,5.0683,5.0683,5.0683,5.0683,5.0519,5.0192,4.974,4.9163,4.8355,4.7855,4.7432,4.7009,4.6624,4.6451,4.6203,4.5783,4.5494,4.5182,4.4908,4.4587,4.4279,4.4016,4.3775,4.3515,4.3515,4.3479,4.3736,4.3901,4.4287,4.4415,4.4947,4.4911,4.4856,4.4764,4.447,4.4397,4.4525,4.4599,4.4635,4.4176,4.3718,4.3571,4.3479,4.3479,4.3479,4.3479,4.3463,4.5703,4.5903,4.6566,4.6853,4.6947,4.7684,4.7974,4.807,4.8369,4.8418,4.8105,4.7617,4.75,4.8203,4.9785,5.0527,5.0625,5.1133,5.1348,5.1387,5.1465,5.1738,5.2402,5.334,5.4316,5.5039,5.6035,5.6543,5.6621,5.6621,5.6621,5.6621,5.6621,5.6621,5.6621,5.6601,5.6582,5.6523,5.6416,5.6213,5.5969,5.5883,5.5808,5.5738,5.5684,5.5607,5.5453,5.5645,5.5684,5.5318,5.5588,5.5645,5.5588,5.5568,5.5588,5.5568,5.5434,5.5472,5.5453,5.5472,5.5684,5.5626,5.5395,5.4568,5.3626,5.2029,5.101,5.1106,5.077,5.075,5.0683,5.0683,5.0635,5.0442,5.0154,4.9788,4.9394,4.8817,4.8202,4.7644,4.7336,4.7278,4.6944,4.6377,4.598,4.5621,4.5293,4.5035,4.4815,4.4627,4.4169,4.3933,4.3989,4.3973,4.4103,4.4378,4.4727,4.5149,4.5663,4.581,4.5608,4.5443,4.5223,4.5241,4.5369,4.5314,4.5278,4.4507,4.3809,4.3864,4.3864,4.3571,4.3479,4.3479,4.3479,4.5612,4.5635,4.5833,4.5978,4.6026,4.6044,4.6219,4.6687,4.7286,4.7254,4.6894,4.6601,4.7539,4.8496,4.9141,5.0098,5.1172,5.1367,5.1387,5.1387,5.1426,5.1562,5.2246,5.3203,5.4141,5.4551,5.5801,5.6543,5.6621,5.6621,5.6621,5.6621,5.6621,5.6621,5.6621,5.6601,5.6504,5.6424,5.6305,5.6127,5.5915,5.5779,5.5707,5.5716,5.5645,5.5376,5.4722,5.5318,5.5491,5.4953,5.5395,5.5684,5.5684,5.5684,5.5684,5.5684,5.5684,5.5684,5.5684,5.5684,5.5684,5.5491,5.5107,5.4645,5.4145,5.276,5.1962,5.1683,5.1202,5.0894,5.0798,5.0721,5.0914,5.1048,5.0914,5.0471,5.0106,4.9644,4.9029,4.8355,4.8086,4.8048,4.7855,4.7338,4.6944,4.6617,4.643,4.6184,4.5855,4.5574,4.4841,4.4522,4.4621,4.465,4.4672,4.5021,4.5608,4.5938,4.6305,4.6305,4.614,4.5993,4.5938,4.6067,4.6159,4.6049,4.5902,4.5424,4.4966,4.4544,4.4232,4.3901,4.3589,4.3479,4.3479,4.5594,4.5603,4.5648,4.5688,4.5729,4.5814,4.6212,4.6784,4.7226,4.7327,4.707,4.7637,4.7656,4.7832,4.9141,4.9648,5.0058,5.1055,5.125,5.1387,5.1406,5.1719,5.2441,5.3242,5.4277,5.4863,5.5996,5.6601,5.6621,5.6621,5.6621,5.6621,5.6621,5.6621,5.6621,5.6601,5.6465,5.6328,5.6212,5.6058,5.5808,5.5739,5.5684,5.5684,5.5684,5.5588,5.5357,5.553,5.5453,5.5395,5.556,5.5645,5.5684,5.5684,5.5684,5.5684,5.5684,5.5684,5.5684,5.5684,5.5684,5.5549,5.5011,5.4511,5.4491,5.3356,5.2462,5.2019,5.1673,5.1452,5.1452,5.1491,5.1625,5.1895,5.176,5.1279,5.0952,5.0567,5.0164,4.9625,4.9163,4.8913,4.8644,4.8327,4.7971,4.7635,4.7491,4.7303,4.701,4.6638,4.5978,4.5443,4.5526,4.5303,4.5272,4.5882,4.6581,4.6782,4.6966,4.6985,4.6929,4.6746,4.6709,4.6874,4.6985,4.6948,4.6801,4.6544,4.5993,4.526,4.4672,4.4158,4.3864,4.3571,4.3479,4.5594,4.5594,4.5594,4.5594,4.5612,4.57,4.6119,4.6707,4.6847,4.7001,4.7203,4.777,4.7633,4.7359,4.8281,4.9258,4.9336,5.0254,5.0859,5.1094,5.1308,5.1758,5.2422,5.3144,5.3906,5.4941,5.5762,5.6211,5.6601,5.6601,5.6621,5.6621,5.6621,5.6621,5.6621,5.6601,5.6484,5.6317,5.6232,5.6084,5.5798,5.576,5.5717,5.5726,5.5684,5.5684,5.5607,5.5665,5.5665,5.5626,5.5684,5.5684,5.5684,5.5684,5.5684,5.5684,5.5684,5.5684,5.5684,5.5684,5.5684,5.5607,5.5299,5.4818,5.4395,5.3914,5.3299,5.2481,5.2308,5.2259,5.2249,5.2337,5.2404,5.2664,5.2549,5.2164,5.2087,5.1818,5.1414,5.0952,5.0529,5.0144,4.9683,4.9413,4.899,4.8817,4.8971,4.8672,4.8205,4.7804,4.7277,4.6811,4.6528,4.6192,4.589,4.6727,4.7443,4.748,4.7682,4.7902,4.7847,4.7608,4.7498,4.7608,4.7737,4.7829,4.7682,4.7388,4.6636,4.5792,4.5131,4.4452,4.4158,4.3883,4.3552,4.5594,4.5594,4.5594,4.5594,4.5594,4.5594,4.5762,4.6145,4.6181,4.6264,4.6418,4.652,4.6815,4.7147,4.7654,4.809,4.8787,4.9722,5.0351,5.0527,5.1133,5.1406,5.1816,5.248,5.3359,5.4082,5.5019,5.5918,5.6465,5.6562,5.6582,5.6621,5.6621,5.6621,5.6621,5.664,5.6562,5.6436,5.64,5.6305,5.6106,5.6051,5.6029,5.5948,5.5915,5.5953,5.5703,5.5703,5.5684,5.5684,5.5684,5.5684,5.5684,5.5684,5.5684,5.5684,5.5684,5.5684,5.5684,5.5684,5.5684,5.5684,5.5434,5.522,5.4712,5.4374,5.3953,5.3016,5.2957,5.302,5.3093,5.3152,5.3198,5.3381,5.3294,5.3164,5.3087,5.2741,5.2241,5.1972,5.1837,5.1587,5.101,5.0519,5.0058,4.9971,5.0298,5.0038,4.9364,4.8984,4.8491,4.796,4.7579,4.7457,4.7298,4.7813,4.8251,4.8288,4.8471,4.8765,4.8691,4.8398,4.8361,4.8398,4.8213,4.8086,4.8177,4.8233,4.7443,4.6636,4.548,4.4782,4.4488,4.4342,4.4213,4.5594,4.5594,4.5594,4.5594,4.5594,4.5594,4.5978,4.6707,4.7229,4.73,4.6882,4.6816,4.6539,4.666,4.7018,4.747,4.8045,4.9499,5.0105,5.0312,5.1035,5.1308,5.1641,5.2168,5.2832,5.3457,5.4433,5.5293,5.5723,5.6191,5.6543,5.6621,5.6621,5.6621,5.6797,5.6973,5.7207,5.6675,5.6865,5.7122,5.6812,5.6748,5.6692,5.6543,5.6492,5.6242,5.5799,5.578,5.5761,5.5857,5.5895,5.5799,5.5799,5.5818,5.578,5.5742,5.5703,5.5684,5.5684,5.5684,5.5684,5.5684,5.5624,5.5401,5.4973,5.4905,5.4282,5.3566,5.3318,5.3272,5.3176,5.3468,5.3715,5.4317,5.4338,5.4131,5.3914,5.3356,5.2895,5.2818,5.2722,5.2269,5.1779,5.1337,5.0894,5.0664,5.0894,5.0663,5.0075,5.0018,4.9723,4.9046,4.8624,4.8623,4.8727,4.8993,4.9354,4.9536,4.9646,4.9829,4.9627,4.9224,4.8912,4.8802,4.8545,4.8324,4.8324,4.8306,4.8214,4.7535,4.6434,4.5626,4.5406,4.5369,4.5351,4.5594,4.5594,4.5594,4.5594,4.5594,4.5594,4.6004,4.6639,4.7259,4.7227,4.6756,4.6678,4.6425,4.6168,4.6435,4.706,4.746,4.8821,4.998,5.0215,5.1016,5.1308,5.1621,5.1973,5.2383,5.293,5.3691,5.4551,5.5371,5.5879,5.6289,5.6523,5.6601,5.6621,5.6855,5.7226,5.7401,5.7055,5.7338,5.7866,5.7546,5.7397,5.7448,5.7118,5.6887,5.6733,5.6222,5.5992,5.5992,5.6261,5.6338,5.6195,5.6195,5.6395,5.6376,5.6291,5.6156,5.6175,5.6203,5.5761,5.5742,5.5684,5.5588,5.5202,5.4859,5.4689,5.4183,5.3649,5.3494,5.3569,5.3632,5.3931,5.4201,5.4792,5.4874,5.4641,5.4701,5.4163,5.3895,5.3799,5.351,5.3029,5.2519,5.2106,5.1702,5.1529,5.1414,5.1075,5.0813,5.0781,5.0687,5.0082,4.9755,4.9843,4.987,4.9917,5.0295,5.073,5.0765,5.0729,5.0417,4.9976,4.9591,4.926,4.9132,4.8912,4.8453,4.8306,4.8379,4.8177,4.7498,4.6856,4.6416,4.6232,4.614,4.5575,4.5594,4.5594,4.5594,4.5594,4.5594,4.5642,4.564,4.5817,4.5893,4.5835,4.5912,4.5848,4.5815,4.5854,4.6391,4.7283,4.8343,4.9296,5.0195,5.1016,5.125,5.1387,5.1523,5.1953,5.2402,5.3008,5.3848,5.5019,5.5234,5.5664,5.6289,5.6328,5.6445,5.6777,5.7305,5.7324,5.7187,5.7988,5.8262,5.7948,5.8311,5.8056,5.7641,5.7242,5.7099,5.6695,5.6349,5.6857,5.7242,5.7453,5.7176,5.7291,5.7838,5.7599,5.7311,5.706,5.7022,5.6753,5.6165,5.5972,5.5921,5.5401,5.4734,5.4376,5.4394,5.405,5.3727,5.3575,5.3956,5.4258,5.4333,5.4408,5.4752,5.4977,5.5122,5.5381,5.5218,5.5,5.4761,5.4414,5.3953,5.3376,5.2933,5.2491,5.2299,5.2075,5.166,5.1419,5.1391,5.1275,5.096,5.0811,5.1085,5.1102,5.0931,5.1178,5.161,5.1444,5.1353,5.1041,5.0784,5.0472,5.016,4.9904,4.9629,4.9315,4.8985,4.8728,4.8471,4.8563,4.7921,4.7443,4.6819,4.6617,4.5037,4.5575,4.5594,4.5594,4.5594,4.5594,4.5594,4.5612,4.5651,4.5648,4.5668,4.5648,4.5673,4.5648,4.5676,4.6319,4.7237,4.8183,4.9183,5.0117,5.1055,5.1289,5.1387,5.1426,5.1621,5.1914,5.2402,5.293,5.3516,5.4004,5.4883,5.5527,5.5781,5.6035,5.666,5.7441,5.709,5.7226,5.8281,5.8555,5.8603,5.897,5.859,5.8113,5.7703,5.7492,5.6964,5.6676,5.7184,5.7877,5.803,5.7915,5.7973,5.8165,5.805,5.8011,5.7857,5.7684,5.7118,5.6772,5.6607,5.639,5.5765,5.4966,5.4522,5.4308,5.4108,5.3842,5.3554,5.374,5.3906,5.4014,5.4135,5.4336,5.4667,5.5088,5.5375,5.5511,5.5333,5.528,5.4953,5.4645,5.4087,5.3664,5.326,5.3049,5.2782,5.2394,5.205,5.2036,5.1774,5.1472,5.1583,5.1769,5.1918,5.1836,5.2118,5.238,5.2197,5.2013,5.1793,5.1555,5.1334,5.1022,5.0655,5.0453,5.0306,4.9958,4.9554,4.9939,4.9994,4.9187,4.8453,4.7957,4.7627,4.4806,4.5556,4.5594,4.5594,4.5594,4.5594,4.5594,4.5594,4.5594,4.5594,4.5594,4.5603,4.5594,4.562,4.5738,4.6416,4.7776,4.8357,4.9336,5.0664,5.1152,5.1308,5.1387,5.1387,5.1426,5.1641,5.1894,5.2363,5.2754,5.3555,5.4473,5.5293,5.5293,5.5566,5.6152,5.6738,5.6758,5.7051,5.7734,5.8627,5.9017,5.9154,5.8774,5.8389,5.8069,5.7492,5.706,5.683,5.7146,5.8069,5.8269,5.8288,5.8396,5.8531,5.9108,5.9108,5.8896,5.8646,5.8184,5.7723,5.7569,5.7228,5.6475,5.5848,5.5102,5.4678,5.4281,5.3905,5.3526,5.3274,5.3402,5.3545,5.3682,5.3814,5.4352,5.4895,5.5199,5.5489,5.5561,5.5577,5.5395,5.5126,5.4741,5.4337,5.4068,5.3953,5.3827,5.3593,5.3074,5.2674,5.2277,5.186,5.2104,5.2375,5.2482,5.2553,5.2688,5.2839,5.2837,5.2674,5.2509,5.2344,5.2123,5.1756,5.1334,5.1151,5.0967,5.0765,5.0545,5.0912,5.1004,5.0306,4.9756,4.9536,4.9297,4.4566,4.5364,4.5451,4.5421,4.5498,4.5537,4.5594,4.5594,4.5594,4.5594,4.5594,4.562,4.5627,4.5684,4.5787,4.6693,4.7774,4.8482,4.9297,5.1191,5.1308,5.1328,5.1191,5.1367,5.1387,5.1387,5.1543,5.1914,5.2578,5.3125,5.3789,5.5039,5.4902,5.4941,5.5273,5.6074,5.6133,5.6015,5.715,5.8281,5.8462,5.8493,5.8383,5.8038,5.755,5.7003,5.683,5.6656,5.6549,5.7684,5.8288,5.8288,5.8684,5.9223,5.9973,6.0185,5.9877,5.9473,5.9069,5.8627,5.8434,5.8088,5.7538,5.6916,5.6175,5.5034,5.4463,5.4207,5.3851,5.3758,5.3851,5.3851,5.3906,5.4101,5.4516,5.4895,5.5134,5.5423,5.5632,5.5645,5.5588,5.5376,5.5357,5.4953,5.4818,5.4799,5.4735,5.458,5.4026,5.3399,5.2927,5.2395,5.2516,5.2768,5.2872,5.2941,5.3046,5.3148,5.3251,5.317,5.2897,5.2858,5.2894,5.2491,5.2087,5.1756,5.1536,5.1499,5.1518,5.1481,5.1481,5.1206,5.0967,5.0894,5.0508,4.2912,4.3758,4.4355,4.4605,4.471,4.5325,4.5575,4.5594,4.5594,4.5584,4.561,4.57,4.5747,4.5761,4.5847,4.6644,4.756,4.8337,4.897,4.9941,5.0644,5.0762,5.0703,5.0898,5.1211,5.1387,5.1445,5.1523,5.1855,5.2187,5.2519,5.3301,5.3516,5.3808,5.4355,5.5156,5.539,5.4979,5.5984,5.7103,5.7403,5.8013,5.8209,5.7608,5.6992,5.6896,5.681,5.6849,5.7261,5.8107,5.825,5.8607,5.9184,5.9992,6.0492,6.0685,6.0512,6.0127,5.9723,5.9396,5.9281,5.8742,5.8204,5.7804,5.7006,5.5625,5.4806,5.4588,5.4357,5.429,5.4313,5.4281,5.4246,5.4479,5.4727,5.4933,5.5159,5.5387,5.5673,5.5684,5.5684,5.5722,5.5722,5.5654,5.5588,5.553,5.5491,5.5262,5.4629,5.403,5.3662,5.3207,5.2964,5.3099,5.3185,5.3274,5.3318,5.3442,5.3525,5.3422,5.333,5.3387,5.3468,5.3193,5.2837,5.2491,5.236,5.2653,5.2616,5.2305,5.2234,5.2087,5.2234,5.2231,5.1628,4.2316,4.3162,4.397,4.4085,4.3951,4.4662,4.5068,4.5094,4.506,4.5306,4.5691,4.5796,4.5803,4.5834,4.5938,4.6456,4.7327,4.7931,4.853,4.9219,4.9648,4.9805,5.0,5.0176,5.0469,5.0723,5.125,5.1406,5.1387,5.1523,5.1914,5.2519,5.2715,5.293,5.3555,5.418,5.4448,5.3994,5.4771,5.5333,5.5942,5.6507,5.7294,5.684,5.6684,5.653,5.6434,5.6426,5.6665,5.7184,5.7376,5.8434,5.9127,5.9819,6.0339,6.0646,6.0704,6.0569,6.0185,6.0012,6.0012,5.9511,5.8954,5.8623,5.8008,5.6735,5.5995,5.5666,5.4642,5.4423,5.5127,5.5293,5.5098,5.5161,5.5445,5.5679,5.5606,5.5566,5.5703,5.5684,5.5799,5.6011,5.591,5.5576,5.5564,5.5804,5.5834,5.5176,5.4664,5.4576,5.4242,5.3981,5.3716,5.3335,5.3206,5.3359,5.3526,5.3663,5.3982,5.4112,5.4202,5.414,5.404,5.3875,5.3582,5.3093,5.3112,5.3295,5.3222,5.2855,5.291,5.302,5.3203,5.3222,5.2635,4.1712,4.2681,4.3566,4.3585,4.3113,4.3811,4.423,4.4305,4.4245,4.4782,4.5585,4.562,4.5691,4.5881,4.607,4.6645,4.7165,4.7612,4.8144,4.832,4.8848,4.8945,4.8945,4.9004,4.9668,5.0391,5.1035,5.1269,5.1387,5.1465,5.1758,5.2402,5.2539,5.2539,5.2812,5.3223,5.3528,5.3214,5.3443,5.3605,5.4076,5.4612,5.5506,5.5906,5.5972,5.5579,5.5549,5.5665,5.5665,5.6107,5.6703,5.7665,5.8665,5.9358,5.9935,6.0319,6.0723,6.0704,6.0666,6.0608,6.0666,6.0473,5.9915,5.9261,5.8596,5.797,5.7216,5.6433,5.5413,5.5181,5.5912,5.6216,5.6019,5.5962,5.6243,5.6174,5.5923,5.5742,5.5742,5.5761,5.6069,5.6319,5.6256,5.5881,5.5845,5.6059,5.564,5.4867,5.4406,5.467,5.4687,5.4552,5.439,5.3977,5.3773,5.378,5.4129,5.4721,5.5102,5.5125,5.5132,5.5137,5.5018,5.4716,5.437,5.3928,5.361,5.361,5.346,5.335,5.3185,5.3203,5.3295,5.3314,5.3335,3.9238,4.0142,4.1623,4.2173,4.2159,4.2997,4.3434,4.3459,4.356,4.4083,4.4841,4.5082,4.5325,4.6053,4.6195,4.6504,4.668,4.7168,4.6973,4.6914,4.8047,4.8183,4.8262,4.8613,4.9375,5.0137,5.0859,5.1308,5.1387,5.1406,5.1465,5.1719,5.1719,5.1738,5.1855,5.2361,5.2871,5.2691,5.3029,5.3443,5.321,5.3551,5.3608,5.403,5.4453,5.4587,5.4876,5.5376,5.5588,5.5953,5.6434,5.7088,5.7819,5.8684,5.9338,5.9935,6.0358,6.0666,6.0723,6.0781,6.0781,6.0723,6.0108,5.9565,5.9004,5.8615,5.7997,5.7565,5.6816,5.6544,5.697,5.7026,5.6913,5.7085,5.732,5.6487,5.5912,5.5876,5.5895,5.6222,5.6676,5.7025,5.7385,5.7033,5.6757,5.6664,5.601,5.5301,5.5228,5.5206,5.5163,5.5177,5.5155,5.5478,5.5631,5.4929,5.5081,5.5712,5.6251,5.6422,5.6427,5.6254,5.6051,5.5632,5.527,5.488,5.4564,5.4179,5.3922,5.3794,5.335,5.3222,5.3405,5.3683,5.3904]}]]